[[{"header":{"parameterUnit":"m.s-1","parameterCategory":1,"la1":31.0,"la2":29.5877,"lo1":-88.7671,"lo2":-86.6584,"dy":0.0162,"dx":0.0185,"nx":115,"ny":88,"refTime":"2023-04-27T12:00:00:Z","depth":0,"parameterNumber":2,"parameterNumberName":"U-component_of_WINDS"},"data":[0.0,0.0,0.0,0.0,0.0,0.0,0.0,0.0,0.0,0.0,0.0,0.0,0.0,0.0,0.0,0.0,0.0,0.0,0.0,0.0,0.0,0.0,0.0,0.0,0.0,0.0,0.0,0.0,0.0,0.0,0.0,0.0,0.0,0.0,0.0,0.0,0.0,0.0,0.0,0.0,0.0,0.0,0.0,0.0,0.0,0.0,0.0,0.0,0.0,0.0,0.0,0.0,0.0,0.0,0.0,0.0,0.0,0.0,0.0,0.0,0.0,0.0,0.0,0.0,0.0,0.0,0.0,0.0,0.0,0.0,0.0,0.0,0.0,0.0,0.0,0.0,0.0,0.0,0.0,0.0,0.0,0.0,0.0,0.0,0.0,0.0,0.0,0.0,0.0,0.0,0.0,0.0,0.0,0.0,0.0,0.0,0.0,0.0,0.0,0.0,0.0,0.0,0.0,0.0,0.0,0.0,0.0,0.0,0.0,0.0,0.0,0.0,0.0,0.0,0.0,0.0,0.0,0.0,0.0,0.0,0.0,0.0,0.0,0.0,0.0,0.0,0.0,0.0,0.0,0.0,0.0,0.0,0.0,0.0,0.0,0.0,0.0,0.0,0.0,0.0,0.0,0.0,0.0,0.0,0.0,0.0,0.0,0.0,0.0,0.0,0.0,0.0,0.0,0.0,0.0,0.0,0.0,0.0,0.0,0.0,0.0,0.0,0.0,0.0,0.0,0.0,0.0,0.0,0.0,0.0,0.0,0.0,0.0,0.0,0.0,0.0,0.0,0.0,0.0,0.0,0.0,0.0,0.0,0.0,0.0,0.0,0.0,0.0,0.0,0.0,0.0,0.0,0.0,0.0,0.0,0.0,0.0,0.0,0.0,0.0,0.0,0.0,0.0,0.0,0.0,0.0,0.0,0.0,0.0,0.0,0.0,0.0,0.0,0.0,0.0,0.0,0.0,0.0,0.0,0.0,0.0,0.0,0.0,0.0,0.0,0.0,0.0,0.0,0.0,0.0,0.0,0.0,0.0,0.0,0.0,0.0,0.0,0.0,0.0,0.0,0.0,0.0,0.0,0.0,0.0,0.0,0.0,0.0,0.0,0.0,0.0,0.0,0.0,0.0,0.0,0.0,0.0,0.0,0.0,0.0,0.0,0.0,0.0,0.0,0.0,0.0,0.0,0.0,0.0,0.0,0.0,0.0,0.0,0.0,0.0,0.0,0.0,0.0,0.0,0.0,0.0,0.0,0.0,0.0,0.0,0.0,0.0,0.0,0.0,0.0,0.0,0.0,0.0,0.0,0.0,0.0,0.0,0.0,0.0,0.0,0.0,0.0,0.0,0.0,0.0,0.0,0.0,0.0,0.0,0.0,0.0,0.0,0.0,0.0,0.0,0.0,0.0,0.0,0.0,0.0,0.0,0.0,0.0,0.0,0.0,0.0,0.0,0.0,0.0,0.0,0.0,0.0,0.0,0.0,0.0,0.0,0.0,0.0,0.0,0.0,0.0,0.0,0.0,0.0,0.0,0.0,0.0,0.0,0.0,0.0,0.0,0.0,0.0,0.0,0.0,0.0,0.0,0.0,0.0,0.0,0.0,0.0,0.0,0.0,0.0,0.0,0.0,0.0,0.0,0.0,0.0,0.0,0.0,0.0,0.0,0.0,0.0,0.0,0.0,0.0,0.0,0.0,0.0,0.0,0.0,0.0,0.0,0.0,0.0,0.0,0.0,0.0,0.0,0.0,0.0,0.0,0.0,0.0,0.0,0.0,0.0,0.0,0.0,0.0,0.0,0.0,0.0,0.0,0.0,0.0,0.0,0.0,0.0,0.0,0.0,0.0,0.0,0.0,0.0,0.0,0.0,0.0,0.0,0.0,0.0,0.0,0.0,0.0,0.0,0.0,0.0,0.0,0.0,0.0,0.0,0.0,0.0,0.0,0.0,0.0,0.0,0.0,0.0,0.0,0.0,0.0,0.0,0.0,0.0,0.0,0.0,0.0,0.0,0.0,0.0,0.0,0.0,0.0,0.0,0.0,0.0,0.0,0.0,0.0,0.0,0.0,0.0,0.0,0.0,0.0,0.0,0.0,0.0,0.0,0.0,0.0,0.0,0.0,0.0,0.0,0.0,0.0,0.0,0.0,0.0,0.0,0.0,0.0,0.0,0.0,0.0,0.0,0.0,0.0,0.0,0.0,0.0,0.0,0.0,0.0,0.0,0.0,0.0,0.0,0.0,0.0,0.0,0.0,0.0,0.0,0.0,0.0,0.0,0.0,0.0,0.0,0.0,0.0,0.0,0.0,0.0,0.0,0.0,0.0,0.0,0.0,0.0,0.0,0.0,0.0,0.0,0.0,0.0,0.0,0.0,0.0,0.0,0.0,0.0,0.0,0.0,0.0,0.0,0.0,0.0,0.0,0.0,0.0,0.0,0.0,0.0,0.0,0.0,0.0,0.0,0.0,0.0,0.0,0.0,0.0,0.0,0.0,0.0,0.0,0.0,0.0,0.0,0.0,0.0,0.0,0.0,0.0,0.0,0.0,0.0,0.0,0.0,0.0,0.0,0.0,0.0,0.0,0.0,0.0,0.0,0.0,0.0,0.0,0.0,0.0,0.0,0.0,0.0,0.0,0.0,0.0,0.0,0.0,0.0,0.0,0.0,0.0,0.0,0.0,0.0,0.0,0.0,0.0,0.0,0.0,0.0,0.0,0.0,0.0,0.0,0.0,0.0,0.0,0.0,0.0,0.0,0.0,0.0,0.0,0.0,0.0,0.0,0.0,0.0,0.0,0.0,0.0,0.0,0.0,0.0,0.0,0.0,0.0,0.0,0.0,0.0,0.0,0.0,0.0,0.0,0.0,0.0,0.0,0.0,0.0,0.0,0.0,0.0,0.0,0.0,0.0,0.0,0.0,0.0,0.0,0.0,0.0,0.0,0.0,0.0,0.0,0.0,0.0,0.0,0.0,0.0,0.0,0.0,0.0,0.0,0.0,0.0,0.0,0.0,0.0,0.0,0.0,0.0,0.0,0.0,0.0,0.0,0.0,0.0,0.0,0.0,0.0,0.0,0.0,0.0,0.0,0.0,0.0,0.0,0.0,0.0,0.0,0.0,0.0,0.0,0.0,0.0,0.0,0.0,0.0,0.0,0.0,0.0,0.0,0.0,0.0,0.0,0.0,0.0,0.0,0.0,0.0,0.0,0.0,0.0,0.0,0.0,0.0,0.0,0.0,0.0,0.0,0.0,0.0,0.0,0.0,0.0,0.0,0.0,0.0,0.0,0.0,0.0,0.0,0.0,0.0,0.0,0.0,0.0,0.0,0.0,0.0,0.0,0.0,0.0,0.0,0.0,0.0,0.0,0.0,0.0,0.0,0.0,0.0,0.0,0.0,0.0,0.0,0.0,0.0,0.0,0.0,0.0,0.0,0.0,0.0,0.0,0.0,0.0,0.0,0.0,0.0,0.0,0.0,0.0,0.0,0.0,0.0,0.0,0.0,0.0,0.0,0.0,0.0,0.0,0.0,0.0,0.0,0.0,0.0,0.0,0.0,0.0,0.0,0.0,0.0,0.0,0.0,0.0,0.0,0.0,0.0,0.0,0.0,0.0,0.0,0.0,0.0,0.0,0.0,0.0,0.0,0.0,0.0,0.0,0.0,0.0,0.0,0.0,0.0,0.0,0.0,0.0,0.0,0.0,0.0,0.0,0.0,0.0,0.0,0.0,0.0,0.0,0.0,0.0,0.0,0.0,0.0,0.0,0.0,0.0,0.0,0.0,0.0,0.0,0.0,0.0,0.0,0.0,0.0,0.0,0.0,0.0,0.0,0.0,0.0,0.0,0.0,0.0,0.0,0.0,0.0,0.0,0.0,0.0,0.0,0.0,0.0,0.0,0.0,0.0,0.0,0.0,0.0,0.0,0.0,0.0,0.0,0.0,0.0,0.0,0.0,0.0,0.0,0.0,0.0,0.0,0.0,0.0,0.0,0.0,0.0,0.0,0.0,0.0,0.0,0.0,0.0,0.0,0.0,0.0,0.0,0.0,0.0,0.0,0.0,0.0,0.0,0.0,0.0,0.0,0.0,0.0,0.0,0.0,0.0,0.0,0.0,0.0,0.0,0.0,0.0,0.0,0.0,0.0,0.0,0.0,0.0,0.0,0.0,0.0,0.0,0.0,0.0,0.0,0.0,0.0,0.0,0.0,0.0,0.0,0.0,0.0,0.0,0.0,0.0,0.0,0.0,0.0,0.0,0.0,0.0,0.0,0.0,0.0,0.0,-1.3717,0.0,0.0,0.0,0.0,0.0,0.0,0.0,0.0,0.0,0.0,0.0,0.0,0.0,0.0,0.0,0.0,0.0,0.0,0.0,0.0,0.0,0.0,0.0,0.0,0.0,0.0,0.0,0.0,0.0,0.0,0.0,0.0,0.0,0.0,0.0,0.0,0.0,0.0,0.0,0.0,0.0,0.0,0.0,0.0,0.0,0.0,0.0,0.0,0.0,0.0,0.0,0.0,0.0,0.0,0.0,0.0,0.0,0.0,0.0,0.0,0.0,0.0,0.0,0.0,0.0,0.0,0.0,0.0,0.0,0.0,0.0,0.0,0.0,0.0,0.0,0.0,0.0,0.0,0.0,0.0,0.0,0.0,0.0,0.0,0.0,0.0,0.0,0.0,0.0,0.0,0.0,0.0,0.0,0.0,0.0,0.0,0.0,0.0,0.0,0.0,0.0,0.0,0.0,0.0,0.0,0.0,0.0,0.0,0.0,0.0,-1.1461,-1.2451,-1.2826,-1.3472,-1.4646,0.0,0.0,0.0,0.0,0.0,0.0,0.0,0.0,0.0,0.0,0.0,0.0,0.0,0.0,0.0,0.0,0.0,0.0,0.0,0.0,0.0,0.0,0.0,0.0,0.0,0.0,0.0,0.0,0.0,0.0,0.0,0.0,0.0,0.0,0.0,0.0,0.0,0.0,0.0,0.0,0.0,0.0,0.0,0.0,0.0,0.0,0.0,0.0,0.0,0.0,0.0,0.0,0.0,0.0,0.0,0.0,0.0,0.0,0.0,0.0,0.0,0.0,0.0,0.0,0.0,0.0,0.0,0.0,0.0,0.0,0.0,0.0,0.0,0.0,0.0,0.0,0.0,0.0,0.0,0.0,0.0,0.0,0.0,0.0,0.0,0.0,0.0,0.0,0.0,0.0,0.0,0.0,0.0,0.0,0.0,0.0,0.0,0.0,0.0,0.0,0.0,0.0,0.0,0.0,0.0,0.0,0.0,0.0,0.0,0.0,0.0,0.0,-1.3803,-1.4408,-1.556,0.0,0.0,0.0,0.0,0.0,0.0,0.0,0.0,0.0,0.0,0.0,0.0,0.0,0.0,0.0,0.0,0.0,0.0,0.0,0.0,0.0,0.0,0.0,0.0,0.0,0.0,0.0,0.0,0.0,0.0,0.0,0.0,0.0,0.0,0.0,0.0,0.0,0.0,0.0,0.0,0.0,0.0,0.0,0.0,0.0,0.0,0.0,0.0,0.0,0.0,0.0,0.0,0.0,0.0,0.0,0.0,0.0,0.0,0.0,0.0,0.0,0.0,0.0,0.0,0.0,0.0,0.0,0.0,0.0,0.0,0.0,0.0,0.0,0.0,0.0,0.0,0.0,0.0,0.0,0.0,0.0,0.0,0.0,0.0,0.0,0.0,0.0,0.0,0.0,0.0,0.0,0.0,0.0,0.0,0.0,0.0,0.0,0.0,0.0,0.0,0.0,0.0,0.0,0.0,0.0,0.0,0.0,0.0,0.0,0.0,-1.3837,-1.4529,-1.4883,0.0,-1.7026,0.0,0.0,0.0,0.0,0.0,0.0,0.0,0.0,0.0,0.0,0.0,0.0,0.0,0.0,0.0,0.0,0.0,0.0,0.0,0.0,0.0,0.0,0.0,0.0,0.0,0.0,0.0,0.0,0.0,0.0,0.0,0.0,0.0,0.0,0.0,0.0,0.0,0.0,0.0,0.0,0.0,0.0,0.0,0.0,0.0,0.0,0.0,0.0,0.0,0.0,0.0,0.0,0.0,0.0,0.0,0.0,0.0,0.0,0.0,0.0,0.0,0.0,0.0,0.0,0.0,0.0,0.0,0.0,0.0,0.0,0.0,0.0,0.0,0.0,0.0,0.0,0.0,0.0,0.0,0.0,0.0,0.0,0.0,0.0,0.0,0.0,0.0,0.0,0.0,0.0,0.0,0.0,0.0,0.0,0.0,0.0,0.0,0.0,0.0,0.0,0.0,0.0,0.0,0.0,0.0,0.0,0.0,0.0,0.0,0.0,-1.4728,-1.541,-1.6077,-1.6675,0.0,0.0,0.0,0.0,0.0,0.0,0.0,0.0,0.0,0.0,0.0,0.0,0.0,0.0,0.0,0.0,0.0,0.0,0.0,0.0,0.0,0.0,0.0,0.0,0.0,0.0,0.0,0.0,0.0,0.0,0.0,0.0,0.0,0.0,0.0,0.0,0.0,0.0,0.0,0.0,0.0,0.0,0.0,0.0,0.0,0.0,0.0,0.0,0.0,0.0,0.0,0.0,0.0,0.0,0.0,0.0,0.0,0.0,0.0,0.0,0.0,0.0,0.0,0.0,0.0,0.0,0.0,0.0,0.0,0.0,0.0,0.0,0.0,0.0,0.0,0.0,0.0,0.0,0.0,0.0,0.0,0.0,0.0,0.0,0.0,0.0,0.0,0.0,0.0,0.0,0.0,0.0,0.0,0.0,0.0,0.0,0.0,0.0,0.0,0.0,0.0,0.0,0.0,0.0,0.0,0.0,0.0,0.0,0.0,0.0,-1.5157,-1.568,-1.6228,-1.6896,-1.7313,-1.745,0.0,0.0,0.0,0.0,0.0,0.0,0.0,0.0,0.0,0.0,0.0,0.0,0.0,0.0,0.0,0.0,0.0,0.0,0.0,0.0,0.0,0.0,0.0,0.0,0.0,0.0,0.0,0.0,0.0,0.0,0.0,0.0,0.0,0.0,0.0,0.0,0.0,0.0,0.0,0.0,0.0,0.0,0.0,0.0,0.0,0.0,0.0,0.0,0.0,0.0,0.0,0.0,0.0,0.0,0.0,0.0,0.0,0.0,0.0,0.0,0.0,0.0,0.0,0.0,0.0,0.0,0.0,0.0,0.0,0.0,0.0,0.0,0.0,0.0,0.0,0.0,0.0,0.0,0.0,0.0,0.0,0.0,0.0,0.0,0.0,0.0,0.0,0.0,0.0,0.0,0.0,0.0,0.0,0.0,0.0,0.0,0.0,0.0,0.0,0.0,0.0,0.0,0.0,0.0,0.0,0.0,0.0,0.0,-1.5526,-1.6171,-1.674,-1.7134,-1.7211,-1.744,0.0,0.0,0.0,0.0,0.0,0.0,0.0,0.0,0.0,0.0,0.0,0.0,0.0,0.0,0.0,0.0,0.0,0.0,0.0,0.0,0.0,0.0,0.0,0.0,0.0,0.0,0.0,0.0,0.0,0.0,0.0,0.0,0.0,0.0,0.0,0.0,0.0,0.0,0.0,0.0,0.0,0.0,0.0,0.0,0.0,0.0,0.0,0.0,0.0,0.0,0.0,0.0,0.0,0.0,0.0,0.0,0.0,0.0,0.0,0.0,0.0,0.0,0.0,0.0,0.0,0.0,0.0,0.0,0.0,0.0,0.0,0.0,0.0,0.0,0.0,0.0,0.0,0.0,0.0,0.0,0.0,0.0,0.0,0.0,0.0,0.0,0.0,0.0,0.0,0.0,0.0,0.0,0.0,0.0,0.0,0.0,0.0,0.0,0.0,0.0,0.0,0.0,0.0,0.0,0.0,0.0,0.0,0.0,0.0,-1.6343,-1.7067,-1.7579,-1.7897,-1.7897,-1.818,0.0,0.0,0.0,0.0,0.0,0.0,0.0,0.0,0.0,0.0,0.0,0.0,0.0,0.0,0.0,0.0,0.0,0.0,0.0,0.0,0.0,0.0,0.0,0.0,0.0,0.0,0.0,0.0,0.0,0.0,0.0,0.0,0.0,0.0,0.0,0.0,0.0,0.0,0.0,0.0,0.0,0.0,0.0,0.0,0.0,0.0,0.0,0.0,0.0,0.0,0.0,0.0,0.0,0.0,0.0,0.0,0.0,0.0,0.0,0.0,0.0,0.0,0.0,0.0,0.0,0.0,0.0,0.0,0.0,0.0,0.0,0.0,0.0,0.0,0.0,0.0,0.0,0.0,0.0,0.0,0.0,0.0,0.0,0.0,0.0,0.0,0.0,0.0,0.0,0.0,0.0,0.0,0.0,0.0,0.0,0.0,0.0,0.0,0.0,0.0,0.0,0.0,0.0,0.0,0.0,0.0,0.0,0.0,0.0,-1.7301,0.0,-1.8344,-1.8602,-1.8655,-1.8958,0.0,0.0,0.0,0.0,0.0,0.0,0.0,0.0,0.0,0.0,0.0,0.0,0.0,0.0,0.0,0.0,0.0,0.0,0.0,0.0,0.0,0.0,0.0,0.0,0.0,0.0,0.0,0.0,0.0,0.0,0.0,0.0,0.0,0.0,0.0,0.0,0.0,0.0,0.0,0.0,0.0,0.0,0.0,0.0,0.0,0.0,0.0,0.0,0.0,0.0,0.0,0.0,0.0,0.0,0.0,0.0,0.0,0.0,0.0,0.0,0.0,0.0,0.0,0.0,0.0,0.0,0.0,0.0,0.0,0.0,0.0,0.0,0.0,0.0,0.0,0.0,0.0,0.0,0.0,0.0,0.0,0.0,0.0,0.0,0.0,0.0,0.0,0.0,0.0,0.0,0.0,0.0,0.0,0.0,0.0,0.0,0.0,0.0,0.0,0.0,0.0,0.0,0.0,0.0,0.0,0.0,0.0,0.0,-1.749,-1.8302,-1.8661,-1.9018,-1.921,-1.9417,-1.9715,0.0,0.0,0.0,0.0,0.0,0.0,0.0,0.0,0.0,0.0,0.0,0.0,0.0,0.0,0.0,0.0,0.0,0.0,0.0,0.0,0.0,0.0,0.0,0.0,0.0,0.0,0.0,0.0,0.0,0.0,0.0,0.0,0.0,0.0,0.0,0.0,0.0,0.0,0.0,0.0,0.0,0.0,0.0,0.0,0.0,0.0,0.0,0.0,0.0,0.0,0.0,0.0,0.0,0.0,0.0,0.0,0.0,0.0,0.0,0.0,0.0,0.0,0.0,0.0,0.0,0.0,0.0,0.0,0.0,0.0,0.0,0.0,0.0,0.0,0.0,0.0,0.0,0.0,0.0,0.0,0.0,0.0,0.0,0.0,0.0,0.0,0.0,0.0,0.0,0.0,0.0,0.0,0.0,0.0,0.0,0.0,0.0,0.0,0.0,0.0,0.0,0.0,0.0,0.0,0.0,0.0,0.0,0.0,0.0,-1.9364,-2.0196,-2.0789,-2.1129,-2.1278,-2.1655,0.0,0.0,0.0,0.0,0.0,0.0,0.0,0.0,0.0,0.0,0.0,0.0,0.0,0.0,0.0,0.0,0.0,0.0,0.0,0.0,0.0,0.0,0.0,0.0,0.0,0.0,0.0,0.0,0.0,0.0,0.0,0.0,0.0,0.0,0.0,0.0,0.0,0.0,0.0,0.0,0.0,0.0,0.0,0.0,0.0,0.0,0.0,0.0,0.0,0.0,0.0,0.0,0.0,0.0,0.0,0.0,0.0,0.0,0.0,0.0,0.0,0.0,0.0,0.0,0.0,0.0,0.0,0.0,0.0,0.0,0.0,0.0,0.0,0.0,0.0,0.0,0.0,0.0,0.0,0.0,0.0,0.0,0.0,0.0,0.0,0.0,0.0,0.0,0.0,0.0,0.0,0.0,0.0,0.0,0.0,0.0,0.0,0.0,0.0,0.0,0.0,0.0,0.0,0.0,0.0,0.0,0.0,0.0,0.0,-2.1711,-2.2356,-2.3007,-2.354,-2.3267,-2.3537,-2.4398,0.0,0.0,0.0,0.0,0.0,0.0,0.0,0.0,0.0,0.0,0.0,0.0,0.0,0.0,0.0,0.0,0.0,0.0,0.0,0.0,0.0,0.0,0.0,0.0,0.0,0.0,0.0,0.0,0.0,0.0,0.0,0.0,0.0,0.0,0.0,0.0,0.0,0.0,0.0,0.0,0.0,0.0,0.0,0.0,0.0,0.0,0.0,0.0,0.0,0.0,0.0,0.0,0.0,0.0,0.0,0.0,0.0,0.0,0.0,0.0,0.0,0.0,0.0,0.0,0.0,0.0,0.0,0.0,0.0,0.0,0.0,0.0,0.0,0.0,0.0,0.0,0.0,0.0,0.0,0.0,0.0,0.0,0.0,0.0,0.0,0.0,0.0,0.0,0.0,0.0,0.0,0.0,0.0,0.0,0.0,0.0,0.0,0.0,0.0,0.0,0.0,0.0,0.0,0.0,0.0,0.0,0.0,0.0,-2.5036,-2.5136,-2.5555,-2.6224,-2.5269,-2.5261,0.0,0.0,0.0,0.0,0.0,0.0,0.0,0.0,0.0,0.0,0.0,0.0,0.0,0.0,0.0,0.0,0.0,0.0,0.0,0.0,0.0,0.0,0.0,0.0,0.0,0.0,0.0,0.0,0.0,0.0,0.0,0.0,0.0,0.0,0.0,0.0,0.0,0.0,0.0,0.0,0.0,0.0,0.0,0.0,0.0,0.0,0.0,0.0,0.0,0.0,0.0,0.0,0.0,0.0,0.0,0.0,0.0,0.0,0.0,0.0,0.0,0.0,0.0,0.0,0.0,0.0,0.0,0.0,0.0,0.0,0.0,0.0,0.0,0.0,0.0,0.0,0.0,0.0,0.0,0.0,0.0,0.0,0.0,0.0,0.0,0.0,0.0,0.0,0.0,0.0,0.0,0.0,0.0,0.0,0.0,0.0,0.0,0.0,0.0,0.0,0.0,0.0,0.0,0.0,0.0,0.0,0.0,0.0,0.0,-2.8302,-2.901,-2.8893,-2.7833,-2.6789,-2.658,0.0,0.0,0.0,0.0,0.0,0.0,0.0,0.0,0.0,0.0,0.0,0.0,0.0,0.0,0.0,0.0,0.0,0.0,0.0,0.0,0.0,0.0,0.0,0.0,0.0,0.0,0.0,0.0,0.0,0.0,0.0,0.0,0.0,0.0,0.0,0.0,0.0,0.0,0.0,0.0,0.0,0.0,0.0,0.0,0.0,0.0,0.0,0.0,0.0,0.0,0.0,0.0,0.0,0.0,0.0,0.0,0.0,0.0,0.0,0.0,0.0,0.0,0.0,0.0,0.0,0.0,0.0,0.0,0.0,0.0,0.0,0.0,0.0,0.0,0.0,0.0,0.0,0.0,0.0,0.0,0.0,0.0,0.0,0.0,0.0,0.0,0.0,0.0,0.0,0.0,0.0,0.0,0.0,0.0,0.0,0.0,0.0,0.0,0.0,0.0,0.0,0.0,0.0,0.0,0.0,0.0,0.0,0.0,-2.8237,-2.9438,-3.0788,-3.101,-2.9997,-2.8888,-2.837,0.0,0.0,0.0,0.0,0.0,0.0,0.0,0.0,0.0,0.0,0.0,0.0,0.0,0.0,0.0,0.0,0.0,0.0,0.0,0.0,0.0,0.0,0.0,0.0,0.0,0.0,0.0,0.0,0.0,0.0,0.0,0.0,0.0,0.0,0.0,0.0,0.0,0.0,0.0,0.0,0.0,0.0,0.0,0.0,0.0,0.0,0.0,0.0,0.0,0.0,0.0,0.0,0.0,0.0,0.0,0.0,0.0,0.0,0.0,0.0,0.0,0.0,0.0,0.0,0.0,0.0,0.0,0.0,0.0,0.0,0.0,0.0,0.0,0.0,0.0,0.0,0.0,0.0,0.0,0.0,0.0,0.0,0.0,0.0,0.0,0.0,0.0,0.0,0.0,0.0,0.0,0.0,0.0,0.0,0.0,0.0,0.0,0.0,0.0,0.0,0.0,0.0,0.0,0.0,0.0,0.0,0.0,0.0,-2.8625,-2.9565,-3.127,-3.2169,-3.2141,-3.0975,-3.0052,0.0,0.0,0.0,0.0,0.0,0.0,0.0,0.0,0.0,0.0,0.0,0.0,0.0,0.0,0.0,0.0,0.0,0.0,0.0,0.0,0.0,0.0,0.0,0.0,0.0,0.0,0.0,0.0,0.0,0.0,0.0,0.0,0.0,0.0,0.0,0.0,0.0,0.0,0.0,0.0,0.0,0.0,0.0,0.0,0.0,0.0,0.0,0.0,0.0,0.0,0.0,0.0,0.0,0.0,0.0,0.0,0.0,0.0,0.0,0.0,0.0,0.0,0.0,0.0,0.0,0.0,0.0,0.0,0.0,0.0,0.0,0.0,0.0,0.0,0.0,0.0,0.0,0.0,0.0,0.0,0.0,0.0,0.0,0.0,0.0,0.0,0.0,0.0,0.0,0.0,0.0,0.0,0.0,0.0,0.0,0.0,0.0,0.0,0.0,0.0,0.0,0.0,0.0,0.0,0.0,0.0,0.0,0.0,-2.9779,-3.1272,-3.1906,-3.2169,-3.2169,-3.0678,-2.9804,0.0,0.0,0.0,0.0,0.0,0.0,0.0,0.0,0.0,0.0,0.0,0.0,0.0,0.0,0.0,0.0,0.0,0.0,0.0,0.0,0.0,0.0,0.0,0.0,0.0,0.0,0.0,0.0,0.0,0.0,0.0,0.0,0.0,0.0,0.0,0.0,0.0,0.0,0.0,0.0,0.0,0.0,0.0,0.0,0.0,0.0,0.0,0.0,-2.2718,0.0,0.0,0.0,0.0,0.0,0.0,0.0,0.0,0.0,0.0,0.0,0.0,0.0,0.0,0.0,0.0,0.0,0.0,0.0,0.0,0.0,0.0,0.0,0.0,0.0,0.0,0.0,0.0,0.0,0.0,0.0,0.0,0.0,0.0,0.0,0.0,0.0,0.0,0.0,0.0,0.0,0.0,0.0,0.0,0.0,0.0,0.0,0.0,0.0,0.0,0.0,0.0,0.0,0.0,0.0,0.0,0.0,0.0,0.0,-2.9808,-3.155,-3.196,-3.2169,-3.2128,-3.1309,-3.0306,0.0,0.0,0.0,0.0,0.0,0.0,0.0,0.0,0.0,0.0,0.0,0.0,0.0,0.0,0.0,0.0,0.0,0.0,0.0,0.0,0.0,0.0,0.0,0.0,0.0,0.0,0.0,0.0,0.0,0.0,0.0,0.0,0.0,0.0,0.0,0.0,0.0,0.0,0.0,0.0,0.0,0.0,0.0,0.0,0.0,0.0,0.0,0.0,0.0,0.0,0.0,0.0,0.0,0.0,0.0,0.0,0.0,0.0,0.0,0.0,0.0,0.0,0.0,0.0,0.0,0.0,0.0,0.0,0.0,0.0,0.0,0.0,0.0,0.0,0.0,0.0,0.0,0.0,0.0,0.0,0.0,0.0,0.0,0.0,0.0,0.0,0.0,0.0,0.0,0.0,0.0,0.0,0.0,0.0,0.0,0.0,0.0,0.0,0.0,0.0,0.0,0.0,0.0,0.0,0.0,0.0,0.0,-2.8915,-2.9604,-3.1355,-3.1924,-3.2169,-3.2169,-3.2124,-3.1126,-2.9077,0.0,0.0,0.0,0.0,0.0,0.0,0.0,0.0,0.0,0.0,0.0,0.0,0.0,0.0,0.0,0.0,0.0,0.0,0.0,0.0,0.0,0.0,0.0,0.0,0.0,0.0,0.0,0.0,0.0,0.0,0.0,0.0,0.0,0.0,0.0,0.0,0.0,0.0,-2.2081,-2.2182,0.0,0.0,0.0,0.0,0.0,0.0,0.0,0.0,-2.4145,0.0,0.0,0.0,0.0,0.0,0.0,0.0,0.0,0.0,0.0,0.0,0.0,0.0,0.0,0.0,0.0,0.0,0.0,0.0,0.0,0.0,0.0,0.0,0.0,0.0,0.0,0.0,0.0,0.0,0.0,0.0,0.0,0.0,0.0,0.0,0.0,0.0,0.0,0.0,0.0,0.0,0.0,0.0,0.0,0.0,0.0,0.0,0.0,0.0,0.0,0.0,0.0,0.0,0.0,0.0,0.0,-2.9428,-2.9387,-3.0201,-3.1979,-3.2141,-3.2169,-3.2169,-3.2137,-3.1402,-2.9904,0.0,0.0,0.0,0.0,0.0,0.0,0.0,0.0,0.0,0.0,0.0,0.0,0.0,0.0,0.0,0.0,0.0,0.0,0.0,0.0,0.0,0.0,0.0,0.0,0.0,0.0,0.0,0.0,0.0,0.0,0.0,0.0,0.0,0.0,0.0,0.0,0.0,0.0,0.0,-2.3076,-2.3112,0.0,0.0,0.0,0.0,0.0,0.0,0.0,0.0,-2.5041,0.0,0.0,0.0,0.0,0.0,0.0,0.0,0.0,0.0,0.0,0.0,0.0,0.0,0.0,0.0,0.0,0.0,0.0,0.0,0.0,0.0,0.0,0.0,0.0,0.0,0.0,0.0,0.0,0.0,0.0,0.0,0.0,0.0,0.0,0.0,0.0,0.0,0.0,0.0,0.0,0.0,0.0,0.0,0.0,0.0,0.0,0.0,0.0,0.0,0.0,0.0,0.0,0.0,0.0,0.0,-2.9319,-3.0093,-3.1151,-3.2589,-3.2942,-3.3091,-3.3078,-3.2773,-3.1944,0.0,0.0,0.0,0.0,0.0,0.0,0.0,0.0,0.0,0.0,0.0,0.0,0.0,0.0,0.0,0.0,0.0,0.0,0.0,0.0,0.0,0.0,0.0,0.0,0.0,0.0,0.0,0.0,0.0,0.0,0.0,0.0,0.0,0.0,0.0,0.0,0.0,0.0,0.0,0.0,-2.3534,-2.3881,-2.4424,0.0,0.0,0.0,0.0,0.0,0.0,-2.6496,-2.6183,0.0,0.0,0.0,0.0,0.0,0.0,0.0,0.0,0.0,0.0,0.0,0.0,0.0,0.0,0.0,0.0,0.0,0.0,0.0,0.0,0.0,0.0,0.0,0.0,0.0,0.0,0.0,0.0,0.0,0.0,0.0,0.0,0.0,0.0,0.0,0.0,0.0,0.0,0.0,0.0,0.0,0.0,0.0,0.0,0.0,0.0,0.0,0.0,0.0,0.0,0.0,0.0,0.0,0.0,0.0,-2.9591,-3.0975,-3.2155,-3.32,-3.3715,-3.3946,-3.3995,-3.3183,-3.2194,0.0,0.0,0.0,0.0,0.0,0.0,0.0,0.0,0.0,0.0,0.0,0.0,0.0,0.0,0.0,0.0,0.0,0.0,0.0,0.0,0.0,0.0,0.0,0.0,0.0,0.0,0.0,0.0,0.0,0.0,0.0,0.0,0.0,0.0,0.0,0.0,0.0,0.0,0.0,0.0,0.0,-2.4551,-2.523,-2.4891,0.0,0.0,0.0,0.0,-2.7201,-2.7493,0.0,0.0,0.0,0.0,0.0,0.0,0.0,0.0,0.0,0.0,0.0,0.0,0.0,0.0,0.0,0.0,0.0,0.0,0.0,0.0,0.0,0.0,0.0,0.0,0.0,0.0,0.0,0.0,0.0,0.0,0.0,0.0,0.0,0.0,0.0,0.0,0.0,0.0,0.0,0.0,0.0,0.0,0.0,0.0,0.0,0.0,0.0,0.0,0.0,0.0,0.0,0.0,0.0,0.0,0.0,0.0,-3.0283,-3.1979,-3.3173,-3.381,-3.3919,-3.4099,-3.4451,-3.2869,-3.1764,0.0,0.0,0.0,0.0,0.0,0.0,0.0,0.0,0.0,0.0,0.0,0.0,0.0,0.0,0.0,0.0,0.0,0.0,0.0,0.0,0.0,0.0,0.0,0.0,0.0,0.0,0.0,0.0,0.0,0.0,0.0,0.0,0.0,0.0,0.0,0.0,0.0,0.0,0.0,0.0,0.0,-2.4825,-2.5692,-2.5714,-2.567,0.0,0.0,-2.788,-2.8506,-2.9314,0.0,0.0,0.0,0.0,0.0,0.0,0.0,0.0,0.0,0.0,0.0,0.0,0.0,0.0,0.0,0.0,0.0,0.0,0.0,0.0,0.0,0.0,0.0,0.0,0.0,0.0,0.0,0.0,0.0,0.0,0.0,0.0,0.0,0.0,0.0,0.0,0.0,0.0,0.0,0.0,0.0,0.0,0.0,0.0,0.0,0.0,0.0,0.0,0.0,0.0,0.0,0.0,0.0,0.0,0.0,-2.9135,-3.091,-3.3262,-3.4637,-3.5128,-3.5474,-3.5731,-3.5962,-3.4175,-3.2821,0.0,0.0,0.0,0.0,0.0,0.0,0.0,0.0,0.0,0.0,0.0,0.0,0.0,0.0,0.0,0.0,0.0,0.0,0.0,0.0,0.0,0.0,0.0,0.0,0.0,0.0,0.0,0.0,0.0,0.0,0.0,0.0,0.0,0.0,0.0,0.0,0.0,0.0,0.0,0.0,0.0,0.0,-2.5808,-2.6594,0.0,0.0,0.0,-2.8833,-2.8768,0.0,0.0,0.0,0.0,0.0,0.0,0.0,0.0,0.0,0.0,0.0,0.0,0.0,0.0,0.0,0.0,0.0,0.0,0.0,0.0,0.0,0.0,0.0,0.0,0.0,0.0,0.0,0.0,0.0,0.0,0.0,0.0,0.0,0.0,0.0,0.0,0.0,0.0,0.0,0.0,0.0,0.0,0.0,0.0,0.0,0.0,0.0,0.0,0.0,0.0,0.0,0.0,0.0,0.0,0.0,0.0,0.0,-3.1746,-3.4432,-3.5983,-3.6304,-3.6754,-3.7056,-3.712,-3.5469,0.0,0.0,0.0,0.0,0.0,0.0,0.0,0.0,0.0,0.0,0.0,0.0,0.0,0.0,0.0,0.0,0.0,0.0,0.0,0.0,0.0,0.0,0.0,0.0,0.0,0.0,0.0,-2.3482,0.0,0.0,0.0,0.0,0.0,0.0,0.0,0.0,0.0,0.0,0.0,0.0,0.0,0.0,-2.5196,-2.6147,-2.7403,-2.8269,0.0,0.0,-2.9401,-2.9161,-2.9936,-3.0035,0.0,0.0,0.0,0.0,0.0,0.0,0.0,0.0,0.0,0.0,0.0,0.0,0.0,0.0,0.0,0.0,0.0,0.0,0.0,0.0,0.0,0.0,0.0,0.0,0.0,0.0,0.0,0.0,0.0,0.0,0.0,0.0,0.0,0.0,0.0,0.0,0.0,0.0,0.0,0.0,0.0,0.0,0.0,0.0,0.0,0.0,0.0,0.0,0.0,0.0,0.0,0.0,0.0,0.0,0.0,-3.2904,-3.5555,-3.6922,-3.6936,-3.695,-3.7148,-3.7519,-3.6145,-3.4683,0.0,0.0,0.0,0.0,0.0,0.0,0.0,0.0,0.0,0.0,0.0,0.0,0.0,0.0,0.0,0.0,0.0,0.0,0.0,0.0,0.0,0.0,0.0,0.0,0.0,0.0,0.0,0.0,0.0,0.0,0.0,0.0,0.0,0.0,0.0,0.0,0.0,0.0,0.0,0.0,0.0,-2.4826,-2.6911,-2.8098,-2.8918,0.0,0.0,-2.9631,-3.0046,-3.0898,-3.0887,-2.9008,0.0,0.0,0.0,0.0,0.0,0.0,0.0,0.0,0.0,0.0,0.0,0.0,0.0,0.0,0.0,0.0,0.0,0.0,0.0,0.0,0.0,0.0,0.0,0.0,0.0,0.0,0.0,0.0,0.0,0.0,0.0,0.0,0.0,0.0,0.0,0.0,0.0,0.0,0.0,0.0,0.0,0.0,0.0,0.0,0.0,0.0,0.0,0.0,0.0,0.0,0.0,0.0,0.0,-3.1447,-3.3157,-3.5742,-3.7148,-3.738,-3.7596,-3.7825,-3.7991,-3.6931,-3.5683,0.0,0.0,0.0,0.0,0.0,0.0,0.0,0.0,0.0,0.0,0.0,0.0,0.0,0.0,0.0,0.0,0.0,0.0,0.0,0.0,0.0,0.0,0.0,0.0,0.0,0.0,0.0,0.0,-2.5666,-2.5721,-2.4847,0.0,0.0,0.0,0.0,0.0,0.0,0.0,0.0,0.0,0.0,-2.4925,-2.7334,-2.8976,0.0,0.0,-3.0177,-3.0319,-3.0231,-3.0515,-3.0199,-2.8571,-2.7534,0.0,0.0,0.0,0.0,0.0,0.0,0.0,0.0,0.0,0.0,0.0,0.0,0.0,0.0,0.0,0.0,0.0,0.0,0.0,0.0,0.0,0.0,0.0,0.0,0.0,0.0,0.0,0.0,0.0,0.0,0.0,0.0,0.0,0.0,0.0,0.0,0.0,0.0,0.0,0.0,0.0,0.0,0.0,0.0,0.0,0.0,0.0,0.0,0.0,0.0,0.0,0.0,-3.1721,-3.3437,-3.6028,-3.7519,-3.7763,-3.8052,-3.8202,-3.8188,-3.7632,-3.6662,0.0,0.0,0.0,0.0,0.0,0.0,0.0,0.0,0.0,0.0,0.0,0.0,0.0,0.0,0.0,0.0,0.0,0.0,0.0,0.0,0.0,0.0,0.0,0.0,0.0,0.0,0.0,0.0,-2.5775,-2.5535,-2.4388,0.0,0.0,0.0,0.0,0.0,0.0,0.0,0.0,0.0,0.0,-2.5469,-2.7854,-2.9547,-3.0469,-3.0199,-3.0362,-3.0362,-3.0046,-2.9991,-2.9598,-2.844,0.0,0.0,0.0,0.0,0.0,0.0,0.0,0.0,0.0,0.0,0.0,0.0,0.0,0.0,0.0,0.0,0.0,0.0,0.0,0.0,0.0,0.0,0.0,0.0,0.0,0.0,0.0,0.0,0.0,0.0,-3.0561,0.0,0.0,0.0,0.0,0.0,0.0,0.0,0.0,0.0,0.0,0.0,0.0,0.0,0.0,0.0,0.0,0.0,0.0,0.0,0.0,0.0,0.0,-3.2421,-3.3922,-3.6678,-3.8127,-3.8202,-3.8202,-3.8202,-3.8202,-3.8188,-3.7519,-3.6129,0.0,0.0,0.0,0.0,0.0,0.0,0.0,0.0,0.0,0.0,0.0,0.0,0.0,0.0,0.0,0.0,0.0,0.0,0.0,0.0,0.0,0.0,0.0,0.0,0.0,0.0,-2.488,-2.4678,-2.4334,0.0,0.0,0.0,0.0,0.0,0.0,0.0,0.0,0.0,0.0,-2.5284,-2.6592,-2.849,-2.9576,-3.0105,-3.0166,-2.9816,-2.9521,-2.951,-2.95,-2.9325,0.0,0.0,0.0,0.0,0.0,0.0,0.0,0.0,0.0,0.0,0.0,0.0,0.0,0.0,0.0,0.0,0.0,0.0,0.0,0.0,0.0,0.0,0.0,0.0,0.0,0.0,0.0,-3.4738,-3.4694,0.0,0.0,0.0,0.0,0.0,0.0,0.0,0.0,0.0,0.0,0.0,-3.6742,-3.5907,0.0,0.0,0.0,0.0,0.0,0.0,0.0,0.0,0.0,0.0,0.0,0.0,-3.2115,-3.3564,-3.6339,-3.7839,-3.7839,-3.8066,-3.8202,-3.8202,-3.8202,-3.7548,-3.6173,0.0,0.0,0.0,0.0,0.0,0.0,0.0,0.0,0.0,0.0,0.0,0.0,0.0,0.0,0.0,0.0,0.0,0.0,0.0,0.0,0.0,0.0,0.0,0.0,0.0,-2.595,0.0,0.0,0.0,0.0,0.0,0.0,0.0,0.0,0.0,0.0,0.0,-2.465,-2.5764,-2.5873,-2.6501,-2.8043,-2.8283,-2.8729,0.0,0.0,0.0,0.0,0.0,0.0,0.0,0.0,0.0,0.0,0.0,0.0,0.0,0.0,-2.6452,-2.5994,-2.6147,-2.6376,-2.6354,0.0,0.0,0.0,0.0,0.0,0.0,0.0,0.0,0.0,0.0,0.0,0.0,0.0,0.0,-3.6331,0.0,-3.6348,0.0,0.0,0.0,0.0,0.0,0.0,0.0,0.0,-3.7212,-3.7831,-3.8385,-3.7822,-3.759,0.0,-3.6137,-3.4134,0.0,0.0,0.0,0.0,0.0,0.0,0.0,0.0,-3.2506,-3.3861,-3.6439,-3.7839,-3.7839,-3.8066,-3.8202,-3.8202,-3.8202,-3.775,-3.6881,-3.5784,-3.4438,0.0,0.0,0.0,0.0,0.0,0.0,0.0,0.0,0.0,0.0,0.0,0.0,0.0,0.0,0.0,0.0,0.0,0.0,0.0,0.0,0.0,0.0,0.0,-2.6343,0.0,0.0,0.0,0.0,0.0,0.0,0.0,0.0,0.0,-2.3951,-2.4716,-2.559,-2.6507,-2.6812,-2.7144,-2.7662,0.0,0.0,0.0,0.0,0.0,0.0,0.0,-2.8244,-2.8091,-2.8211,-2.8418,-2.8746,-2.8659,-2.8538,-2.8538,0.0,0.0,-2.7545,-2.761,-2.7861,-2.8036,-2.8069,-2.8112,-2.8287,-2.8702,-2.9117,0.0,0.0,0.0,0.0,0.0,0.0,0.0,0.0,-3.7857,-3.7255,0.0,-3.784,0.0,0.0,0.0,0.0,0.0,-3.7196,0.0,0.0,-4.0514,-4.1225,-4.0625,-4.0593,-4.0181,-3.9298,-3.8118,-3.7326,-3.677,-3.4482,0.0,0.0,0.0,0.0,0.0,0.0,-3.3622,-3.4881,-3.7024,-3.8188,-3.8202,-3.8202,-3.8202,-3.8202,-3.8202,-3.8188,-3.8144,-3.6895,-3.6173,-3.6057,-3.2882,0.0,0.0,0.0,0.0,0.0,0.0,0.0,0.0,0.0,0.0,0.0,0.0,0.0,0.0,0.0,0.0,0.0,0.0,0.0,0.0,-2.6576,0.0,0.0,0.0,0.0,0.0,0.0,0.0,0.0,0.0,0.0,-2.4708,-2.5786,-2.6649,-2.666,0.0,0.0,0.0,0.0,-2.9245,-2.8228,-2.8473,-2.8615,-2.8211,-2.8506,-2.8932,-2.9379,0.0,0.0,-3.0231,-2.9871,-2.9609,-2.9576,-3.0002,-3.0002,-2.9095,-2.8964,-2.9095,-2.9532,-2.9652,-2.9773,-3.0199,-3.0668,-3.0996,-3.8186,0.0,0.0,0.0,0.0,-3.7814,-3.8841,-4.0128,-4.0343,-4.0117,-3.9604,-3.9936,0.0,0.0,0.0,0.0,0.0,0.0,-3.8776,-3.9266,-4.0372,-4.102,-4.1304,-4.1304,-4.1209,-4.0923,-4.0588,-4.0318,-4.0114,-3.8708,-3.6319,-3.3092,0.0,0.0,0.0,0.0,-3.435,-3.5683,-3.7403,-3.8202,-3.8202,-3.8202,-3.8202,-3.8202,-3.8202,-3.8202,-3.8202,-3.7779,-3.7112,-3.6173,-3.6067,0.0,0.0,0.0,0.0,0.0,0.0,0.0,0.0,0.0,0.0,0.0,0.0,0.0,0.0,0.0,0.0,0.0,0.0,0.0,-2.7201,-2.7452,-2.6872,0.0,0.0,0.0,0.0,0.0,0.0,0.0,0.0,0.0,-2.6742,-2.6954,-2.7119,0.0,0.0,-2.7385,-2.7359,-2.8349,-2.9042,-2.9041,-2.8899,0.0,0.0,-2.9412,-2.9325,-2.9467,-3.0155,-3.0701,-3.0701,-3.116,-3.1553,-3.1542,-3.1935,-3.2154,-3.1891,-3.1553,-3.1509,-3.1913,-3.2044,-3.2077,-3.2241,-3.2623,-3.2951,-4.2106,-4.1086,-3.9816,-3.9337,-3.952,-3.9951,-4.0945,-4.2303,-4.2286,-4.208,-4.1675,-4.1688,-4.0522,-3.8529,-3.8515,0.0,0.0,0.0,-3.9692,-4.034,-4.0783,-4.1193,-4.1573,-4.1588,-4.1588,-4.1588,-4.139,-4.139,-4.1588,-4.0269,-3.8372,-3.5881,0.0,0.0,-3.3571,-3.4352,-3.5324,-3.6417,-3.762,-3.8202,-3.8202,-3.8202,-3.8202,-3.8202,-3.8202,-3.8202,-3.8202,-3.8202,-3.7794,-3.6967,-3.7201,-3.5938,0.0,0.0,0.0,0.0,0.0,0.0,0.0,0.0,0.0,0.0,0.0,-2.4249,0.0,0.0,0.0,0.0,-2.6827,-2.7554,-2.8556,-2.8162,0.0,0.0,0.0,0.0,0.0,0.0,0.0,-2.5735,-2.6707,-2.7576,-2.7911,-2.8039,-2.8178,-2.8178,-2.8196,-2.8061,-2.7927,0.0,-2.9653,-2.9573,-2.9401,-2.9543,-3.0111,-3.0122,-3.0111,-3.0308,-3.0963,-3.1465,-3.1509,-3.2143,-3.2634,-3.2689,-3.2874,-3.3126,-3.3322,-3.3126,-3.3016,-3.3289,-3.3355,-3.341,-3.3595,-3.3879,-3.4087,-4.5632,-4.4511,-4.0431,-3.9802,-4.1558,-4.1591,-4.2353,-4.3552,-4.3628,-4.3112,-4.2433,-4.2879,-4.2195,-4.0598,-4.019,0.0,-3.9692,-4.0372,-4.1004,-4.1588,-4.1588,-4.1588,-4.1588,-4.1588,-4.1588,-4.1588,-4.1122,-4.1122,-4.1491,-4.0081,-3.9146,-3.8786,-3.7122,-3.5798,-3.4982,-3.5669,-3.6374,-3.6993,-3.7779,-3.8159,-3.8202,-3.8202,-3.8202,-3.8202,-3.8202,-3.8202,-3.8202,-3.8202,-3.8202,-3.8173,-3.6967,-3.623,-3.5971,0.0,0.0,0.0,0.0,0.0,0.0,0.0,0.0,0.0,0.0,0.0,0.0,0.0,0.0,0.0,-2.8492,0.0,-3.0079,-2.8677,0.0,0.0,0.0,-2.6581,-2.7254,-2.6964,-2.7117,-2.7966,0.0,0.0,-2.8429,0.0,-2.9609,-2.9652,-2.998,-2.9882,-2.8997,-2.9991,-3.0581,-2.9762,-3.0013,-3.0319,-3.0428,-3.0745,-3.1149,-3.1542,-3.2099,-3.2394,-3.2437,-3.2798,-3.3093,-3.3126,-3.3158,-3.3333,-3.377,-3.3835,-3.3857,-3.3846,-3.3857,-3.3988,-3.4349,-3.4469,-3.448,-4.4927,-4.4322,-4.3312,-4.2979,-4.3081,-4.3098,-4.3297,-4.3628,-4.3645,-4.3469,-4.332,-4.3152,-4.261,-4.174,-4.1613,-4.1358,-4.1099,-4.1272,-4.1446,-4.1588,-4.1588,-4.1588,-4.1588,-4.1588,-4.1588,-4.1588,-4.1456,-4.144,-4.1588,-4.0816,-4.0194,-3.9786,-3.8311,-3.698,-3.5741,-3.5942,-3.6432,-3.7229,-3.7447,-3.7738,-3.8188,-3.8202,-3.8202,-3.8202,-3.8202,-3.8202,-3.8202,-3.8202,-3.8202,-3.8202,-3.7912,-3.7022,-3.5709,-3.393,0.0,0.0,0.0,0.0,0.0,0.0,0.0,0.0,0.0,-2.5803,-2.5793,0.0,-2.8395,0.0,-2.9463,-3.026,-2.9951,-2.9479,0.0,0.0,-2.7869,-2.7693,-2.8315,-2.913,-2.9429,-2.9079,-3.0034,-3.048,-3.0035,-3.0285,-3.0701,-3.105,-3.0581,-3.0133,-2.9915,-3.0428,-3.0821,-3.0646,-3.0941,-3.128,-3.1291,-3.1706,-3.2044,-3.2186,-3.259,-3.2896,-3.2896,-3.33,-3.3617,-3.365,-3.3934,-3.4196,-3.4316,-3.4349,-3.4338,-3.4349,-3.4349,-3.4371,-3.4502,-3.4524,-3.4524,-4.6057,-4.5384,-4.5384,-4.4919,-4.4145,-4.3772,-4.3645,-4.3645,-4.3645,-4.3645,-4.3552,-4.3235,-4.2789,-4.2349,-4.2349,-4.2158,-4.1851,-4.1851,-4.172,-4.1588,-4.1588,-4.1588,-4.1588,-4.1588,-4.1588,-4.1588,-4.1588,-4.1588,-4.1588,-4.1323,-4.0768,-4.006,-3.9244,-3.8127,-3.6606,-3.6302,-3.6346,-3.6867,-3.7157,-3.7593,-3.8173,-3.8202,-3.8072,-3.781,-3.781,-3.7665,-3.7375,-3.736,-3.7272,-3.7199,-3.7199,-3.6749,-3.5695,-3.4342,-3.279,0.0,0.0,0.0,0.0,0.0,0.0,0.0,0.0,0.0,0.0,0.0,-2.9297,-2.9142,-3.0107,-3.0533,-2.9998,-2.9777,-2.9628,-2.952,-2.9248,-2.9462,-3.0295,-3.079,-3.1121,-3.1124,-3.1654,-3.1854,-3.1372,-3.144,-3.1605,-3.1586,-3.1171,-3.0843,-3.0865,-3.1072,-3.1214,-3.1236,-3.1444,-3.1618,-3.1618,-3.2055,-3.2394,-3.2437,-3.2951,-3.3388,-3.3399,-3.3792,-3.4119,-3.4141,-3.4338,-3.4524,-3.4524,-3.4524,-3.4524,-3.4524,-3.4524,-3.4524,-3.4524,-3.4524,-3.4524,-4.7841,-4.6845,-4.6845,-4.618,-4.5018,-4.4173,-4.377,-4.3687,-4.3611,-4.3645,-4.3552,-4.3295,-4.2974,-4.2648,-4.2648,-4.2476,-4.2174,-4.2109,-4.1916,-4.1654,-4.1588,-4.1588,-4.1588,-4.1588,-4.1588,-4.1588,-4.1588,-4.1588,-4.1588,-4.1588,-4.1024,-3.996,-3.9813,-3.8945,-3.7361,-3.6635,-3.6286,-3.6315,-3.7041,-3.7665,-3.8188,-3.813,-3.7839,-3.7331,-3.723,-3.6896,-3.633,-3.6286,-3.6229,-3.6014,-3.6014,-3.5985,-3.5839,-3.4512,-3.3408,0.0,-3.1005,0.0,0.0,0.0,0.0,0.0,0.0,0.0,0.0,-2.963,-2.9986,-3.03,-3.0533,-3.0569,-3.0442,-2.9942,-2.9957,-3.0679,-3.0811,-3.1316,-3.228,-3.2221,-3.2265,-3.317,-3.2936,-3.2654,-3.2521,-3.2521,-3.2319,-3.1924,-3.179,-3.1633,-3.1699,-3.1575,-3.1586,-3.1618,-3.1618,-3.1651,-3.1782,-3.2175,-3.2525,-3.2656,-3.3322,-3.3868,-3.389,-3.4229,-3.4513,-3.4513,-3.4502,-3.4524,-3.4524,-3.4524,-3.4524,-3.4524,-3.4524,-3.4524,-3.4524,-3.4524,-3.4524,-4.8155,-4.7659,-4.7659,-4.7099,-4.6152,-4.5404,-4.4716,-4.4121,-4.373,-4.3645,-4.3568,-4.3492,-4.3295,-4.3035,-4.2974,-4.2834,-4.2522,-4.2222,-4.2045,-4.198,-4.172,-4.1588,-4.1588,-4.1588,-4.1588,-4.1588,-4.1588,-4.1588,-4.1588,-4.1588,-4.1107,-4.013,-3.9458,-3.8652,-3.755,0.0,0.0,0.0,-3.7447,-3.8086,-3.8173,-3.7723,-3.7418,-3.7288,-3.678,0.0,-3.6315,-3.6286,-3.6229,-3.6014,-3.6014,0.0,0.0,0.0,0.0,0.0,0.0,0.0,0.0,0.0,0.0,0.0,-2.9377,-2.8967,-2.928,-2.9785,-3.0217,-3.0721,-3.0781,-3.0973,-3.138,-3.1344,-3.1321,-3.1517,-3.1836,-3.2196,-3.2503,-3.3119,-3.3458,-3.3241,-3.3531,-3.3517,-3.3112,-3.3035,-3.3047,-3.2835,-3.2533,-3.2218,-3.2218,-3.1823,-3.1618,-3.1629,-3.1662,-3.1793,-3.2175,-3.2634,-3.3071,-3.3486,-3.3977,-3.4338,-3.4371,-3.4425,-3.4513,-3.4524,-3.4524,-3.4524,-3.4524,-3.4524,-3.4524,-3.4524,-3.4524,-3.4524,-3.4524,-3.4524,-3.4524,-4.9345,0.0,-4.8765,-4.8323,0.0,-4.6641,-4.6055,-4.5642,-4.4223,-4.3645,-4.3645,-4.3645,-4.3492,-4.3355,-4.3372,-4.3157,-4.2834,-4.2664,-4.2429,-4.2109,-4.1916,-4.1785,-4.1588,-4.1588,-4.1588,-4.1588,-4.1588,-4.1588,-4.1588,-4.1588,-4.1241,-4.0478,-3.981,-3.9083,-3.831,-3.7624,-3.7099,-3.6809,-3.7433,-3.7912,-3.8173,-3.7912,-3.7607,-3.7317,0.0,0.0,0.0,0.0,0.0,0.0,0.0,0.0,0.0,0.0,0.0,-3.5331,-3.478,-3.4265,-3.3881,-3.3037,-3.2437,-3.2136,-3.1134,-3.0362,-3.0098,-3.0555,-3.0975,-3.124,-3.1264,-3.1372,-3.1637,-3.1661,-3.1781,-3.2046,-3.2334,-3.2683,-3.32,-3.3717,-3.4042,-3.4017,-3.4169,-3.4237,-3.3645,-3.3545,-3.3335,-3.2935,-3.2622,-3.242,-3.2308,-3.1924,-3.1695,-3.1946,-3.2001,-3.2175,-3.2656,-3.3126,-3.3486,-3.3792,-3.4196,-3.448,-3.4524,-3.4524,-3.4524,-3.4524,-3.4524,-3.4524,-3.4524,-3.4524,-3.4524,-3.4524,-3.4524,-3.4622,-3.4797,-3.4862,-3.4862,-5.0504,-4.9908,-4.989,-4.9451,-4.8679,-4.7907,-4.7392,-4.7056,0.0,0.0,0.0,-4.3678,-4.3645,-4.3645,-4.3645,-4.3432,-4.3174,-4.3096,-4.2789,-4.2302,-4.2174,-4.198,-4.172,-4.1654,-4.1588,-4.1588,-4.1588,-4.1588,-4.1588,-4.1588,-4.1323,-4.0799,-4.0185,-3.9565,-3.8958,-3.8427,-3.7955,-3.7491,-3.7462,-3.7709,-3.8173,-3.8101,-3.781,-3.7317,-3.7201,-3.6881,-3.633,-3.6286,-3.6229,-3.6014,-3.6014,-3.6,-3.5983,-3.5998,-3.5968,-3.5994,-3.6008,-3.5925,-3.5794,-3.5108,-3.4432,-3.3602,-3.2438,-3.148,-3.1048,-3.142,-3.1661,-3.1661,-3.1661,-3.1661,-3.1673,-3.1769,-3.1997,-3.2454,-3.2671,-3.3128,-3.3909,-3.4138,-3.427,-3.4739,-3.4714,-3.4628,-3.4237,-3.4139,-3.3831,-3.3024,-3.2912,-3.2667,-3.2634,-3.2294,-3.2174,-3.2603,-3.2608,-3.2667,-3.3115,-3.3486,-3.3803,-3.3945,-3.4283,-3.4513,-3.4524,-3.4524,-3.4524,-3.4524,-3.4524,-3.4524,-3.4524,-3.4524,-3.4524,-3.4524,-3.46,-3.4753,-3.5113,-3.5354,-3.5452,-5.082,-5.0733,-5.0733,-5.0392,-4.9795,-4.9132,-4.8196,-4.7079,-4.5276,-4.4539,-4.4506,-4.3893,-4.3645,-4.3645,-4.3645,-4.3568,-4.3509,-4.3235,-4.3035,0.0,-4.2365,-4.2109,-4.2045,-4.172,-4.1588,-4.1588,-4.1588,-4.1588,-4.1588,-4.1588,-4.1323,-4.0783,-4.0185,-3.9406,-3.8412,-3.8277,-3.8159,-3.8072,-3.8072,-3.8115,-3.8202,-3.7694,-3.7404,-3.7288,-3.6765,-3.6402,-3.633,-3.6315,-3.6229,-3.6014,-3.6014,-3.6273,-3.6821,-3.6864,-3.7094,-3.7734,-3.7792,-3.7534,-3.6852,-3.6184,-3.4912,-3.3031,-3.2101,-3.1725,-3.1565,-3.1625,-3.1661,-3.1661,-3.1661,-3.1661,-3.1697,-3.2094,-3.2406,-3.2575,-3.3296,-3.3897,-3.4066,-3.4438,-3.4715,-3.4799,-3.4823,-3.4823,-3.4628,-3.4628,-3.4628,-3.4421,-3.3878,-3.3819,-3.373,-3.3287,-3.319,-3.3592,-3.3292,-3.3287,-3.3693,-3.3737,-3.4087,-3.436,-3.4447,-3.4524,-3.4524,-3.4524,-3.4524,-3.4524,-3.4524,-3.4513,-3.4524,-3.4524,-3.4524,-3.4534,-3.4764,-3.507,-3.5233,-3.5867,-3.6315,-5.0891,-5.0891,-5.0891,-5.0764,-5.0474,-4.9886,-4.9166,-4.8292,-4.6885,-4.6046,-4.5661,-4.5327,-4.4797,-4.4224,-4.4191,-4.3976,-4.3568,-4.3432,-4.3174,-4.2851,-4.2522,-4.2174,-4.1851,-4.1654,-4.1588,-4.1588,-4.1588,-4.1588,-4.1588,-4.1588,-4.1456,-4.1189,-4.0324,-3.9334,-3.8263,-3.8202,-3.8202,-3.8202,-3.8202,-3.8202,-3.8188,-3.7926,-3.7796,-3.7781,-3.7491,-3.7346,-3.7331,-3.7331,-3.7272,-3.7184,-3.7184,-3.7314,-3.7604,-3.7632,-3.7852,-3.8188,-3.8202,-3.7825,-3.7056,-3.5588,-3.4275,-3.3288,-3.2264,-3.1661,-3.1661,-3.1661,-3.1661,-3.1661,-3.1661,-3.1793,-3.207,-3.2346,-3.2719,-3.3284,-3.3777,-3.415,-3.4438,-3.4667,-3.4811,-3.4823,-3.4823,-3.4823,-3.4823,-3.4823,-3.4628,-3.4457,-3.4351,-3.4633,-3.5189,-3.5017,-3.4783,-3.4789,-3.4611,-3.4623,-3.5061,-3.4834,-3.4825,-3.4925,-3.4736,-3.4524,-3.4524,-3.4524,-3.4524,-3.4524,-3.4736,-3.4936,-3.4936,-3.4958,-3.4958,-3.4969,-3.4756,-3.4949,-3.5528,-3.6391,-3.6915,-5.0891,-5.0891,-5.0891,-5.0891,-5.0891,-5.0436,-5.0062,-4.9646,-4.8609,-4.7793,-4.7132,-4.6632,-4.5818,-4.5031,-4.4937,-4.4539,-4.3926,-4.386,-4.346,-4.2851,-4.2772,-4.2396,-4.1835,-4.1785,-4.167,-4.1588,-4.1588,-4.1588,-4.1588,-4.1588,-4.1522,-4.1307,-4.0393,-3.9391,-3.8427,-3.8277,-3.8202,-3.8202,-3.8202,-3.8202,-3.8202,-3.8202,-3.8202,-3.8202,-3.8202,-3.8202,-3.8202,-3.8202,-3.8202,-3.8202,-3.8202,-3.8202,-3.8202,-3.8202,-3.8202,-3.8202,-3.8202,-3.7901,-3.7134,-3.5101,-3.3869,-3.3771,-3.2599,-3.1761,-3.1661,-3.1661,-3.1661,-3.1673,-3.1805,-3.2046,-3.243,-3.2743,-3.3176,-3.3945,-3.415,-3.439,-3.4751,-3.4823,-3.4823,-3.4823,-3.4823,-3.4823,-3.4823,-3.4823,-3.4688,-3.4572,-3.4863,-3.5549,-3.6353,-3.6637,-3.652,-3.6191,-3.5871,-3.5795,-3.6208,-3.5806,-3.5477,-3.5598,-3.5168,-3.4947,-3.4958,-3.4958,-3.4958,-3.508,-3.5279,-3.5598,-3.5598,-3.5598,-3.5598,-3.5609,-3.5424,-3.5489,-3.6534,-3.7211,-3.7593,-5.0891,-5.0891,-5.0891,-5.0891,-5.0891,-5.0836,-5.0764,-5.062,-5.0107,-4.9578,-4.889,-4.6859,-4.5844,-4.5698,-4.5682,-4.5301,-4.4622,-4.4589,-4.4197,-4.3498,-4.3174,-4.2851,-4.2459,-4.2158,-4.1916,-4.1654,-4.1588,-4.1588,-4.1588,-4.1588,-4.1374,-4.0851,-4.02,-3.9636,-3.9017,-3.8501,-3.8202,-3.8202,-3.8202,-3.8202,-3.8202,-3.8202,-3.8202,-3.8202,-3.8202,-3.8202,-3.8202,-3.8202,-3.8202,-3.8202,-3.8202,-3.8202,-3.8202,-3.8202,-3.8202,-3.8202,-3.8202,-3.7976,-3.7457,-3.5736,-3.4498,-3.4152,-3.2846,-3.1937,-3.1761,-3.1661,-3.1673,-3.1745,-3.213,-3.2418,-3.2563,-3.3296,-3.3861,-3.4078,-3.4463,-3.4787,-3.4799,-3.4823,-3.4823,-3.4823,-3.4823,-3.4823,-3.4823,-3.4823,-3.5016,-3.5314,-3.5693,-3.6255,-3.6864,-3.7367,-3.7618,-3.7536,-3.693,-3.6391,-3.6375,-3.5817,-3.5817,-3.6048,-3.5708,-3.5598,-3.5719,-3.5938,-3.6048,-3.584,-3.6048,-3.6157,-3.6157,-3.6157,-3.6157,-3.6214,-3.6401,-3.6995,-3.793,-3.818,-3.8033,-5.0891,-5.0891,-5.0891,-5.0891,-5.0891,-5.0891,-5.0891,-5.0836,-5.0307,-4.9815,-4.9291,-4.8046,-4.7141,-4.646,-4.6444,-4.6046,-4.5367,-4.5334,-4.4814,-4.3986,-4.3814,-4.3336,-4.2618,-4.2285,-4.2045,-4.1851,-4.172,-4.1588,-4.1588,-4.1588,-4.1323,-4.0783,-4.0185,-3.9636,-3.909,-3.8501,-3.8202,-3.8202,-3.8202,-3.8202,-3.8202,-3.8202,-3.8202,-3.8202,-3.8202,-3.8202,-3.8202,-3.8202,-3.8202,-3.8202,-3.8202,-3.8202,-3.8202,-3.8202,-3.8202,-3.8202,-3.7976,-3.7763,-3.7625,-3.6308,-3.5142,-3.4376,-3.3322,-3.25,-3.1749,-3.1661,-3.1745,-3.1807,-3.2208,-3.2611,-3.2971,-3.3609,-3.4162,-3.4463,-3.4703,-3.4823,-3.4823,-3.4823,-3.4823,-3.4823,-3.4823,-3.4823,-3.4823,-3.4823,-3.5052,-3.5545,-3.6074,-3.6603,-3.712,-3.7649,-3.7938,-3.7974,-3.7548,-3.7346,-3.7227,-3.6808,-3.658,-3.6592,-3.6266,-3.6145,-3.6266,-3.6266,-3.6266,-3.6266,-3.6592,-3.6808,-3.6808,-3.6808,-3.682,-3.6793,-3.6766,-3.7184,-3.7598,-3.7885,-3.7895,-5.1088,-5.0998,-5.0927,-5.0891,-5.0891,-5.0891,-5.0891,-5.0819,-5.0307,-4.9873,-4.9521,-4.8934,-4.8228,-4.7478,-4.727,-4.6792,-4.6162,-4.6096,-4.5573,-4.468,-4.4614,-4.4112,-4.3067,-4.2766,-4.2478,-4.2238,-4.2029,-4.1835,-4.172,-4.1654,-4.139,-4.0987,-4.0409,-3.992,-3.9523,-3.887,-3.8441,-3.8427,-3.8277,-3.8202,-3.8202,-3.8202,-3.8202,-3.8202,-3.8202,-3.8202,-3.8202,-3.8202,-3.8202,-3.8202,-3.8202,-3.8202,-3.8202,-3.8202,-3.8202,-3.8202,-3.7915,-3.7763,-3.7763,-3.678,-3.5883,-3.4966,-3.4056,-3.3066,-3.2326,-3.1913,-3.1764,-3.1967,-3.246,-3.2947,-3.3428,-3.3945,-3.4414,-3.4775,-3.4823,-3.4823,-3.4823,-3.4823,-3.4823,-3.4823,-3.4823,-3.4823,-3.4823,-3.4835,-3.5028,-3.5545,-3.6074,-3.6603,-3.712,-3.7625,-3.7974,-3.7974,-3.7974,-3.7974,-3.7974,-3.7441,-3.7239,-3.7239,-3.6904,-3.6592,-3.67,-3.6808,-3.6796,-3.712,-3.7239,-3.7346,-3.7346,-3.7346,-3.7239,-3.7298,-3.7208,-3.7217,-3.7804,-3.7815,-3.8187,-5.1505,-5.1246,-5.0981,-5.0891,-5.0891,-5.0891,-5.0891,-5.0891,-5.0363,-5.0119,-4.993,-4.9118,-4.8685,-4.8555,-4.8111,-4.7537,-4.6924,-4.6858,-4.6444,-4.5719,-4.5686,-4.5164,-4.4178,-4.4082,-4.3581,-4.2634,-4.2539,-4.2349,-4.2045,-4.1785,-4.1588,-4.1522,-4.0987,-4.0715,-4.0439,-3.9508,-3.9031,-3.887,-3.8427,-3.8202,-3.8202,-3.8202,-3.8202,-3.8202,-3.8202,-3.8202,-3.8202,-3.8202,-3.8202,-3.8202,-3.8202,-3.8202,-3.8202,-3.8202,-3.8202,-3.8202,-3.8202,-3.8127,-3.8052,-3.7337,-3.6702,-3.6281,-3.4719,-3.3577,-3.3066,-3.2239,-3.1913,-3.2454,-3.2923,-3.3392,-3.3815,-3.4306,-3.4727,-3.4799,-3.4823,-3.4823,-3.4823,-3.4823,-3.4823,-3.4823,-3.4823,-3.4823,-3.4823,-3.4823,-3.5052,-3.5509,-3.6038,-3.6555,-3.7036,-3.7589,-3.7878,-3.7962,-3.7974,-3.7974,-3.7974,-3.7655,-3.756,-3.756,-3.7441,-3.7227,-3.7667,-3.7986,-3.788,-3.7773,-3.7761,-3.7868,-3.788,-3.788,-3.7655,-3.7572,-3.7346,-3.7378,-3.7101,-3.8188,-3.8398,-5.1281,-5.1034,-5.0945,-5.0891,-5.0891,-5.0891,-5.0891,-5.0891,-5.071,-5.0436,-5.0102,-4.9774,-4.9282,-4.8719,-4.853,-4.8158,-4.7603,-4.762,-4.7206,-4.656,-4.6493,-4.5785,-4.457,-4.4319,-4.3755,-4.301,-4.2694,-4.2506,-4.2412,-4.2269,-4.2206,-4.2077,-4.1475,-4.094,-4.0462,-3.9565,-3.8943,-3.856,-3.8277,-3.8202,-3.8202,-3.8202,-3.8202,-3.8202,-3.8202,-3.8202,-3.8202,-3.8202,-3.8202,-3.8202,-3.8202,-3.8202,-3.8202,-3.8202,-3.8202,-3.8202,-3.8202,-3.8202,-3.8202,-3.7962,-3.7414,-3.661,-3.5305,-3.4152,-3.331,-3.2339,-3.1985,-3.2524,-3.2999,-3.3609,-3.4234,-3.4715,-3.4823,-3.4823,-3.4823,-3.4823,-3.4823,-3.4823,-3.4823,-3.4823,-3.4823,-3.4823,-3.4823,-3.4823,-3.4895,-3.5112,-3.5557,-3.6098,-3.6615,-3.7132,-3.7577,-3.789,-3.7974,-3.7974,-3.7974,-3.7868,-3.7773,-3.788,-3.7761,-3.7761,-3.7974,-3.7974,-3.7868,-3.7868,-3.7974,-3.7974,-3.7986,-3.7322,-3.7215,-3.6977,-3.6762,-3.6277,-3.59,-3.6599,-3.6718,-5.135,-5.1141,-5.0998,-5.0891,-5.0891,-5.0891,-5.0891,-5.0891,-5.0891,-5.0692,-5.038,-5.0176,-4.9756,-4.9178,-4.881,-4.853,-4.8227,-4.8033,-4.7736,-4.7272,-4.7255,-4.646,-4.5251,-4.4789,-4.4216,-4.3366,-4.2912,-4.2772,-4.2789,-4.2648,-4.2585,-4.2522,-4.1868,-4.1327,-4.0857,-3.992,-3.9147,-3.8767,-3.8412,-3.8202,-3.8202,-3.8202,-3.8202,-3.8202,-3.8202,-3.8202,-3.8202,-3.8202,-3.8202,-3.8202,-3.8202,-3.8202,-3.8202,-3.8202,-3.8202,-3.8202,-3.8202,-3.8202,-3.8202,-3.8202,-3.7886,-3.7169,-3.5869,-3.4719,-3.3985,-3.276,-3.2422,-3.2967,-3.3317,-3.3893,-3.4631,-3.4932,-3.492,-3.4823,-3.4823,-3.4823,-3.4823,-3.4823,-3.4823,-3.4823,-3.4823,-3.4823,-3.4823,-3.4823,-3.4823,-3.4823,-3.528,-3.5761,-3.611,-3.6603,-3.7132,-3.7601,-3.7685,-3.7793,-3.7902,-3.7868,-3.7868,-3.7974,-3.7974,-3.7974,-3.7974,-3.7974,-3.7974,-3.7974,-3.7974,-3.7974,-3.7643,-3.6869,-3.6426,-3.61,-3.5651,-3.5135,-3.4847,-3.458,-3.4933,-5.169,-5.1589,-5.1141,-5.0945,-5.0945,-5.0891,-5.0891,-5.0891,-5.0891,-5.0891,-5.0764,-5.0363,-5.0119,-4.9855,-4.9016,-4.8635,-4.8476,-4.7963,-4.7835,-4.7885,-4.7852,-4.7073,-4.5748,-4.5582,-4.4809,-4.3602,-4.3235,-4.3096,-4.3096,-4.2834,-4.271,-4.2585,-4.2349,-4.2093,-4.2029,-4.0653,-3.9905,-3.955,-3.8767,-3.8277,-3.8202,-3.8202,-3.8202,-3.8202,-3.8202,-3.8202,-3.8202,-3.8202,-3.8202,-3.8202,-3.8202,-3.8202,-3.8202,-3.8202,-3.8202,-3.8202,-3.8202,-3.8202,-3.8202,-3.8202,-3.8202,-3.7796,-3.6346,-3.5224,-3.4815,-3.3445,-3.2742,-3.3661,-3.3943,-3.4267,-3.498,-3.5126,-3.503,-3.4823,-3.4823,-3.4823,-3.4823,-3.4823,-3.4823,-3.4823,-3.4823,-3.4823,-3.4823,-3.4823,-3.4823,-3.4907,-3.522,-3.5569,-3.5725,-3.6134,-3.6591,-3.7036,-3.7312,-3.7505,-3.7745,-3.7974,-3.7974,-3.7974,-3.7974,-3.7974,-3.7974,-3.7974,-3.7974,-3.7974,-3.7974,-3.7974,-3.7203,-3.6545,-3.5772,-3.5322,-3.4659,-3.3888,-3.3551,-3.3335,-3.3663,-5.1889,-5.164,-5.135,-5.1193,-5.1141,-5.0998,-5.0891,-5.0891,-5.0891,-5.0891,-5.0891,-5.0692,-5.0436,-4.9907,-4.8932,-4.8216,-4.7894,-4.7012,-4.7007,-4.7752,-4.7471,-4.6725,-4.5847,-4.5268,-4.4539,-4.3701,-4.3492,-4.3432,-4.3432,-4.3295,-4.3312,-4.3235,-4.2912,-4.2601,-4.219,-4.1327,-4.0585,-3.9733,-3.9133,-3.8649,-3.8277,-3.8202,-3.8202,-3.8202,-3.8202,-3.8202,-3.8202,-3.8202,-3.8202,-3.8202,-3.8202,-3.8202,-3.8202,-3.8202,-3.8202,-3.8202,-3.8202,-3.8202,-3.8202,-3.8202,-3.8202,-3.7872,-3.6425,-3.5467,-3.5156,-3.353,-3.2956,-3.3801,-3.4023,-3.436,-3.4956,-3.5223,-3.5114,-3.4835,-3.4823,-3.4823,-3.4823,-3.4823,-3.4823,-3.4823,-3.4823,-3.4823,-3.4823,-3.4823,-3.4823,-3.4823,-3.5004,-3.5184,-3.5545,-3.5713,-3.6074,-3.6543,-3.6855,-3.7144,-3.7348,-3.7577,-3.7721,-3.7829,-3.7914,-3.7962,-3.7974,-3.7974,-3.7974,-3.7974,-3.7974,-3.7749,-3.6989,-3.6111,-3.5223,-3.4,-3.3006,-3.2457,-3.2123,-3.2227,-3.2561,-5.1987,-5.1808,-5.1454,-5.1298,-5.1245,-5.0735,-5.0434,-5.0382,-5.0136,-5.003,-5.0013,-5.0013,-4.9746,-4.9184,-4.8301,-4.7648,-4.712,-4.6212,-4.6295,-4.7023,-4.6758,-4.6079,-4.5367,-4.4638,-4.4092,-4.3711,-4.3645,-4.3645,-4.3645,-4.3645,-4.3585,-4.3568,-4.3235,-4.2974,-4.2522,-4.1722,-4.0774,-3.9929,-3.9349,-3.8797,-3.8352,-3.8202,-3.8202,-3.8202,-3.8202,-3.8202,-3.8202,-3.8202,-3.8202,-3.8202,-3.8202,-3.8202,-3.8202,-3.8202,-3.8202,-3.8202,-3.8202,-3.8202,-3.8202,-3.8202,-3.8037,-3.7567,-3.6281,-3.5318,-3.4841,-3.3471,-3.317,-3.3776,-3.4161,-3.4447,-3.4927,-3.5222,-3.5211,-3.4823,-3.4823,-3.4823,-3.4823,-3.4823,-3.4823,-3.4823,-3.4823,-3.4823,-3.4823,-3.4823,-3.4823,-3.4823,-3.4823,-3.4883,-3.5232,-3.5292,-3.5641,-3.5966,-3.6242,-3.6543,-3.6867,-3.7144,-3.7421,-3.7637,-3.7817,-3.7914,-3.7974,-3.7974,-3.7974,-3.7974,-3.7974,-3.7974,-3.7322,-3.5663,-3.4447,-3.3016,-3.1903,-3.1566,-3.145,-3.1344,-3.145,-5.2132,-5.2036,-5.1536,-5.1278,-5.1051,-5.0101,-4.9679,-4.9521,-4.896,-4.8714,-4.8696,-4.8784,-4.8452,-4.8008,-4.7459,-4.6901,-4.6439,-4.5763,-4.5483,-4.5632,-4.5549,-4.5202,-4.4589,-4.4026,-4.3727,-4.3645,-4.3645,-4.3645,-4.3645,-4.3645,-4.3645,-4.3568,-4.3312,-4.3113,-4.2912,-4.1997,-4.1245,-4.0622,-3.9763,-3.9002,-3.8412,-3.8277,-3.8202,-3.8202,-3.8202,-3.8202,-3.8202,-3.8202,-3.8202,-3.8202,-3.8202,-3.8202,-3.8202,-3.8202,-3.8202,-3.8202,-3.8202,-3.8202,-3.8202,-3.8202,-3.7962,-3.7246,-3.6294,-3.5345,-3.462,-3.3751,-3.3245,-3.3846,-3.4259,-3.4616,-3.4866,-3.5227,-3.5306,-3.492,-3.4823,-3.4823,-3.4823,-3.4823,-3.4823,-3.4823,-3.4823,-3.4823,-3.4823,-3.4823,-3.4823,-3.4823,-3.4823,-3.4859,-3.4883,-3.5016,-3.5124,-3.54,-3.5737,-3.6026,-3.6362,-3.6699,-3.6964,-3.712,-3.7385,-3.7613,-3.7748,-3.7713,-3.7203,-3.7311,-3.7595,-3.7619,-3.6881,-3.4891,-3.3786,-3.2903,-3.2008,-3.1228,-3.0898,-3.0898,-3.0898,-5.2387,-5.2286,-5.1407,-5.0896,-5.0592,-4.9564,-4.9009,-4.8854,-4.8626,-4.8415,-4.8503,-4.8521,-4.8329,-4.8172,-4.6918,-4.6305,-4.5919,-4.4816,-4.4191,-4.4191,-4.4191,-4.4108,-4.3926,-4.3744,-4.3645,-4.3645,-4.3645,-4.3645,-4.3645,-4.3645,-4.3645,-4.3645,-4.3509,-4.3449,-4.3372,-4.2851,-4.238,-4.1706,-4.0758,-3.9945,-3.9233,-3.8708,-3.8352,-3.8202,-3.8202,-3.8202,-3.8202,-3.8202,-3.8202,-3.8202,-3.8202,-3.8202,-3.8202,-3.8202,-3.8202,-3.8202,-3.8202,-3.8202,-3.8202,-3.8202,-3.8052,-3.7796,-3.6503,-3.5548,-3.5318,-3.3966,-3.3518,-3.3784,-3.4073,-3.4332,-3.4959,-3.5238,-3.519,-3.5054,-3.492,-3.4823,-3.4823,-3.4823,-3.4823,-3.4823,-3.4823,-3.4823,-3.4823,-3.4823,-3.4823,-3.4823,-3.4823,-3.4823,-3.4823,-3.4823,-3.4968,-3.5088,-3.534,-3.5593,-3.5881,-3.6218,-3.6459,-3.6567,-3.6831,-3.7132,-3.7178,-3.7192,-3.6271,-3.5553,-3.5962,-3.6156,-3.4936,-3.3233,-3.2789,-3.2675,-3.1787,-3.0889,-3.0898,-3.0898,-3.0898,-5.1991,-5.1919,-5.0811,-5.03,-5.0032,-4.9012,-4.8498,-4.8296,-4.7879,-4.7688,-4.7688,-4.7555,-4.7454,-4.7178,-4.627,-4.5648,-4.5207,-4.4339,-4.3839,-4.3661,-4.3694,-4.3678,-4.3645,-4.3645,-4.3645,-4.3645,-4.3645,-4.3645,-4.3645,-4.3645,-4.3645,-4.3645,-4.3645,-4.3645,-4.3568,-4.3251,-4.2851,-4.2253,-4.1509,-4.0826,-4.0178,-3.9463,-3.9118,-3.8841,-3.856,-3.8292,-3.8202,-3.8202,-3.8202,-3.8202,-3.8202,-3.8202,-3.8202,-3.8202,-3.8202,-3.8202,-3.8202,-3.8202,-3.8202,-3.8202,-3.8037,-3.7644,-3.6596,-3.5883,-3.5156,-3.4134,-3.3773,-3.3557,-3.3734,-3.4122,-3.4388,-3.4792,-3.5125,-3.5306,-3.5114,-3.492,-3.4835,-3.4823,-3.4823,-3.4823,-3.4823,-3.4823,-3.4823,-3.4823,-3.4823,-3.4823,-3.4823,-3.4823,-3.4823,-3.4823,-3.4835,-3.4956,-3.5004,-3.522,-3.5328,-3.5581,-3.5681,-3.5812,-3.6063,-3.6386,-3.6258,-3.6297,-3.5761,-3.4907,-3.4854,-3.4384,-3.3348,-3.2685,-3.2685,-3.2352,-3.1334,-3.0869,-3.085,-3.0791,-3.081,-5.1249,-5.1086,-5.0064,-4.9567,-4.9413,-4.8447,-4.7968,-4.7796,-4.7157,-4.6731,-4.6684,-4.642,-4.635,-4.5701,-4.5771,-4.5247,-4.457,-4.44,-4.3981,-4.3747,-4.3645,-4.3645,-4.3645,-4.3645,-4.3645,-4.3645,-4.3645,-4.3645,-4.3645,-4.3645,-4.3645,-4.3645,-4.3645,-4.3645,-4.3568,-4.3295,-4.2896,-4.2569,-4.211,-4.1494,-4.0795,-4.0154,-3.9692,-3.9349,-3.8855,-3.8427,-3.8277,-3.8277,-3.8202,-3.8202,-3.8202,-3.8202,-3.8202,-3.8202,-3.8202,-3.8202,-3.8202,-3.8202,-3.8202,-3.8202,-3.7962,-3.7323,-3.7092,-3.6229,-3.5019,-3.4468,-3.3933,-3.3255,-3.3533,-3.3721,-3.3868,-3.4354,-3.5014,-3.5375,-3.5318,-3.5223,-3.4932,-3.4823,-3.4823,-3.4823,-3.4823,-3.4823,-3.4823,-3.4823,-3.4823,-3.4823,-3.4823,-3.4823,-3.4823,-3.4823,-3.4823,-3.4847,-3.4859,-3.4847,-3.4883,-3.4919,-3.5011,-3.5051,-3.5236,-3.5384,-3.5046,-3.497,-3.5014,-3.4634,-3.3148,-3.278,-3.286,-3.2456,-3.222,-3.1714,-3.0734,-3.0692,-3.0752,-3.0654,-3.0625,-5.0904,-5.0289,-4.943,-4.8955,-4.8632,-4.7868,-4.7411,-4.7229,-4.7023,-4.6778,-4.6637,-4.6542,-4.6368,-4.604,-4.5804,-4.5477,-4.5209,-4.4677,-4.408,-4.3628,-4.3645,-4.3645,-4.3645,-4.3645,-4.3645,-4.3645,-4.3645,-4.3645,-4.3645,-4.3645,-4.3645,-4.3645,-4.3645,-4.3645,-4.3568,-4.3509,-4.3432,-4.3235,-4.271,-4.2029,-4.128,-4.0569,-3.9849,-3.922,-3.8855,-3.8649,-3.8516,-3.8441,-3.8366,-3.8277,-3.8202,-3.8202,-3.8202,-3.8202,-3.8202,-3.8202,-3.8202,-3.8202,-3.8202,-3.8202,-3.8127,-3.7886,-3.7246,-3.6452,-3.548,-3.4786,-3.4063,-3.3338,-3.3194,-3.347,-3.3834,-3.4694,-3.5164,-3.5276,-3.5528,-3.5667,-3.5404,-3.5017,-3.4823,-3.4823,-3.4823,-3.4823,-3.4823,-3.4823,-3.4823,-3.4823,-3.4823,-3.4823,-3.4823,-3.4823,-3.4823,-3.4823,-3.4823,-3.4823,-3.4823,-3.4714,-3.454,-3.4398,-3.4399,-3.3922,-3.3595,-3.3375,-3.3293,-3.2233,-3.0762,-3.0954,-3.1916,-3.1086,-3.0565,-3.0393,-3.028,-3.0241,-3.0283,-3.0312,-3.0381,-5.0021,-4.9456,-4.8677,-4.8265,-4.8089,-4.7648,-4.7443,-4.7312,-4.7205,-4.7025,-4.6778,-4.6702,-4.6658,-4.6765,-4.6514,-4.6395,-4.6069,-4.5048,-4.4364,-4.4059,-4.3843,-4.3645,-4.3645,-4.3645,-4.3645,-4.3645,-4.3645,-4.3645,-4.3645,-4.3645,-4.3645,-4.3645,-4.3645,-4.3645,-4.3645,-4.3645,-4.3568,-4.3568,-4.3312,-4.2834,-4.2301,-4.1311,-4.013,-3.922,-3.8943,-3.887,-3.8664,-3.8516,-3.8441,-3.8366,-3.8277,-3.8202,-3.8202,-3.8202,-3.8202,-3.8202,-3.8202,-3.8202,-3.8202,-3.8202,-3.8202,-3.8202,-3.7734,-3.683,-3.5949,-3.5156,-3.4371,-3.3484,-3.3131,-3.3307,-3.3847,-3.4286,-3.4735,-3.5057,-3.5388,-3.5511,-3.5371,-3.5161,-3.503,-3.492,-3.4932,-3.4823,-3.4823,-3.4823,-3.4823,-3.4823,-3.4823,-3.4823,-3.4823,-3.4823,-3.4823,-3.4823,-3.4823,-3.4823,-3.4823,-3.4617,-3.4225,-3.4,-3.3661,-3.26,-3.1609,-3.1535,-3.1498,-3.0714,-3.0138,-3.0429,-3.1011,-3.0048,-2.9512,-2.9751,-2.9829,-2.9868,-2.9795,-2.9883,-2.9941,-4.9122,-4.8702,-4.7989,-4.7699,-4.7699,-4.7717,-4.7657,-4.7657,-4.7594,-4.7519,-4.7275,-4.7044,-4.7444,-4.7568,-4.7555,-4.7473,-4.6936,-4.5934,-4.5226,-4.4747,-4.4185,-4.3827,-4.3694,-4.3645,-4.3645,-4.3645,-4.3645,-4.3645,-4.3645,-4.3645,-4.3645,-4.3645,-4.3645,-4.3645,-4.3645,-4.3645,-4.3645,-4.3568,-4.3568,-4.3372,-4.3113,-4.211,-4.0925,-3.9722,-3.9177,-3.9104,-3.887,-3.8738,-3.859,-3.8516,-3.8352,-3.8277,-3.8202,-3.8202,-3.8202,-3.8202,-3.8202,-3.8202,-3.8202,-3.8202,-3.8202,-3.8202,-3.8202,-3.74,-3.6267,-3.5548,-3.4746,-3.3882,-3.329,-3.3244,-3.3709,-3.3985,-3.4198,-3.4485,-3.4919,-3.5114,-3.5146,-3.5116,-3.4966,-3.5114,-3.503,-3.492,-3.4823,-3.4823,-3.4823,-3.4823,-3.4811,-3.4823,-3.4823,-3.4823,-3.4823,-3.4823,-3.4823,-3.4823,-3.4823,-3.4628,-3.4323,-3.33,-3.2889,-3.1666,-3.0235,-3.0003,-3.0134,-3.062,-3.0467,-3.0427,-3.0086,-2.9501,-2.926,-2.9476,-2.9346,-2.9228,-2.9297,-2.9443,-2.9531,-4.8897,-4.8196,-4.7861,-4.7699,-4.7699,-4.7717,-4.7753,-4.7844,-4.8381,-4.8478,-4.8308,-4.865,-4.8697,-4.87,-4.8397,-4.812,-4.7751,-4.6982,-4.6186,-4.5471,-4.479,-4.4268,-4.3853,-4.3645,-4.3645,-4.3645,-4.3645,-4.3645,-4.3645,-4.3645,-4.3645,-4.3645,-4.3645,-4.3645,-4.3645,-4.3645,-4.3645,-4.3645,-4.3568,-4.3372,-4.2974,-4.238,-4.1591,-4.02,-3.961,-3.9265,-3.9104,-3.9031,-3.8958,-3.8723,-3.8575,-3.8516,-3.8441,-3.8277,-3.8202,-3.8202,-3.8202,-3.8202,-3.8202,-3.8202,-3.8202,-3.8202,-3.8202,-3.781,-3.6766,-3.5949,-3.5074,-3.4217,-3.3411,-3.3144,-3.3206,-3.3571,-3.3859,-3.4161,-3.4487,-3.476,-3.4707,-3.4711,-3.4711,-3.4942,-3.5041,-3.5126,-3.503,-3.492,-3.492,-3.4908,-3.4799,-3.4811,-3.4823,-3.4823,-3.4823,-3.4823,-3.4823,-3.4823,-3.4823,-3.4628,-3.4225,-3.2689,-3.1869,-3.0959,-2.9733,-2.891,-2.8903,-2.9439,-2.9546,-2.918,-2.8917,-2.8849,-2.878,-2.8799,-2.873,-2.8672,-2.8848,-2.9043,-2.9199,-4.8733,-4.8132,-4.7974,-4.7847,-4.779,-4.817,-4.8333,-4.846,-4.9166,-4.9378,-4.9243,-4.9392,-4.9615,-4.9639,-4.9478,-4.9223,-4.8927,-4.8112,-4.7425,-4.6767,-4.5681,-4.4942,-4.4356,-4.3929,-4.3661,-4.3645,-4.3645,-4.3645,-4.3645,-4.3645,-4.3645,-4.3645,-4.3645,-4.3645,-4.3645,-4.3645,-4.3645,-4.3645,-4.3568,-4.3449,-4.3052,-4.2522,-4.1475,-4.0615,-3.9824,-3.9424,-3.9265,-3.9104,-3.9017,-3.8943,-3.8811,-3.859,-3.8516,-3.8441,-3.8292,-3.8202,-3.8202,-3.8202,-3.8202,-3.8202,-3.8202,-3.8202,-3.8202,-3.781,-3.7014,-3.6042,-3.5074,-3.3966,-3.3496,-3.3081,-3.3106,-3.3357,-3.3445,-3.3571,-3.396,-3.4248,-3.4259,-3.437,-3.452,-3.4748,-3.4826,-3.4976,-3.5332,-3.5223,-3.5126,-3.5005,-3.486,-3.4848,-3.4751,-3.4872,-3.4945,-3.4823,-3.4823,-3.4823,-3.4823,-3.4726,-3.4225,-3.2588,-3.1359,-3.0442,-2.9428,-2.8708,-2.8398,-2.8554,-2.8408,-2.8398,-2.8737,-2.907,-2.866,-2.8301,-2.8398,-2.8486,-2.8535,-2.8643,-2.8818,-4.8805,-4.8546,-4.8391,-4.8302,-4.8387,-4.8858,-4.9148,-4.9293,-4.9999,-5.0236,-5.0073,-5.0178,-5.0498,-5.0633,-5.0581,-5.0418,-5.0237,-4.9222,-4.8609,-4.7817,-4.6667,-4.5774,-4.4984,-4.4397,-4.381,-4.3645,-4.3645,-4.3645,-4.3645,-4.3645,-4.3645,-4.3645,-4.3645,-4.3645,-4.3645,-4.3645,-4.3645,-4.3645,-4.3645,-4.3645,-4.3312,-4.238,-4.1393,-4.0752,-4.0021,-3.9625,-3.9409,-3.925,-3.9177,-3.9104,-3.8958,-3.8811,-3.8664,-3.8516,-3.8441,-3.8277,-3.8202,-3.8202,-3.8202,-3.8202,-3.8202,-3.8202,-3.8202,-3.7734,-3.6858,-3.5896,-3.469,-3.3484,-3.3081,-3.3081,-3.3081,-3.3093,-3.3106,-3.3181,-3.3483,-3.3759,-3.3834,-3.3909,-3.4159,-3.4313,-3.4453,-3.4681,-3.4826,-3.4854,-3.4637,-3.4768,-3.4625,-3.4785,-3.481,-3.5088,-3.5149,-3.4981,-3.4835,-3.4823,-3.4823,-3.4823,-3.4115,-3.2801,-3.1768,-3.0856,-2.9628,-2.8601,-2.8378,-2.8252,-2.8291,-2.8398,-2.891,-2.9006,-2.8601,-2.8301,-2.8301,-2.833,-2.8408,-2.8418,-2.8506,-4.9384,-4.9912,-4.9393,-4.9574,-5.0099,-5.0003,-4.9945,-5.0053,-5.0796,-5.114,-5.1085,-5.1513,-5.1742,-5.1736,-5.1576,-5.1363,-5.0999,-5.043,-4.9587,-4.8707,-4.7699,-4.643,-4.5097,-4.4716,-4.4075,-4.3744,-4.3645,-4.3645,-4.3645,-4.3645,-4.3645,-4.3645,-4.3645,-4.3645,-4.3645,-4.3645,-4.3645,-4.3645,-4.3645,-4.3645,-4.3509,-4.2834,-4.2045,-4.1409,-4.0684,-4.0005,-3.9625,-3.9394,-3.9352,-3.9337,-3.9177,-3.9031,-3.8958,-3.8664,-3.8516,-3.8441,-3.8292,-3.8202,-3.8202,-3.8202,-3.8202,-3.8202,-3.8202,-3.7734,-3.6766,-3.5575,-3.4371,-3.3326,-3.3081,-3.3081,-3.3081,-3.3081,-3.3081,-3.3093,-3.3206,-3.3269,-3.3294,-3.3508,-3.3671,-3.3809,-3.3968,-3.4024,-3.4126,-3.4121,-3.4182,-3.4348,-3.4459,-3.4613,-3.4715,-3.4862,-3.4973,-3.4749,-3.4582,-3.4486,-3.4366,-3.4438,-3.3785,-3.2673,-3.1761,-3.0949,-2.9642,-2.8476,-2.829,-2.8184,-2.8213,-2.8262,-2.8495,-2.8601,-2.8291,-2.8301,-2.8301,-2.8301,-2.831,-2.8301,-2.8301,-5.0748,-5.0892,-5.0451,-5.0362,-5.0602,-5.0719,-5.0778,-5.0923,-5.1611,-5.1973,-5.2009,-5.2206,-5.2246,-5.2084,-5.1938,-5.179,-5.1538,-5.128,-5.0911,-4.9883,-4.8855,-4.7561,-4.6353,-4.5243,-4.4307,-4.3843,-4.3645,-4.3645,-4.3645,-4.3645,-4.3645,-4.3645,-4.3645,-4.3645,-4.3645,-4.3645,-4.3645,-4.3645,-4.3645,-4.3645,-4.3449,-4.2974,-4.2443,-4.2045,-4.1075,-4.0409,-4.0021,-3.9553,-3.9424,-3.9409,-3.925,-3.9192,-3.9104,-3.8958,-3.8738,-3.8501,-3.8441,-3.8366,-3.8202,-3.8202,-3.8202,-3.8202,-3.8127,-3.7553,-3.6439,-3.548,-3.4454,-3.3253,-3.3081,-3.3081,-3.3081,-3.3081,-3.3081,-3.3081,-3.3081,-3.3081,-3.3081,-3.3081,-3.3257,-3.3357,-3.3483,-3.3583,-3.3717,-3.399,-3.4061,-3.4057,-3.4235,-3.4304,-3.4361,-3.4367,-3.4372,-3.4446,-3.4177,-3.3978,-3.3953,-3.3871,-3.3292,-3.2271,-3.1151,-3.0259,-2.9174,-2.844,-2.8058,-2.7891,-2.7881,-2.7998,-2.8184,-2.8301,-2.8301,-2.8301,-2.8301,-2.8301,-2.8301,-2.8301,-2.8301,-5.2244,-5.2153,-5.1565,-5.1314,-5.133,-5.1544,-5.1593,-5.1683,-5.219,-5.248,-5.2498,-5.2498,-5.2387,-5.2246,-5.2198,-5.2054,-5.179,-5.179,-5.1622,-5.0962,-5.0047,-4.8747,-4.7484,-4.6069,-4.4907,-4.3936,-4.3754,-4.3645,-4.3628,-4.3645,-4.3645,-4.3645,-4.3645,-4.3645,-4.3645,-4.3645,-4.3645,-4.3645,-4.3645,-4.3645,-4.3509,-4.3157,-4.2648,-4.2126,-4.1327,-4.06,-4.02,-3.9753,-3.9424,-3.9424,-3.9409,-3.9352,-3.9192,-3.9104,-3.8958,-3.8723,-3.8575,-3.8441,-3.8292,-3.8277,-3.8202,-3.8127,-3.781,-3.7155,-3.5949,-3.5467,-3.4828,-3.324,-3.3081,-3.3081,-3.3081,-3.3081,-3.3081,-3.3081,-3.3081,-3.3081,-3.3081,-3.3081,-3.3081,-3.3181,-3.3244,-3.3194,-3.3433,-3.3834,-3.4047,-3.3956,-3.3953,-3.3937,-3.4037,-3.4033,-3.4114,-3.4237,-3.4078,-3.3801,-3.3683,-3.3332,-3.2688,-3.1829,-3.0745,-2.9927,-2.9158,-2.8147,-2.7398,-2.7412,-2.75,-2.7568,-2.7656,-2.7988,-2.8301,-2.8301,-2.8301,-2.8301,-2.8301,-2.8301,-2.8301,-5.3564,-5.4078,-5.2716,-5.252,-5.3086,-5.2607,-5.2371,-5.2345,-5.2444,-5.2498,-5.2498,-5.2498,-5.2498,-5.2452,-5.2405,-5.2293,-5.2102,-5.2084,-5.1736,-5.126,-5.0664,-4.9597,-4.8368,-4.7135,-4.6085,-4.4883,-4.4214,-4.3763,-4.3628,-4.3628,-4.3628,-4.3645,-4.3645,-4.3645,-4.3645,-4.3645,-4.3645,-4.3645,-4.3645,-4.3645,-4.3645,-4.3372,-4.2958,-4.1981,-4.1459,-4.0857,-3.961,-3.9481,-3.9424,-3.9424,-3.9424,-3.9424,-3.9337,-3.9177,-3.9104,-3.8958,-3.8738,-3.859,-3.8441,-3.8277,-3.8202,-3.7962,-3.7567,-3.6922,-3.5949,-3.4937,-3.4063,-3.3398,-3.324,-3.3081,-3.3081,-3.3081,-3.3081,-3.3081,-3.3081,-3.3081,-3.3081,-3.3081,-3.3081,-3.3081,-3.3081,-3.3081,-3.3081,-3.3508,-3.3621,-3.3608,-3.3508,-3.357,-3.3845,-3.3893,-3.404,-3.4099,-3.3954,-3.3796,-3.3557,-3.2963,-3.2239,-3.1331,-3.0292,-2.9935,-2.9483,-2.8373,-2.6777,-2.6982,-2.707,-2.71,-2.7207,-2.7588,-2.793,-2.8193,-2.8271,-2.8193,-2.8242,-2.8301,-2.8301,-5.4108,-5.4318,-5.3553,-5.3403,-5.3662,-5.3048,-5.2779,-5.2779,-5.2572,-5.2498,-5.2498,-5.2498,-5.2498,-5.2498,-5.2498,-5.2434,-5.234,-5.234,-5.2096,-5.1651,-5.1016,-5.0008,-4.8778,-4.7489,-4.6051,-4.5169,-4.4424,-4.3939,-4.3822,-4.3763,-4.3704,-4.3645,-4.3645,-4.3645,-4.3645,-4.3645,-4.3645,-4.3645,-4.3645,-4.3645,-4.3645,-4.3568,-4.3355,-4.2896,-4.1722,-4.1327,-4.0668,-3.9809,-3.9553,-3.9424,-3.9424,-3.9424,-3.9424,-3.9265,-3.9192,-3.9119,-3.89,-3.8738,-3.8516,-3.8366,-3.8202,-3.8202,-3.7886,-3.7246,-3.6281,-3.5561,-3.4786,-3.4134,-3.3326,-3.3167,-3.3081,-3.3081,-3.3081,-3.3081,-3.3081,-3.3081,-3.3081,-3.3081,-3.3081,-3.3081,-3.3081,-3.3081,-3.3081,-3.3131,-3.3144,-3.3144,-3.3119,-3.3169,-3.3495,-3.3696,-3.372,-3.3731,-3.3655,-3.3134,-3.2864,-3.2292,-3.1731,-3.0836,-2.9842,-2.9328,-2.8818,-2.736,-2.6172,-2.6416,-2.666,-2.6728,-2.6914,-2.7256,-2.75,-2.7656,-2.7851,-2.8008,-2.8105,-2.8203,-2.8223,-5.4409,-5.4375,-5.4163,-5.4,-5.3833,-5.3322,-5.3066,-5.2955,-5.2753,-5.2572,-5.2498,-5.2498,-5.2498,-5.2498,-5.2498,-5.2498,-5.2498,-5.2498,-5.2498,-5.2162,-5.1579,-5.0575,-4.938,-4.8035,-4.6698,-4.5585,-4.4615,-4.4097,-4.3939,-4.3939,-4.3881,-4.3805,-4.3704,-4.3704,-4.3645,-4.3645,-4.3645,-4.3645,-4.3645,-4.3645,-4.3645,-4.3568,-4.3157,-4.2834,-4.1852,-4.1142,-4.0615,-3.9824,-3.9496,-3.9424,-3.9424,-3.9424,-3.9424,-3.9352,-3.9352,-3.9265,-3.9104,-3.8943,-3.8738,-3.8366,-3.8202,-3.8202,-3.8202,-3.7567,-3.6674,-3.5935,-3.5074,-3.3979,-3.3411,-3.3081,-3.3081,-3.3081,-3.3081,-3.3081,-3.3081,-3.3081,-3.3081,-3.3081,-3.3081,-3.3081,-3.3181,-3.3395,-3.3407,-3.342,-3.3244,-3.3194,-3.3093,-3.3093,-3.3194,-3.3319,-3.3294,-3.3258,-3.3146,-3.2598,-3.195,-3.1651,-3.1333,-3.0663,-2.965,-2.8336,-2.745,-2.6294,-2.5752,-2.6035,-2.625,-2.6357,-2.6465,-2.6592,-2.6816,-2.7041,-2.7295,-2.7568,-2.7676,-2.7773,-2.7978,-5.4371,-5.4409,-5.4409,-5.4198,-5.3907,-5.3545,-5.3263,-5.3109,-5.298,-5.2779,-5.259,-5.2544,-5.2498,-5.2498,-5.2498,-5.2498,-5.2498,-5.2498,-5.2498,-5.2387,-5.1898,-5.1311,-5.0204,-4.8714,-4.7119,-4.6079,-4.506,-4.435,-4.4097,-4.4097,-4.4097,-4.4039,-4.3939,-4.3763,-4.3645,-4.3645,-4.3645,-4.3645,-4.3645,-4.3645,-4.3645,-4.3585,-4.3035,-4.2443,-4.1917,-4.1276,-4.0409,-3.9879,-3.9625,-3.9424,-3.9424,-3.9424,-3.9424,-3.9424,-3.9352,-3.9352,-3.9192,-3.9104,-3.9017,-3.8501,-3.8277,-3.8277,-3.8277,-3.7644,-3.6253,-3.5534,-3.5129,-3.4204,-3.3313,-3.3167,-3.3081,-3.3131,-3.3169,-3.3232,-3.3257,-3.3407,-3.3445,-3.347,-3.3545,-3.3596,-3.3746,-3.3897,-3.3884,-3.3809,-3.3533,-3.3345,-3.3156,-3.3081,-3.3081,-3.3081,-3.3081,-3.3081,-3.2995,-3.2537,-3.1989,-3.1524,-3.1026,-3.026,-2.9246,-2.7861,-2.703,-2.638,-2.5946,-2.5801,-2.5889,-2.6045,-2.5928,-2.582,-2.6172,-2.6553,-2.6836,-2.708,-2.7197,-2.7353,-2.7559,-5.3902,-5.439,-5.4409,-5.4321,-5.4198,-5.3851,-5.368,-5.3505,-5.3193,-5.2912,-5.2779,-5.2618,-5.2498,-5.2498,-5.2498,-5.2498,-5.2498,-5.2498,-5.2498,-5.2361,-5.164,-5.0958,-4.9937,-4.8632,-4.7282,-4.6391,-4.5391,-4.4614,-4.4253,-4.4253,-4.4138,-4.4097,-4.4039,-4.3864,-4.3687,-4.3645,-4.3645,-4.3645,-4.3645,-4.3645,-4.3645,-4.3568,-4.3372,-4.2772,-4.238,-4.1591,-4.06,-4.0216,-3.9824,-3.9481,-3.9424,-3.9424,-3.9424,-3.9424,-3.9424,-3.9424,-3.9265,-3.925,-3.9104,-3.8797,-3.8575,-3.8427,-3.8202,-3.7947,-3.7309,-3.6094,-3.5373,-3.4498,-3.3556,-3.324,-3.3081,-3.347,-3.3633,-3.3771,-3.3884,-3.4173,-3.4286,-3.4274,-3.4299,-3.4336,-3.4424,-3.4449,-3.4449,-3.4148,-3.3859,-3.3508,-3.3294,-3.3119,-3.3081,-3.3081,-3.3081,-3.3081,-3.2995,-3.2525,-3.2064,-3.1436,-3.0519,-2.9704,-2.8527,-2.7241,-2.6496,-2.6294,-2.6014,-2.5859,-2.5752,-2.5732,-2.5732,-2.5752,-2.583,-2.6094,-2.6396,-2.6689,-2.6875,-2.7012,-2.7168,-5.3104,-5.3508,-5.3526,-5.3545,-5.3587,-5.3901,-5.3944,-5.3662,-5.3217,-5.2955,-5.2779,-5.2572,-5.2498,-5.2498,-5.2498,-5.2498,-5.2462,-5.2172,-5.2063,-5.1909,-5.0901,-5.0221,-4.9388,-4.8316,-4.7254,-4.6413,-4.5682,-4.4964,-4.444,-4.4423,-4.431,-4.4196,-4.4138,-4.4039,-4.3864,-4.3763,-4.3704,-4.3704,-4.3704,-4.3645,-4.3645,-4.3568,-4.3449,-4.3035,-4.2506,-4.1787,-4.1127,-4.0531,-3.995,-3.9553,-3.9424,-3.9424,-3.9424,-3.9424,-3.9424,-3.9424,-3.9352,-3.9337,-3.9192,-3.9104,-3.8958,-3.8738,-3.8337,-3.7872,-3.7323,-3.5883,-3.5074,-3.4275,-3.3628,-3.3313,-3.3156,-3.3621,-3.3935,-3.406,-3.4374,-3.465,-3.4751,-3.4713,-3.4726,-3.4776,-3.4977,-3.4989,-3.4939,-3.4512,-3.4161,-3.3784,-3.3432,-3.3257,-3.3081,-3.3081,-3.3081,-3.2982,-3.2995,-3.2711,-3.1989,-3.1169,-3.0158,-2.9154,-2.7977,-2.6794,-2.6602,-2.639,-2.611,-2.582,-2.583,-2.5732,-2.5732,-2.5762,-2.581,-2.5859,-2.5996,-2.6269,-2.6533,-2.668,-2.6787,-5.2015,-5.1912,-5.1912,-5.1987,-5.2231,-5.3512,-5.3831,-5.3318,-5.2986,-5.2704,-5.2427,-5.23,-5.2118,-5.2263,-5.2317,-5.2208,-5.2082,-5.1502,-5.1339,-5.1031,-5.0308,-4.9693,-4.9055,-4.8253,-4.7335,-4.6362,-4.5648,-4.5267,-4.4665,-4.457,-4.4423,-4.435,-4.431,-4.4212,-4.4114,-4.3998,-4.3939,-4.3822,-4.3763,-4.3645,-4.3628,-4.3585,-4.3372,-4.2974,-4.2443,-4.1706,-4.0992,-4.027,-3.9809,-3.9481,-3.9424,-3.9424,-3.9424,-3.9424,-3.9424,-3.9424,-3.9424,-3.9352,-3.9352,-3.9352,-3.9265,-3.8943,-3.8008,-3.7049,-3.6346,-3.5803,-3.5006,-3.4275,-3.3543,-3.3313,-3.3156,-3.3608,-3.4035,-3.4324,-3.4663,-3.4839,-3.4951,-3.4964,-3.4977,-3.5127,-3.5416,-3.5504,-3.5441,-3.509,-3.4361,-3.4048,-3.3646,-3.3219,-3.3081,-3.3081,-3.2995,-3.2711,-3.2723,-3.281,-3.1989,-3.0711,-2.9988,-2.898,-2.7987,-2.69,-2.6699,-2.6496,-2.6207,-2.6014,-2.583,-2.5732,-2.5732,-2.5732,-2.5742,-2.5791,-2.584,-2.5889,-2.6162,-2.6279,-2.6387,-5.1641,-5.2015,-5.1925,-5.1912,-5.1987,-5.2419,-5.2507,-5.2281,-5.1823,-5.1489,-5.1408,-5.098,-5.0985,-5.0778,-5.0778,-5.0832,-5.0741,-5.0578,-5.0488,-5.0126,-4.9619,-4.922,-4.8699,-4.8135,-4.7375,-4.6749,-4.6116,-4.5511,-4.5072,-4.4797,-4.457,-4.4514,-4.4497,-4.444,-4.44,-4.4286,-4.4114,-4.3939,-4.3822,-4.3763,-4.3628,-4.3628,-4.3432,-4.3157,-4.2834,-4.211,-4.126,-4.0805,-4.027,-3.9553,-3.9424,-3.9424,-3.9424,-3.9424,-3.9424,-3.9424,-3.9424,-3.9424,-3.9424,-3.9424,-3.9352,-3.9104,-3.8308,-3.8069,-3.7448,-3.6411,-3.5237,-3.4511,-3.3628,-3.3227,-3.3282,-3.3684,-3.406,-3.4387,-3.4851,-3.5353,-3.5466,-3.5542,-3.5554,-3.5655,-3.5943,-3.5843,-3.5805,-3.5177,-3.45,-3.4223,-3.3847,-3.3357,-3.3081,-3.3081,-3.2995,-3.2723,-3.2264,-3.2264,-3.1169,-2.9897,-2.9452,-2.8817,-2.782,-2.7092,-2.6805,-2.6602,-2.639,-2.611,-2.583,-2.5732,-2.5732,-2.5732,-2.5732,-2.5732,-2.5771,-2.5752,-2.5771,-2.5937,-2.6025,-5.0988,-5.1272,-5.1085,-5.0999,-5.0954,-5.0935,-5.0954,-5.0932,-5.108,-5.1044,-5.0772,-5.0459,-5.0185,-5.0162,-5.018,-5.018,-5.0162,-4.98,-4.9619,-4.9438,-4.884,-4.8514,-4.8188,-4.7965,-4.7409,-4.6908,-4.6358,-4.5767,-4.532,-4.4835,-4.457,-4.457,-4.457,-4.457,-4.457,-4.4457,-4.4344,-4.4114,-4.3981,-4.3864,-4.3747,-4.3687,-4.3687,-4.3492,-4.3235,-4.2317,-4.1525,-4.1194,-4.0216,-3.9553,-3.9424,-3.9424,-3.9424,-3.9424,-3.9424,-3.9424,-3.9424,-3.9424,-3.9424,-3.9424,-3.9424,-3.9265,-3.8782,-3.8546,-3.7677,-3.6568,-3.5709,-3.491,-3.3953,-3.3205,-3.3532,-3.3771,-3.4073,-3.4374,-3.514,-3.5906,-3.6081,-3.6194,-3.6245,-3.6295,-3.6257,-3.6144,-3.578,-3.5127,-3.455,-3.4123,-3.3709,-3.3294,-3.3081,-3.3081,-3.2995,-3.281,-3.2164,-3.1625,-3.0351,-2.936,-2.8991,-2.8538,-2.7726,-2.7081,-2.69,-2.6602,-2.6197,-2.6014,-2.5839,-2.5732,-2.5732,-2.5732,-2.5732,-2.5732,-2.5732,-2.5732,-2.5732,-2.5781,-2.582,-5.0272,-5.012,-4.9797,-4.9744,-4.9509,-4.9602,-4.9602,-4.9628,-5.0676,-5.0898,-5.0398,-5.0332,-4.9997,-4.9683,-4.964,-4.9608,-4.9427,-4.9021,-4.8804,-4.8822,-4.8261,-4.7916,-4.788,-4.7657,-4.745,-4.6954,-4.6454,-4.6,-4.5355,-4.4927,-4.4759,-4.4626,-4.457,-4.457,-4.457,-4.457,-4.4457,-4.4327,-4.4229,-4.4114,-4.3939,-4.3881,-4.3747,-4.3355,-4.2506,-4.1591,-4.1127,-4.0409,-3.9481,-3.9424,-3.9424,-3.9424,-3.9424,-3.9424,-3.9424,-3.9424,-3.9424,-3.9424,-3.9424,-3.9424,-3.9424,-3.9352,-3.9352,-3.8797,-3.7767,-3.666,-3.5855,-3.5061,-3.4024,-3.3386,-3.3467,-3.3771,-3.4022,-3.4299,-3.4851,-3.5341,-3.5529,-3.5793,-3.6144,-3.6182,-3.6132,-3.5994,-3.5667,-3.5002,-3.4361,-3.3922,-3.3533,-3.3156,-3.2982,-3.2982,-3.2537,-3.2438,-3.1713,-3.08,-2.9897,-2.8991,-2.8631,-2.8081,-2.7441,-2.7177,-2.69,-2.6506,-2.6004,-2.5917,-2.5732,-2.5732,-2.5732,-2.5732,-2.5732,-2.5732,-2.5732,-2.5732,-2.5732,-2.5732,-2.5732,-5.0408,-5.0087,-4.9702,-4.9521,-4.9509,-4.9509,-4.949,-4.9527,-4.9784,-4.9799,-4.9395,-4.9178,-4.893,-4.878,-4.8735,-4.867,-4.8375,-4.8351,-4.8061,-4.8061,-4.7772,-4.7717,-4.7699,-4.7699,-4.7554,-4.7407,-4.6908,-4.6147,-4.5407,-4.5125,-4.4889,-4.4609,-4.457,-4.457,-4.457,-4.457,-4.457,-4.4497,-4.444,-4.4286,-4.4097,-4.3864,-4.3628,-4.3157,-4.2348,-4.1656,-4.1209,-4.0547,-3.9879,-3.9553,-3.9424,-3.9424,-3.9424,-3.9424,-3.9424,-3.9424,-3.9424,-3.9424,-3.9424,-3.9424,-3.9424,-3.9192,-3.8958,-3.8575,-3.7857,-3.6816,-3.5855,-3.5061,-3.4262,-3.3713,-3.3414,-3.3645,-3.3897,-3.4173,-3.4474,-3.47,-3.4939,-3.5403,-3.5893,-3.5918,-3.5881,-3.5642,-3.5328,-3.4864,-3.4236,-3.3759,-3.337,-3.2995,-3.2624,-3.2438,-3.1436,-3.1069,-3.08,-3.0079,-2.9165,-2.8538,-2.8175,-2.7809,-2.7347,-2.7081,-2.69,-2.6496,-2.6004,-2.582,-2.5732,-2.5732,-2.5732,-2.5732,-2.5732,-2.5732,-2.5732,-2.5732,-2.5732,-2.5732,-2.5732,-5.0715,-5.0469,-5.0032,-4.9741,-4.9593,-4.9563,-4.9551,-4.949,-4.9509,-4.9396,-4.9179,-4.8802,-4.8421,-4.8114,-4.7974,-4.7911,-4.7741,-4.7717,-4.779,-4.7735,-4.7699,-4.7699,-4.7699,-4.7699,-4.7699,-4.7554,-4.6863,-4.6067,-4.5477,-4.5035,-4.4759,-4.4609,-4.4626,-4.457,-4.457,-4.457,-4.457,-4.457,-4.457,-4.4457,-4.427,-4.4039,-4.3805,-4.3323,-4.2694,-4.1997,-4.126,-4.0668,-4.0076,-3.961,-3.9424,-3.9424,-3.9424,-3.9424,-3.9424,-3.9424,-3.9424,-3.9424,-3.9424,-3.9424,-3.9424,-3.9192,-3.9031,-3.8797,-3.7615,-3.6568,-3.6094,-3.5292,-3.4178,-3.3543,-3.3411,-3.3543,-3.3507,-3.3596,-3.4022,-3.4361,-3.465,-3.5027,-3.5265,-3.5278,-3.519,-3.4989,-3.47,-3.4437,-3.3859,-3.3308,-3.302,-3.255,-3.2264,-3.1801,-3.08,-2.9977,-2.9715,-2.9441,-2.8899,-2.8175,-2.7536,-2.7357,-2.7262,-2.6976,-2.6699,-2.64,-2.6004,-2.5917,-2.582,-2.5732,-2.5732,-2.5732,-2.5732,-2.5732,-2.5732,-2.5732,-2.5732,-2.5732,-2.5732,-5.0986,-5.0887,-5.0489,-5.0106,-4.9788,-4.9759,-4.9692,-4.9582,-4.9521,-4.9521,-4.944,-4.8925,-4.8495,-4.8192,-4.7951,-4.7847,-4.7741,-4.7699,-4.7699,-4.7699,-4.7699,-4.7699,-4.7699,-4.7699,-4.7699,-4.7468,-4.6908,-4.631,-4.5699,-4.532,-4.5052,-4.4776,-4.4626,-4.457,-4.457,-4.457,-4.457,-4.457,-4.457,-4.457,-4.4457,-4.427,-4.3981,-4.3611,-4.2974,-4.2173,-4.1459,-4.0668,-4.0005,-3.9681,-3.9424,-3.9424,-3.9424,-3.9424,-3.9424,-3.9424,-3.9424,-3.9424,-3.9424,-3.9424,-3.9424,-3.9352,-3.9265,-3.8546,-3.7281,-3.6489,-3.6015,-3.5305,-3.4191,-3.3725,-3.3496,-3.3338,-3.3278,-3.3242,-3.3621,-3.4022,-3.4324,-3.46,-3.465,-3.4675,-3.4562,-3.4399,-3.4186,-3.3935,-3.3496,-3.3021,-3.2537,-3.2001,-3.1548,-3.0991,-3.026,-2.9349,-2.8806,-2.8538,-2.8362,-2.7998,-2.7367,-2.7262,-2.7167,-2.688,-2.6602,-2.64,-2.6197,-2.6197,-2.6004,-2.582,-2.5732,-2.5732,-2.5732,-2.5732,-2.5732,-2.5732,-2.5732,-2.5732,-2.5732,-5.0947,-5.0713,-5.0411,-5.0172,-5.0038,-5.0012,-4.9948,-4.9816,-4.9692,-4.9682,-4.9544,-4.9193,-4.8872,-4.8818,-4.855,-4.8288,-4.7933,-4.7847,-4.7741,-4.7699,-4.7699,-4.7699,-4.7699,-4.7699,-4.7699,-4.7511,-4.7302,-4.7044,-4.6196,-4.5868,-4.5528,-4.5125,-4.4665,-4.4626,-4.457,-4.457,-4.457,-4.457,-4.457,-4.457,-4.457,-4.4327,-4.3931,-4.3306,-4.2411,-4.1609,-4.0842,-4.0076,-3.9681,-3.9409,-3.9424,-3.9424,-3.9424,-3.9424,-3.9424,-3.9424,-3.9424,-3.9424,-3.9424,-3.9424,-3.9424,-3.9265,-3.887,-3.7753,-3.666,-3.5722,-3.5251,-3.4855,-3.4147,-3.3979,-3.3836,-3.3496,-3.3338,-3.3253,-3.353,-3.3708,-3.3909,-3.4073,-3.4161,-3.4211,-3.4211,-3.406,-3.3922,-3.3646,-3.3332,-3.2982,-3.281,-3.2264,-3.1536,-3.0711,-2.9806,-2.8991,-2.8175,-2.7726,-2.7547,-2.7726,-2.7272,-2.7262,-2.7262,-2.7081,-2.6794,-2.6592,-2.6496,-2.6294,-2.6197,-2.6004,-2.6004,-2.582,-2.5723,-2.5732,-2.5732,-2.5732,-2.5732,-2.5732,-2.5732]},{"header":{"parameterUnit":"m.s-1","parameterCategory":1,"la1":31.0,"la2":29.5877,"lo1":-88.7671,"lo2":-86.6584,"dy":0.0162,"dx":0.0185,"nx":115,"ny":88,"refTime":"2023-04-27T12:00:00:Z","depth":0,"parameterNumber":3,"parameterNumberName":"V-component_of_WINDS"},"data":[0.0,0.0,0.0,0.0,0.0,0.0,0.0,0.0,0.0,0.0,0.0,0.0,0.0,0.0,0.0,0.0,0.0,0.0,0.0,0.0,0.0,0.0,0.0,0.0,0.0,0.0,0.0,0.0,0.0,0.0,0.0,0.0,0.0,0.0,0.0,0.0,0.0,0.0,0.0,0.0,0.0,0.0,0.0,0.0,0.0,0.0,0.0,0.0,0.0,0.0,0.0,0.0,0.0,0.0,0.0,0.0,0.0,0.0,0.0,0.0,0.0,0.0,0.0,0.0,0.0,0.0,0.0,0.0,0.0,0.0,0.0,0.0,0.0,0.0,0.0,0.0,0.0,0.0,0.0,0.0,0.0,0.0,0.0,0.0,0.0,0.0,0.0,0.0,0.0,0.0,0.0,0.0,0.0,0.0,0.0,0.0,0.0,0.0,0.0,0.0,0.0,0.0,0.0,0.0,0.0,0.0,0.0,0.0,0.0,0.0,0.0,0.0,0.0,0.0,0.0,0.0,0.0,0.0,0.0,0.0,0.0,0.0,0.0,0.0,0.0,0.0,0.0,0.0,0.0,0.0,0.0,0.0,0.0,0.0,0.0,0.0,0.0,0.0,0.0,0.0,0.0,0.0,0.0,0.0,0.0,0.0,0.0,0.0,0.0,0.0,0.0,0.0,0.0,0.0,0.0,0.0,0.0,0.0,0.0,0.0,0.0,0.0,0.0,0.0,0.0,0.0,0.0,0.0,0.0,0.0,0.0,0.0,0.0,0.0,0.0,0.0,0.0,0.0,0.0,0.0,0.0,0.0,0.0,0.0,0.0,0.0,0.0,0.0,0.0,0.0,0.0,0.0,0.0,0.0,0.0,0.0,0.0,0.0,0.0,0.0,0.0,0.0,0.0,0.0,0.0,0.0,0.0,0.0,0.0,0.0,0.0,0.0,0.0,0.0,0.0,0.0,0.0,0.0,0.0,0.0,0.0,0.0,0.0,0.0,0.0,0.0,0.0,0.0,0.0,0.0,0.0,0.0,0.0,0.0,0.0,0.0,0.0,0.0,0.0,0.0,0.0,0.0,0.0,0.0,0.0,0.0,0.0,0.0,0.0,0.0,0.0,0.0,0.0,0.0,0.0,0.0,0.0,0.0,0.0,0.0,0.0,0.0,0.0,0.0,0.0,0.0,0.0,0.0,0.0,0.0,0.0,0.0,0.0,0.0,0.0,0.0,0.0,0.0,0.0,0.0,0.0,0.0,0.0,0.0,0.0,0.0,0.0,0.0,0.0,0.0,0.0,0.0,0.0,0.0,0.0,0.0,0.0,0.0,0.0,0.0,0.0,0.0,0.0,0.0,0.0,0.0,0.0,0.0,0.0,0.0,0.0,0.0,0.0,0.0,0.0,0.0,0.0,0.0,0.0,0.0,0.0,0.0,0.0,0.0,0.0,0.0,0.0,0.0,0.0,0.0,0.0,0.0,0.0,0.0,0.0,0.0,0.0,0.0,0.0,0.0,0.0,0.0,0.0,0.0,0.0,0.0,0.0,0.0,0.0,0.0,0.0,0.0,0.0,0.0,0.0,0.0,0.0,0.0,0.0,0.0,0.0,0.0,0.0,0.0,0.0,0.0,0.0,0.0,0.0,0.0,0.0,0.0,0.0,0.0,0.0,0.0,0.0,0.0,0.0,0.0,0.0,0.0,0.0,0.0,0.0,0.0,0.0,0.0,0.0,0.0,0.0,0.0,0.0,0.0,0.0,0.0,0.0,0.0,0.0,0.0,0.0,0.0,0.0,0.0,0.0,0.0,0.0,0.0,0.0,0.0,0.0,0.0,0.0,0.0,0.0,0.0,0.0,0.0,0.0,0.0,0.0,0.0,0.0,0.0,0.0,0.0,0.0,0.0,0.0,0.0,0.0,0.0,0.0,0.0,0.0,0.0,0.0,0.0,0.0,0.0,0.0,0.0,0.0,0.0,0.0,0.0,0.0,0.0,0.0,0.0,0.0,0.0,0.0,0.0,0.0,0.0,0.0,0.0,0.0,0.0,0.0,0.0,0.0,0.0,0.0,0.0,0.0,0.0,0.0,0.0,0.0,0.0,0.0,0.0,0.0,0.0,0.0,0.0,0.0,0.0,0.0,0.0,0.0,0.0,0.0,0.0,0.0,0.0,0.0,0.0,0.0,0.0,0.0,0.0,0.0,0.0,0.0,0.0,0.0,0.0,0.0,0.0,0.0,0.0,0.0,0.0,0.0,0.0,0.0,0.0,0.0,0.0,0.0,0.0,0.0,0.0,0.0,0.0,0.0,0.0,0.0,0.0,0.0,0.0,0.0,0.0,0.0,0.0,0.0,0.0,0.0,0.0,0.0,0.0,0.0,0.0,0.0,0.0,0.0,0.0,0.0,0.0,0.0,0.0,0.0,0.0,0.0,0.0,0.0,0.0,0.0,0.0,0.0,0.0,0.0,0.0,0.0,0.0,0.0,0.0,0.0,0.0,0.0,0.0,0.0,0.0,0.0,0.0,0.0,0.0,0.0,0.0,0.0,0.0,0.0,0.0,0.0,0.0,0.0,0.0,0.0,0.0,0.0,0.0,0.0,0.0,0.0,0.0,0.0,0.0,0.0,0.0,0.0,0.0,0.0,0.0,0.0,0.0,0.0,0.0,0.0,0.0,0.0,0.0,0.0,0.0,0.0,0.0,0.0,0.0,0.0,0.0,0.0,0.0,0.0,0.0,0.0,0.0,0.0,0.0,0.0,0.0,0.0,0.0,0.0,0.0,0.0,0.0,0.0,0.0,0.0,0.0,0.0,0.0,0.0,0.0,0.0,0.0,0.0,0.0,0.0,0.0,0.0,0.0,0.0,0.0,0.0,0.0,0.0,0.0,0.0,0.0,0.0,0.0,0.0,0.0,0.0,0.0,0.0,0.0,0.0,0.0,0.0,0.0,0.0,0.0,0.0,0.0,0.0,0.0,0.0,0.0,0.0,0.0,0.0,0.0,0.0,0.0,0.0,0.0,0.0,0.0,0.0,0.0,0.0,0.0,0.0,0.0,0.0,0.0,0.0,0.0,0.0,0.0,0.0,0.0,0.0,0.0,0.0,0.0,0.0,0.0,0.0,0.0,0.0,0.0,0.0,0.0,0.0,0.0,0.0,0.0,0.0,0.0,0.0,0.0,0.0,0.0,0.0,0.0,0.0,0.0,0.0,0.0,0.0,0.0,0.0,0.0,0.0,0.0,0.0,0.0,0.0,0.0,0.0,0.0,0.0,0.0,0.0,0.0,0.0,0.0,0.0,0.0,0.0,0.0,0.0,0.0,0.0,0.0,0.0,0.0,0.0,0.0,0.0,0.0,0.0,0.0,0.0,0.0,0.0,0.0,0.0,0.0,0.0,0.0,0.0,0.0,0.0,0.0,0.0,0.0,0.0,0.0,0.0,0.0,0.0,0.0,0.0,0.0,0.0,0.0,0.0,0.0,0.0,0.0,0.0,0.0,0.0,0.0,0.0,0.0,0.0,0.0,0.0,0.0,0.0,0.0,0.0,0.0,0.0,0.0,0.0,0.0,0.0,0.0,0.0,0.0,0.0,0.0,0.0,0.0,0.0,0.0,0.0,0.0,0.0,0.0,0.0,0.0,0.0,0.0,0.0,0.0,0.0,0.0,0.0,0.0,0.0,0.0,0.0,0.0,0.0,0.0,0.0,0.0,0.0,0.0,0.0,0.0,0.0,0.0,0.0,0.0,0.0,0.0,0.0,0.0,0.0,0.0,0.0,0.0,0.0,0.0,0.0,0.0,0.0,0.0,0.0,0.0,0.0,0.0,0.0,0.0,0.0,0.0,0.0,0.0,0.0,0.0,0.0,0.0,0.0,0.0,0.0,0.0,0.0,0.0,0.0,0.0,0.0,0.0,0.0,0.0,0.0,0.0,0.0,0.0,0.0,0.0,0.0,0.0,0.0,0.0,0.0,0.0,0.0,0.0,0.0,0.0,0.0,0.0,0.0,0.0,0.0,0.0,0.0,0.0,0.0,0.0,0.0,0.0,0.0,0.0,0.0,0.0,0.0,0.0,0.0,0.0,0.0,0.0,0.0,0.0,0.0,0.0,0.0,0.0,0.0,0.0,0.0,0.0,0.0,0.0,0.0,0.0,0.0,0.0,0.0,0.0,0.0,0.0,0.0,0.0,0.0,0.0,0.0,0.0,0.0,0.0,0.0,0.0,0.0,0.0,0.0,0.0,0.0,0.0,0.0,0.0,0.0,0.0,0.0,0.0,0.0,0.0,-3.0451,0.0,0.0,0.0,0.0,0.0,0.0,0.0,0.0,0.0,0.0,0.0,0.0,0.0,0.0,0.0,0.0,0.0,0.0,0.0,0.0,0.0,0.0,0.0,0.0,0.0,0.0,0.0,0.0,0.0,0.0,0.0,0.0,0.0,0.0,0.0,0.0,0.0,0.0,0.0,0.0,0.0,0.0,0.0,0.0,0.0,0.0,0.0,0.0,0.0,0.0,0.0,0.0,0.0,0.0,0.0,0.0,0.0,0.0,0.0,0.0,0.0,0.0,0.0,0.0,0.0,0.0,0.0,0.0,0.0,0.0,0.0,0.0,0.0,0.0,0.0,0.0,0.0,0.0,0.0,0.0,0.0,0.0,0.0,0.0,0.0,0.0,0.0,0.0,0.0,0.0,0.0,0.0,0.0,0.0,0.0,0.0,0.0,0.0,0.0,0.0,0.0,0.0,0.0,0.0,0.0,0.0,0.0,0.0,0.0,0.0,-2.8547,-2.8129,-2.7982,-2.8564,-2.9863,0.0,0.0,0.0,0.0,0.0,0.0,0.0,0.0,0.0,0.0,0.0,0.0,0.0,0.0,0.0,0.0,0.0,0.0,0.0,0.0,0.0,0.0,0.0,0.0,0.0,0.0,0.0,0.0,0.0,0.0,0.0,0.0,0.0,0.0,0.0,0.0,0.0,0.0,0.0,0.0,0.0,0.0,0.0,0.0,0.0,0.0,0.0,0.0,0.0,0.0,0.0,0.0,0.0,0.0,0.0,0.0,0.0,0.0,0.0,0.0,0.0,0.0,0.0,0.0,0.0,0.0,0.0,0.0,0.0,0.0,0.0,0.0,0.0,0.0,0.0,0.0,0.0,0.0,0.0,0.0,0.0,0.0,0.0,0.0,0.0,0.0,0.0,0.0,0.0,0.0,0.0,0.0,0.0,0.0,0.0,0.0,0.0,0.0,0.0,0.0,0.0,0.0,0.0,0.0,0.0,0.0,0.0,0.0,0.0,0.0,0.0,0.0,-2.7535,-2.8126,-2.942,0.0,0.0,0.0,0.0,0.0,0.0,0.0,0.0,0.0,0.0,0.0,0.0,0.0,0.0,0.0,0.0,0.0,0.0,0.0,0.0,0.0,0.0,0.0,0.0,0.0,0.0,0.0,0.0,0.0,0.0,0.0,0.0,0.0,0.0,0.0,0.0,0.0,0.0,0.0,0.0,0.0,0.0,0.0,0.0,0.0,0.0,0.0,0.0,0.0,0.0,0.0,0.0,0.0,0.0,0.0,0.0,0.0,0.0,0.0,0.0,0.0,0.0,0.0,0.0,0.0,0.0,0.0,0.0,0.0,0.0,0.0,0.0,0.0,0.0,0.0,0.0,0.0,0.0,0.0,0.0,0.0,0.0,0.0,0.0,0.0,0.0,0.0,0.0,0.0,0.0,0.0,0.0,0.0,0.0,0.0,0.0,0.0,0.0,0.0,0.0,0.0,0.0,0.0,0.0,0.0,0.0,0.0,0.0,0.0,0.0,-2.7452,-2.7181,-2.6989,0.0,-2.8619,0.0,0.0,0.0,0.0,0.0,0.0,0.0,0.0,0.0,0.0,0.0,0.0,0.0,0.0,0.0,0.0,0.0,0.0,0.0,0.0,0.0,0.0,0.0,0.0,0.0,0.0,0.0,0.0,0.0,0.0,0.0,0.0,0.0,0.0,0.0,0.0,0.0,0.0,0.0,0.0,0.0,0.0,0.0,0.0,0.0,0.0,0.0,0.0,0.0,0.0,0.0,0.0,0.0,0.0,0.0,0.0,0.0,0.0,0.0,0.0,0.0,0.0,0.0,0.0,0.0,0.0,0.0,0.0,0.0,0.0,0.0,0.0,0.0,0.0,0.0,0.0,0.0,0.0,0.0,0.0,0.0,0.0,0.0,0.0,0.0,0.0,0.0,0.0,0.0,0.0,0.0,0.0,0.0,0.0,0.0,0.0,0.0,0.0,0.0,0.0,0.0,0.0,0.0,0.0,0.0,0.0,0.0,0.0,0.0,0.0,-2.6985,-2.6691,-2.6889,-2.7211,0.0,0.0,0.0,0.0,0.0,0.0,0.0,0.0,0.0,0.0,0.0,0.0,0.0,0.0,0.0,0.0,0.0,0.0,0.0,0.0,0.0,0.0,0.0,0.0,0.0,0.0,0.0,0.0,0.0,0.0,0.0,0.0,0.0,0.0,0.0,0.0,0.0,0.0,0.0,0.0,0.0,0.0,0.0,0.0,0.0,0.0,0.0,0.0,0.0,0.0,0.0,0.0,0.0,0.0,0.0,0.0,0.0,0.0,0.0,0.0,0.0,0.0,0.0,0.0,0.0,0.0,0.0,0.0,0.0,0.0,0.0,0.0,0.0,0.0,0.0,0.0,0.0,0.0,0.0,0.0,0.0,0.0,0.0,0.0,0.0,0.0,0.0,0.0,0.0,0.0,0.0,0.0,0.0,0.0,0.0,0.0,0.0,0.0,0.0,0.0,0.0,0.0,0.0,0.0,0.0,0.0,0.0,0.0,0.0,0.0,-2.6791,-2.6488,-2.6225,-2.6521,-2.6787,-2.7,0.0,0.0,0.0,0.0,0.0,0.0,0.0,0.0,0.0,0.0,0.0,0.0,0.0,0.0,0.0,0.0,0.0,0.0,0.0,0.0,0.0,0.0,0.0,0.0,0.0,0.0,0.0,0.0,0.0,0.0,0.0,0.0,0.0,0.0,0.0,0.0,0.0,0.0,0.0,0.0,0.0,0.0,0.0,0.0,0.0,0.0,0.0,0.0,0.0,0.0,0.0,0.0,0.0,0.0,0.0,0.0,0.0,0.0,0.0,0.0,0.0,0.0,0.0,0.0,0.0,0.0,0.0,0.0,0.0,0.0,0.0,0.0,0.0,0.0,0.0,0.0,0.0,0.0,0.0,0.0,0.0,0.0,0.0,0.0,0.0,0.0,0.0,0.0,0.0,0.0,0.0,0.0,0.0,0.0,0.0,0.0,0.0,0.0,0.0,0.0,0.0,0.0,0.0,0.0,0.0,0.0,0.0,0.0,-2.6624,-2.626,-2.5901,-2.5642,-2.5637,-2.5978,0.0,0.0,0.0,0.0,0.0,0.0,0.0,0.0,0.0,0.0,0.0,0.0,0.0,0.0,0.0,0.0,0.0,0.0,0.0,0.0,0.0,0.0,0.0,0.0,0.0,0.0,0.0,0.0,0.0,0.0,0.0,0.0,0.0,0.0,0.0,0.0,0.0,0.0,0.0,0.0,0.0,0.0,0.0,0.0,0.0,0.0,0.0,0.0,0.0,0.0,0.0,0.0,0.0,0.0,0.0,0.0,0.0,0.0,0.0,0.0,0.0,0.0,0.0,0.0,0.0,0.0,0.0,0.0,0.0,0.0,0.0,0.0,0.0,0.0,0.0,0.0,0.0,0.0,0.0,0.0,0.0,0.0,0.0,0.0,0.0,0.0,0.0,0.0,0.0,0.0,0.0,0.0,0.0,0.0,0.0,0.0,0.0,0.0,0.0,0.0,0.0,0.0,0.0,0.0,0.0,0.0,0.0,0.0,0.0,-2.6154,-2.5663,-2.5339,-2.5091,-2.5091,-2.537,0.0,0.0,0.0,0.0,0.0,0.0,0.0,0.0,0.0,0.0,0.0,0.0,0.0,0.0,0.0,0.0,0.0,0.0,0.0,0.0,0.0,0.0,0.0,0.0,0.0,0.0,0.0,0.0,0.0,0.0,0.0,0.0,0.0,0.0,0.0,0.0,0.0,0.0,0.0,0.0,0.0,0.0,0.0,0.0,0.0,0.0,0.0,0.0,0.0,0.0,0.0,0.0,0.0,0.0,0.0,0.0,0.0,0.0,0.0,0.0,0.0,0.0,0.0,0.0,0.0,0.0,0.0,0.0,0.0,0.0,0.0,0.0,0.0,0.0,0.0,0.0,0.0,0.0,0.0,0.0,0.0,0.0,0.0,0.0,0.0,0.0,0.0,0.0,0.0,0.0,0.0,0.0,0.0,0.0,0.0,0.0,0.0,0.0,0.0,0.0,0.0,0.0,0.0,0.0,0.0,0.0,0.0,0.0,0.0,-2.553,0.0,-2.4791,-2.4574,-2.4533,-2.4818,0.0,0.0,0.0,0.0,0.0,0.0,0.0,0.0,0.0,0.0,0.0,0.0,0.0,0.0,0.0,0.0,0.0,0.0,0.0,0.0,0.0,0.0,0.0,0.0,0.0,0.0,0.0,0.0,0.0,0.0,0.0,0.0,0.0,0.0,0.0,0.0,0.0,0.0,0.0,0.0,0.0,0.0,0.0,0.0,0.0,0.0,0.0,0.0,0.0,0.0,0.0,0.0,0.0,0.0,0.0,0.0,0.0,0.0,0.0,0.0,0.0,0.0,0.0,0.0,0.0,0.0,0.0,0.0,0.0,0.0,0.0,0.0,0.0,0.0,0.0,0.0,0.0,0.0,0.0,0.0,0.0,0.0,0.0,0.0,0.0,0.0,0.0,0.0,0.0,0.0,0.0,0.0,0.0,0.0,0.0,0.0,0.0,0.0,0.0,0.0,0.0,0.0,0.0,0.0,0.0,0.0,0.0,0.0,-2.5448,-2.4846,-2.4651,-2.4451,-2.4151,-2.4085,-2.4346,0.0,0.0,0.0,0.0,0.0,0.0,0.0,0.0,0.0,0.0,0.0,0.0,0.0,0.0,0.0,0.0,0.0,0.0,0.0,0.0,0.0,0.0,0.0,0.0,0.0,0.0,0.0,0.0,0.0,0.0,0.0,0.0,0.0,0.0,0.0,0.0,0.0,0.0,0.0,0.0,0.0,0.0,0.0,0.0,0.0,0.0,0.0,0.0,0.0,0.0,0.0,0.0,0.0,0.0,0.0,0.0,0.0,0.0,0.0,0.0,0.0,0.0,0.0,0.0,0.0,0.0,0.0,0.0,0.0,0.0,0.0,0.0,0.0,0.0,0.0,0.0,0.0,0.0,0.0,0.0,0.0,0.0,0.0,0.0,0.0,0.0,0.0,0.0,0.0,0.0,0.0,0.0,0.0,0.0,0.0,0.0,0.0,0.0,0.0,0.0,0.0,0.0,0.0,0.0,0.0,0.0,0.0,0.0,0.0,-2.5122,-2.5163,-2.5108,-2.4848,-2.4695,-2.4911,0.0,0.0,0.0,0.0,0.0,0.0,0.0,0.0,0.0,0.0,0.0,0.0,0.0,0.0,0.0,0.0,0.0,0.0,0.0,0.0,0.0,0.0,0.0,0.0,0.0,0.0,0.0,0.0,0.0,0.0,0.0,0.0,0.0,0.0,0.0,0.0,0.0,0.0,0.0,0.0,0.0,0.0,0.0,0.0,0.0,0.0,0.0,0.0,0.0,0.0,0.0,0.0,0.0,0.0,0.0,0.0,0.0,0.0,0.0,0.0,0.0,0.0,0.0,0.0,0.0,0.0,0.0,0.0,0.0,0.0,0.0,0.0,0.0,0.0,0.0,0.0,0.0,0.0,0.0,0.0,0.0,0.0,0.0,0.0,0.0,0.0,0.0,0.0,0.0,0.0,0.0,0.0,0.0,0.0,0.0,0.0,0.0,0.0,0.0,0.0,0.0,0.0,0.0,0.0,0.0,0.0,0.0,0.0,0.0,-2.6221,-2.6292,-2.635,-2.6374,-2.5727,-2.5798,-2.6625,0.0,0.0,0.0,0.0,0.0,0.0,0.0,0.0,0.0,0.0,0.0,0.0,0.0,0.0,0.0,0.0,0.0,0.0,0.0,0.0,0.0,0.0,0.0,0.0,0.0,0.0,0.0,0.0,0.0,0.0,0.0,0.0,0.0,0.0,0.0,0.0,0.0,0.0,0.0,0.0,0.0,0.0,0.0,0.0,0.0,0.0,0.0,0.0,0.0,0.0,0.0,0.0,0.0,0.0,0.0,0.0,0.0,0.0,0.0,0.0,0.0,0.0,0.0,0.0,0.0,0.0,0.0,0.0,0.0,0.0,0.0,0.0,0.0,0.0,0.0,0.0,0.0,0.0,0.0,0.0,0.0,0.0,0.0,0.0,0.0,0.0,0.0,0.0,0.0,0.0,0.0,0.0,0.0,0.0,0.0,0.0,0.0,0.0,0.0,0.0,0.0,0.0,0.0,0.0,0.0,0.0,0.0,0.0,-2.805,-2.8039,-2.8134,-2.8369,-2.7097,-2.6971,0.0,0.0,0.0,0.0,0.0,0.0,0.0,0.0,0.0,0.0,0.0,0.0,0.0,0.0,0.0,0.0,0.0,0.0,0.0,0.0,0.0,0.0,0.0,0.0,0.0,0.0,0.0,0.0,0.0,0.0,0.0,0.0,0.0,0.0,0.0,0.0,0.0,0.0,0.0,0.0,0.0,0.0,0.0,0.0,0.0,0.0,0.0,0.0,0.0,0.0,0.0,0.0,0.0,0.0,0.0,0.0,0.0,0.0,0.0,0.0,0.0,0.0,0.0,0.0,0.0,0.0,0.0,0.0,0.0,0.0,0.0,0.0,0.0,0.0,0.0,0.0,0.0,0.0,0.0,0.0,0.0,0.0,0.0,0.0,0.0,0.0,0.0,0.0,0.0,0.0,0.0,0.0,0.0,0.0,0.0,0.0,0.0,0.0,0.0,0.0,0.0,0.0,0.0,0.0,0.0,0.0,0.0,0.0,0.0,-3.1022,-3.1246,-3.0714,-2.9458,-2.8106,-2.7766,0.0,0.0,0.0,0.0,0.0,0.0,0.0,0.0,0.0,0.0,0.0,0.0,0.0,0.0,0.0,0.0,0.0,0.0,0.0,0.0,0.0,0.0,0.0,0.0,0.0,0.0,0.0,0.0,0.0,0.0,0.0,0.0,0.0,0.0,0.0,0.0,0.0,0.0,0.0,0.0,0.0,0.0,0.0,0.0,0.0,0.0,0.0,0.0,0.0,0.0,0.0,0.0,0.0,0.0,0.0,0.0,0.0,0.0,0.0,0.0,0.0,0.0,0.0,0.0,0.0,0.0,0.0,0.0,0.0,0.0,0.0,0.0,0.0,0.0,0.0,0.0,0.0,0.0,0.0,0.0,0.0,0.0,0.0,0.0,0.0,0.0,0.0,0.0,0.0,0.0,0.0,0.0,0.0,0.0,0.0,0.0,0.0,0.0,0.0,0.0,0.0,0.0,0.0,0.0,0.0,0.0,0.0,0.0,-3.0816,-3.1568,-3.2443,-3.2393,-3.1335,-3.0045,-2.9378,0.0,0.0,0.0,0.0,0.0,0.0,0.0,0.0,0.0,0.0,0.0,0.0,0.0,0.0,0.0,0.0,0.0,0.0,0.0,0.0,0.0,0.0,0.0,0.0,0.0,0.0,0.0,0.0,0.0,0.0,0.0,0.0,0.0,0.0,0.0,0.0,0.0,0.0,0.0,0.0,0.0,0.0,0.0,0.0,0.0,0.0,0.0,0.0,0.0,0.0,0.0,0.0,0.0,0.0,0.0,0.0,0.0,0.0,0.0,0.0,0.0,0.0,0.0,0.0,0.0,0.0,0.0,0.0,0.0,0.0,0.0,0.0,0.0,0.0,0.0,0.0,0.0,0.0,0.0,0.0,0.0,0.0,0.0,0.0,0.0,0.0,0.0,0.0,0.0,0.0,0.0,0.0,0.0,0.0,0.0,0.0,0.0,0.0,0.0,0.0,0.0,0.0,0.0,0.0,0.0,0.0,0.0,0.0,-3.0429,-3.1019,-3.2523,-3.3312,-3.3283,-3.2075,-3.112,0.0,0.0,0.0,0.0,0.0,0.0,0.0,0.0,0.0,0.0,0.0,0.0,0.0,0.0,0.0,0.0,0.0,0.0,0.0,0.0,0.0,0.0,0.0,0.0,0.0,0.0,0.0,0.0,0.0,0.0,0.0,0.0,0.0,0.0,0.0,0.0,0.0,0.0,0.0,0.0,0.0,0.0,0.0,0.0,0.0,0.0,0.0,0.0,0.0,0.0,0.0,0.0,0.0,0.0,0.0,0.0,0.0,0.0,0.0,0.0,0.0,0.0,0.0,0.0,0.0,0.0,0.0,0.0,0.0,0.0,0.0,0.0,0.0,0.0,0.0,0.0,0.0,0.0,0.0,0.0,0.0,0.0,0.0,0.0,0.0,0.0,0.0,0.0,0.0,0.0,0.0,0.0,0.0,0.0,0.0,0.0,0.0,0.0,0.0,0.0,0.0,0.0,0.0,0.0,0.0,0.0,0.0,0.0,-3.1381,-3.2953,-3.3185,-3.3312,-3.3312,-3.1492,-3.0462,0.0,0.0,0.0,0.0,0.0,0.0,0.0,0.0,0.0,0.0,0.0,0.0,0.0,0.0,0.0,0.0,0.0,0.0,0.0,0.0,0.0,0.0,0.0,0.0,0.0,0.0,0.0,0.0,0.0,0.0,0.0,0.0,0.0,0.0,0.0,0.0,0.0,0.0,0.0,0.0,0.0,0.0,0.0,0.0,0.0,0.0,0.0,0.0,-3.6357,0.0,0.0,0.0,0.0,0.0,0.0,0.0,0.0,0.0,0.0,0.0,0.0,0.0,0.0,0.0,0.0,0.0,0.0,0.0,0.0,0.0,0.0,0.0,0.0,0.0,0.0,0.0,0.0,0.0,0.0,0.0,0.0,0.0,0.0,0.0,0.0,0.0,0.0,0.0,0.0,0.0,0.0,0.0,0.0,0.0,0.0,0.0,0.0,0.0,0.0,0.0,0.0,0.0,0.0,0.0,0.0,0.0,0.0,0.0,-3.1138,-3.2958,-3.3241,-3.3312,-3.3269,-3.1721,-3.0571,0.0,0.0,0.0,0.0,0.0,0.0,0.0,0.0,0.0,0.0,0.0,0.0,0.0,0.0,0.0,0.0,0.0,0.0,0.0,0.0,0.0,0.0,0.0,0.0,0.0,0.0,0.0,0.0,0.0,0.0,0.0,0.0,0.0,0.0,0.0,0.0,0.0,0.0,0.0,0.0,0.0,0.0,0.0,0.0,0.0,0.0,0.0,0.0,0.0,0.0,0.0,0.0,0.0,0.0,0.0,0.0,0.0,0.0,0.0,0.0,0.0,0.0,0.0,0.0,0.0,0.0,0.0,0.0,0.0,0.0,0.0,0.0,0.0,0.0,0.0,0.0,0.0,0.0,0.0,0.0,0.0,0.0,0.0,0.0,0.0,0.0,0.0,0.0,0.0,0.0,0.0,0.0,0.0,0.0,0.0,0.0,0.0,0.0,0.0,0.0,0.0,0.0,0.0,0.0,0.0,0.0,0.0,-3.0073,-3.0656,-3.2469,-3.3059,-3.3312,-3.3312,-3.2124,-3.0856,-2.9589,0.0,0.0,0.0,0.0,0.0,0.0,0.0,0.0,0.0,0.0,0.0,0.0,0.0,0.0,0.0,0.0,0.0,0.0,0.0,0.0,0.0,0.0,0.0,0.0,0.0,0.0,0.0,0.0,0.0,0.0,0.0,0.0,0.0,0.0,0.0,0.0,0.0,0.0,-3.5166,-3.4987,0.0,0.0,0.0,0.0,0.0,0.0,0.0,0.0,-3.7719,0.0,0.0,0.0,0.0,0.0,0.0,0.0,0.0,0.0,0.0,0.0,0.0,0.0,0.0,0.0,0.0,0.0,0.0,0.0,0.0,0.0,0.0,0.0,0.0,0.0,0.0,0.0,0.0,0.0,0.0,0.0,0.0,0.0,0.0,0.0,0.0,0.0,0.0,0.0,0.0,0.0,0.0,0.0,0.0,0.0,0.0,0.0,0.0,0.0,0.0,0.0,0.0,0.0,0.0,0.0,0.0,-3.0474,-3.0431,-3.1274,-3.3115,-3.3283,-3.3312,-3.3312,-3.2137,-3.0993,-3.0034,0.0,0.0,0.0,0.0,0.0,0.0,0.0,0.0,0.0,0.0,0.0,0.0,0.0,0.0,0.0,0.0,0.0,0.0,0.0,0.0,0.0,0.0,0.0,0.0,0.0,0.0,0.0,0.0,0.0,0.0,0.0,0.0,0.0,0.0,0.0,0.0,0.0,0.0,0.0,-3.5875,-3.5759,0.0,0.0,0.0,0.0,0.0,0.0,0.0,0.0,-3.8745,0.0,0.0,0.0,0.0,0.0,0.0,0.0,0.0,0.0,0.0,0.0,0.0,0.0,0.0,0.0,0.0,0.0,0.0,0.0,0.0,0.0,0.0,0.0,0.0,0.0,0.0,0.0,0.0,0.0,0.0,0.0,0.0,0.0,0.0,0.0,0.0,0.0,0.0,0.0,0.0,0.0,0.0,0.0,0.0,0.0,0.0,0.0,0.0,0.0,0.0,0.0,0.0,0.0,0.0,0.0,-3.0361,-3.1162,-3.2258,-3.3747,-3.4112,-3.4267,-3.4253,-3.2773,-3.1528,0.0,0.0,0.0,0.0,0.0,0.0,0.0,0.0,0.0,0.0,0.0,0.0,0.0,0.0,0.0,0.0,0.0,0.0,0.0,0.0,0.0,0.0,0.0,0.0,0.0,0.0,0.0,0.0,0.0,0.0,0.0,0.0,0.0,0.0,0.0,0.0,0.0,0.0,0.0,0.0,-3.6067,-3.6424,-3.7609,0.0,0.0,0.0,0.0,0.0,0.0,-4.0221,-3.9936,0.0,0.0,0.0,0.0,0.0,0.0,0.0,0.0,0.0,0.0,0.0,0.0,0.0,0.0,0.0,0.0,0.0,0.0,0.0,0.0,0.0,0.0,0.0,0.0,0.0,0.0,0.0,0.0,0.0,0.0,0.0,0.0,0.0,0.0,0.0,0.0,0.0,0.0,0.0,0.0,0.0,0.0,0.0,0.0,0.0,0.0,0.0,0.0,0.0,0.0,0.0,0.0,0.0,0.0,0.0,-3.0642,-3.2075,-3.3297,-3.4379,-3.4913,-3.5152,-3.505,-3.3329,-3.1914,0.0,0.0,0.0,0.0,0.0,0.0,0.0,0.0,0.0,0.0,0.0,0.0,0.0,0.0,0.0,0.0,0.0,0.0,0.0,0.0,0.0,0.0,0.0,0.0,0.0,0.0,0.0,0.0,0.0,0.0,0.0,0.0,0.0,0.0,0.0,0.0,0.0,0.0,0.0,0.0,0.0,-3.6918,-3.8482,-3.7606,0.0,0.0,0.0,0.0,-4.0902,-4.1341,0.0,0.0,0.0,0.0,0.0,0.0,0.0,0.0,0.0,0.0,0.0,0.0,0.0,0.0,0.0,0.0,0.0,0.0,0.0,0.0,0.0,0.0,0.0,0.0,0.0,0.0,0.0,0.0,0.0,0.0,0.0,0.0,0.0,0.0,0.0,0.0,0.0,0.0,0.0,0.0,0.0,0.0,0.0,0.0,0.0,0.0,0.0,0.0,0.0,0.0,0.0,0.0,0.0,0.0,0.0,0.0,-3.1359,-3.3115,-3.4351,-3.5012,-3.5124,-3.5004,-3.4602,-3.2869,-3.1488,0.0,0.0,0.0,0.0,0.0,0.0,0.0,0.0,0.0,0.0,0.0,0.0,0.0,0.0,0.0,0.0,0.0,0.0,0.0,0.0,0.0,0.0,0.0,0.0,0.0,0.0,0.0,0.0,0.0,0.0,0.0,0.0,0.0,0.0,0.0,0.0,0.0,0.0,0.0,0.0,0.0,-3.6805,-3.827,-3.8302,-3.8237,0.0,0.0,-4.1529,-4.2261,-4.346,0.0,0.0,0.0,0.0,0.0,0.0,0.0,0.0,0.0,0.0,0.0,0.0,0.0,0.0,0.0,0.0,0.0,0.0,0.0,0.0,0.0,0.0,0.0,0.0,0.0,0.0,0.0,0.0,0.0,0.0,0.0,0.0,0.0,0.0,0.0,0.0,0.0,0.0,0.0,0.0,0.0,0.0,0.0,0.0,0.0,0.0,0.0,0.0,0.0,0.0,0.0,0.0,0.0,0.0,0.0,-2.9778,-3.1045,-3.3553,-3.494,-3.4975,-3.5319,-3.5421,-3.5186,-3.3438,-3.1973,0.0,0.0,0.0,0.0,0.0,0.0,0.0,0.0,0.0,0.0,0.0,0.0,0.0,0.0,0.0,0.0,0.0,0.0,0.0,0.0,0.0,0.0,0.0,0.0,0.0,0.0,0.0,0.0,0.0,0.0,0.0,0.0,0.0,0.0,0.0,0.0,0.0,0.0,0.0,0.0,0.0,0.0,-3.8262,-3.9428,0.0,0.0,0.0,-4.2747,-4.265,0.0,0.0,0.0,0.0,0.0,0.0,0.0,0.0,0.0,0.0,0.0,0.0,0.0,0.0,0.0,0.0,0.0,0.0,0.0,0.0,0.0,0.0,0.0,0.0,0.0,0.0,0.0,0.0,0.0,0.0,0.0,0.0,0.0,0.0,0.0,0.0,0.0,0.0,0.0,0.0,0.0,0.0,0.0,0.0,0.0,0.0,0.0,0.0,0.0,0.0,0.0,0.0,0.0,0.0,0.0,0.0,0.0,-3.1061,-3.3984,-3.536,-3.5058,-3.5493,-3.5629,-3.5535,-3.3954,0.0,0.0,0.0,0.0,0.0,0.0,0.0,0.0,0.0,0.0,0.0,0.0,0.0,0.0,0.0,0.0,0.0,0.0,0.0,0.0,0.0,0.0,0.0,0.0,0.0,0.0,0.0,-3.4813,0.0,0.0,0.0,0.0,0.0,0.0,0.0,0.0,0.0,0.0,0.0,0.0,0.0,0.0,-3.7708,-3.8764,-4.0437,-4.1714,0.0,0.0,-4.3589,-4.3233,-4.4383,-4.4528,0.0,0.0,0.0,0.0,0.0,0.0,0.0,0.0,0.0,0.0,0.0,0.0,0.0,0.0,0.0,0.0,0.0,0.0,0.0,0.0,0.0,0.0,0.0,0.0,0.0,0.0,0.0,0.0,0.0,0.0,0.0,0.0,0.0,0.0,0.0,0.0,0.0,0.0,0.0,0.0,0.0,0.0,0.0,0.0,0.0,0.0,0.0,0.0,0.0,0.0,0.0,0.0,0.0,0.0,0.0,-3.2335,-3.4485,-3.5655,-3.5669,-3.5683,-3.5562,-3.5141,-3.4151,-3.2626,0.0,0.0,0.0,0.0,0.0,0.0,0.0,0.0,0.0,0.0,0.0,0.0,0.0,0.0,0.0,0.0,0.0,0.0,0.0,0.0,0.0,0.0,0.0,0.0,0.0,0.0,0.0,0.0,0.0,0.0,0.0,0.0,0.0,0.0,0.0,0.0,0.0,0.0,0.0,0.0,0.0,-3.8046,-4.0086,-4.1074,-4.2075,0.0,0.0,-4.3929,-4.4544,-4.5807,-4.5791,-4.3006,0.0,0.0,0.0,0.0,0.0,0.0,0.0,0.0,0.0,0.0,0.0,0.0,0.0,0.0,0.0,0.0,0.0,0.0,0.0,0.0,0.0,0.0,0.0,0.0,0.0,0.0,0.0,0.0,0.0,0.0,0.0,0.0,0.0,0.0,0.0,0.0,0.0,0.0,0.0,0.0,0.0,0.0,0.0,0.0,0.0,0.0,0.0,0.0,0.0,0.0,0.0,0.0,0.0,-3.1585,-3.23,-3.4516,-3.5562,-3.5318,-3.5059,-3.4812,-3.466,-3.4139,-3.313,0.0,0.0,0.0,0.0,0.0,0.0,0.0,0.0,0.0,0.0,0.0,0.0,0.0,0.0,0.0,0.0,0.0,0.0,0.0,0.0,0.0,0.0,0.0,0.0,0.0,0.0,0.0,0.0,-3.8051,-3.8132,-3.6837,0.0,0.0,0.0,0.0,0.0,0.0,0.0,0.0,0.0,0.0,-3.875,-4.0908,-4.2556,0.0,0.0,-4.4739,-4.4949,-4.482,-4.5241,-4.4771,-4.2359,-4.082,0.0,0.0,0.0,0.0,0.0,0.0,0.0,0.0,0.0,0.0,0.0,0.0,0.0,0.0,0.0,0.0,0.0,0.0,0.0,0.0,0.0,0.0,0.0,0.0,0.0,0.0,0.0,0.0,0.0,0.0,0.0,0.0,0.0,0.0,0.0,0.0,0.0,0.0,0.0,0.0,0.0,0.0,0.0,0.0,0.0,0.0,0.0,0.0,0.0,0.0,0.0,0.0,-3.1309,-3.2009,-3.4189,-3.5141,-3.4908,-3.4564,-3.4397,-3.4384,-3.4183,-3.3595,0.0,0.0,0.0,0.0,0.0,0.0,0.0,0.0,0.0,0.0,0.0,0.0,0.0,0.0,0.0,0.0,0.0,0.0,0.0,0.0,0.0,0.0,0.0,0.0,0.0,0.0,0.0,0.0,-3.8213,-3.7857,-3.6157,0.0,0.0,0.0,0.0,0.0,0.0,0.0,0.0,0.0,0.0,-3.9979,-4.1687,-4.3396,-4.454,-4.4771,-4.5014,-4.5014,-4.4544,-4.4464,-4.3881,-4.2164,0.0,0.0,0.0,0.0,0.0,0.0,0.0,0.0,0.0,0.0,0.0,0.0,0.0,0.0,0.0,0.0,0.0,0.0,0.0,0.0,0.0,0.0,0.0,0.0,0.0,0.0,0.0,0.0,0.0,0.0,-2.1799,0.0,0.0,0.0,0.0,0.0,0.0,0.0,0.0,0.0,0.0,0.0,0.0,0.0,0.0,0.0,0.0,0.0,0.0,0.0,0.0,0.0,0.0,-3.0499,-3.1495,-3.3462,-3.4481,-3.4397,-3.4397,-3.4397,-3.4397,-3.4384,-3.393,-3.2962,0.0,0.0,0.0,0.0,0.0,0.0,0.0,0.0,0.0,0.0,0.0,0.0,0.0,0.0,0.0,0.0,0.0,0.0,0.0,0.0,0.0,0.0,0.0,0.0,0.0,0.0,-3.62,-3.6244,-3.6076,0.0,0.0,0.0,0.0,0.0,0.0,0.0,0.0,0.0,0.0,-3.9309,-4.1741,-4.2437,-4.3235,-4.4008,-4.4723,-4.4204,-4.3767,-4.3751,-4.3735,-4.3476,0.0,0.0,0.0,0.0,0.0,0.0,0.0,0.0,0.0,0.0,0.0,0.0,0.0,0.0,0.0,0.0,0.0,0.0,0.0,0.0,0.0,0.0,0.0,0.0,0.0,0.0,0.0,-2.3102,-2.3622,0.0,0.0,0.0,0.0,0.0,0.0,0.0,0.0,0.0,0.0,0.0,-2.7312,-2.7058,0.0,0.0,0.0,0.0,0.0,0.0,0.0,0.0,0.0,0.0,0.0,0.0,-3.0878,-3.199,-3.3887,-3.4825,-3.4825,-3.4577,-3.4397,-3.4397,-3.4397,-3.3957,-3.3001,0.0,0.0,0.0,0.0,0.0,0.0,0.0,0.0,0.0,0.0,0.0,0.0,0.0,0.0,0.0,0.0,0.0,0.0,0.0,0.0,0.0,0.0,0.0,0.0,0.0,-3.7407,0.0,0.0,0.0,0.0,0.0,0.0,0.0,0.0,0.0,0.0,0.0,-3.6546,-3.8197,-3.9462,-4.0614,-4.1772,-4.2528,-4.3404,0.0,0.0,0.0,0.0,0.0,0.0,0.0,0.0,0.0,0.0,0.0,0.0,0.0,0.0,-3.9217,-3.8537,-3.8764,-3.9104,-3.9072,0.0,0.0,0.0,0.0,0.0,0.0,0.0,0.0,0.0,0.0,0.0,0.0,0.0,0.0,-2.3594,0.0,-2.4173,0.0,0.0,0.0,0.0,0.0,0.0,0.0,0.0,-2.7036,-2.7612,-2.8145,-2.7987,-2.807,0.0,-2.798,-2.7273,0.0,0.0,0.0,0.0,0.0,0.0,0.0,0.0,-3.1118,-3.2273,-3.398,-3.4825,-3.4825,-3.4577,-3.4397,-3.4397,-3.4397,-3.414,-3.35,-3.2934,-3.1973,0.0,0.0,0.0,0.0,0.0,0.0,0.0,0.0,0.0,0.0,0.0,0.0,0.0,0.0,0.0,0.0,0.0,0.0,0.0,0.0,0.0,0.0,0.0,-3.7275,0.0,0.0,0.0,0.0,0.0,0.0,0.0,0.0,0.0,-3.5509,-3.6643,-3.7938,-3.9298,-4.0317,-4.101,-4.1205,0.0,0.0,0.0,0.0,0.0,0.0,0.0,-4.1873,-4.1646,-4.1824,-4.2132,-4.2618,-4.2488,-4.231,-4.231,0.0,0.0,-4.0836,-4.0934,-4.1306,-4.1565,-4.1614,-4.1678,-4.1938,-4.2553,-4.3168,0.0,0.0,0.0,0.0,0.0,0.0,0.0,0.0,-2.4001,-2.3963,0.0,-2.4927,0.0,0.0,0.0,0.0,0.0,-2.7024,0.0,0.0,-2.9435,-2.9952,-2.9515,-2.9493,-2.9328,-2.9079,-2.9249,-2.8901,-2.8215,-2.8425,0.0,0.0,0.0,0.0,0.0,0.0,-3.1216,-3.2385,-3.3778,-3.4384,-3.4397,-3.4397,-3.4397,-3.4397,-3.4397,-3.4384,-3.4345,-3.3513,-3.3001,-3.2896,-3.0663,0.0,0.0,0.0,0.0,0.0,0.0,0.0,0.0,0.0,0.0,0.0,0.0,0.0,0.0,0.0,0.0,0.0,0.0,0.0,0.0,-3.6411,0.0,0.0,0.0,0.0,0.0,0.0,0.0,0.0,0.0,0.0,-3.6459,-3.823,-3.9509,-3.9525,0.0,0.0,0.0,0.0,-4.3976,-4.2048,-4.2213,-4.2423,-4.1824,-4.2261,-4.2893,-4.3557,0.0,0.0,-4.482,-4.4285,-4.3897,-4.3848,-4.448,-4.448,-4.3136,-4.2941,-4.3136,-4.3783,-4.3962,-4.414,-4.4771,-4.5467,-4.5953,-2.34,0.0,0.0,0.0,0.0,-2.3629,-2.4271,-2.5197,-2.5332,-2.5434,-2.5474,-2.6183,0.0,0.0,0.0,0.0,0.0,0.0,-2.8172,-2.8528,-2.9332,-2.9802,-3.0009,-3.0009,-2.994,-2.9869,-2.9897,-2.9834,-2.9683,-3.0652,-3.034,-2.8767,0.0,0.0,0.0,0.0,-3.1752,-3.2841,-3.3826,-3.4397,-3.4397,-3.4397,-3.4397,-3.4397,-3.4397,-3.4397,-3.4397,-3.4166,-3.371,-3.3001,-3.2332,0.0,0.0,0.0,0.0,0.0,0.0,0.0,0.0,0.0,0.0,0.0,0.0,0.0,0.0,0.0,0.0,0.0,0.0,0.0,-3.7959,-3.727,-3.6315,0.0,0.0,0.0,0.0,0.0,0.0,0.0,0.0,0.0,-3.9092,-3.9774,-4.0205,0.0,0.0,-4.1179,-4.0561,-4.1636,-4.2653,-4.3055,-4.2844,0.0,0.0,-4.3605,-4.3476,-4.3686,-4.4706,-4.5516,-4.5516,-4.6196,-4.6779,-4.6763,-4.7346,-4.767,-4.7281,-4.6779,-4.6714,-4.7313,-4.7508,-4.7556,-4.7799,-4.8366,-4.8852,-2.3944,-2.3602,-2.357,-2.3988,-2.4695,-2.4964,-2.5585,-2.6434,-2.6423,-2.6422,-2.655,-2.7072,-2.6821,-2.6111,-2.7094,0.0,0.0,0.0,-2.8838,-2.9309,-2.963,-2.9929,-3.0204,-3.0216,-3.0216,-3.0216,-3.0487,-3.0487,-3.0216,-3.1321,-3.1351,-3.0375,0.0,0.0,-3.1443,-3.1894,-3.2511,-3.337,-3.4022,-3.4397,-3.4397,-3.4397,-3.4397,-3.4397,-3.4397,-3.4397,-3.4397,-3.4397,-3.4179,-3.3579,-3.3203,-3.2359,0.0,0.0,0.0,0.0,0.0,0.0,0.0,0.0,0.0,0.0,0.0,-3.2326,0.0,0.0,0.0,0.0,-3.642,-3.7752,-3.9124,-3.7886,0.0,0.0,0.0,0.0,0.0,0.0,0.0,-3.6079,-3.8142,-3.975,-4.0611,-4.1375,-4.1776,-4.1776,-4.1999,-4.1996,-4.1403,0.0,-4.3347,-4.3638,-4.3589,-4.38,-4.4642,-4.4658,-4.4642,-4.4933,-4.5905,-4.6649,-4.6714,-4.7653,-4.8382,-4.8463,-4.8738,-4.9111,-4.9402,-4.9111,-4.8949,-4.9354,-4.9451,-4.9532,-4.9807,-5.0228,-5.0536,-2.3628,-2.4927,-2.4293,-2.4871,-2.5968,-2.5989,-2.6465,-2.7347,-2.7262,-2.7202,-2.7033,-2.7713,-2.7796,-2.7513,-2.8141,0.0,-2.8838,-2.9332,-2.9791,-3.0216,-3.0216,-3.0216,-3.0216,-3.0216,-3.0216,-3.0216,-3.0847,-3.0847,-3.0283,-3.0894,-3.1418,-3.1831,-3.2555,-3.2803,-3.2478,-3.2828,-3.3331,-3.3898,-3.4166,-3.4358,-3.4397,-3.4397,-3.4397,-3.4397,-3.4397,-3.4397,-3.4397,-3.4397,-3.4397,-3.4371,-3.3579,-3.3054,-3.2961,0.0,0.0,0.0,0.0,0.0,0.0,0.0,0.0,0.0,0.0,0.0,0.0,0.0,0.0,0.0,-3.7639,0.0,-3.9916,-3.8404,0.0,0.0,0.0,-3.5435,-3.6004,-3.644,-3.7152,-3.8491,0.0,0.0,-4.1558,0.0,-4.3897,-4.3962,-4.4447,-4.4302,-4.299,-4.4464,-4.5338,-4.4123,-4.4496,-4.4949,-4.5111,-4.5581,-4.618,-4.6763,-4.7589,-4.8026,-4.8091,-4.8625,-4.9062,-4.9111,-4.9159,-4.9418,-5.0066,-5.0163,-5.0196,-5.0179,-5.0196,-5.039,-5.0924,-5.1102,-5.1118,-2.4903,-2.5848,-2.564,-2.608,-2.692,-2.6931,-2.7055,-2.7262,-2.7272,-2.7295,-2.7201,-2.7757,-2.8337,-2.8956,-2.9138,-2.95,-2.986,-2.9986,-3.0112,-3.0216,-3.0216,-3.0216,-3.0216,-3.0216,-3.0216,-3.0216,-3.0397,-3.0385,-3.0216,-3.0897,-3.1544,-3.1932,-3.2432,-3.2717,-3.2894,-3.2935,-3.3238,-3.3668,-3.3718,-3.3979,-3.4384,-3.4397,-3.4397,-3.4397,-3.4397,-3.4397,-3.4397,-3.4397,-3.4397,-3.4397,-3.4136,-3.3925,-3.3445,-3.2058,0.0,0.0,0.0,0.0,0.0,0.0,0.0,0.0,0.0,-3.3475,-3.4073,0.0,-3.7173,0.0,-3.8224,-3.9435,-4.011,-3.9121,0.0,0.0,-3.6984,-3.675,-3.7405,-3.8308,-3.9232,-4.0024,-4.172,-4.3129,-4.3701,-4.4689,-4.5516,-4.6034,-4.5338,-4.4674,-4.435,-4.5111,-4.5694,-4.5435,-4.5872,-4.6374,-4.639,-4.7006,-4.7508,-4.7718,-4.8317,-4.8771,-4.8771,-4.937,-4.9839,-4.9888,-5.0309,-5.0697,-5.0876,-5.0924,-5.0908,-5.0924,-5.0924,-5.0957,-5.1151,-5.1183,-5.1183,-2.4748,-2.5286,-2.5286,-2.5673,-2.6264,-2.6955,-2.7272,-2.7272,-2.7272,-2.7272,-2.7347,-2.7809,-2.8456,-2.9106,-2.9106,-2.9382,-2.9852,-2.9852,-3.0034,-3.0216,-3.0216,-3.0216,-3.0216,-3.0216,-3.0216,-3.0216,-3.0216,-3.0216,-3.0216,-3.0578,-3.1282,-3.2152,-3.235,-3.2708,-3.3251,-3.2975,-3.3014,-3.3195,-3.3456,-3.3849,-3.4371,-3.4397,-3.428,-3.4045,-3.4045,-3.3914,-3.3652,-3.3639,-3.3708,-3.3789,-3.3789,-3.3674,-3.3432,-3.2447,-3.1527,0.0,0.0,0.0,0.0,0.0,0.0,0.0,0.0,0.0,0.0,0.0,-3.818,-3.8151,-3.906,-3.9792,-4.0172,-3.9336,-3.8787,-3.8821,-3.8463,-3.857,-3.9482,-4.0308,-4.1112,-4.2061,-4.3368,-4.4452,-4.5223,-4.5745,-4.6201,-4.6828,-4.6212,-4.5726,-4.5759,-4.6067,-4.6277,-4.6309,-4.6617,-4.6876,-4.6876,-4.7524,-4.8026,-4.8091,-4.8852,-4.9499,-4.9515,-5.0098,-5.0584,-5.0617,-5.0908,-5.1183,-5.1183,-5.1183,-5.1183,-5.1183,-5.1183,-5.1183,-5.1183,-5.1183,-5.1183,-2.3983,-2.4386,-2.4386,-2.4684,-2.534,-2.6673,-2.7218,-2.7167,-2.7251,-2.7272,-2.7347,-2.7715,-2.8175,-2.8631,-2.8631,-2.8921,-2.9393,-2.9485,-2.976,-3.0125,-3.0216,-3.0216,-3.0216,-3.0216,-3.0216,-3.0216,-3.0216,-3.0216,-3.0216,-3.0216,-3.0913,-3.2215,-3.224,-3.2679,-3.3493,-3.2986,-3.2672,-3.2698,-3.3352,-3.3914,-3.4384,-3.4332,-3.4071,-3.3613,-3.3522,-3.3221,-3.2712,-3.2672,-3.2765,-3.3001,-3.3001,-3.3119,-3.3421,-3.2466,-3.1842,0.0,-3.1005,0.0,0.0,0.0,0.0,0.0,0.0,0.0,0.0,-3.8268,-3.9079,-3.9847,-3.9792,-3.9838,-4.0033,-3.9554,-3.9396,-3.9802,-3.9972,-4.0446,-4.1503,-4.1992,-4.2817,-4.4018,-4.451,-4.5152,-4.6016,-4.623,-4.6372,-4.6668,-4.6689,-4.6678,-4.6775,-4.6811,-4.6828,-4.6876,-4.6876,-4.6925,-4.7119,-4.7702,-4.822,-4.8414,-4.9402,-5.0212,-5.0244,-5.0746,-5.1167,-5.1167,-5.1151,-5.1183,-5.1183,-5.1183,-5.1183,-5.1183,-5.1183,-5.1183,-5.1183,-5.1183,-5.1183,-2.414,-2.481,-2.481,-2.5573,-2.678,-2.6745,-2.6603,-2.638,-2.7061,-2.7272,-2.7357,-2.7441,-2.7715,-2.8081,-2.8175,-2.8351,-2.8817,-2.929,-2.9577,-2.9669,-3.0034,-3.0216,-3.0216,-3.0216,-3.0216,-3.0216,-3.0216,-3.0216,-3.0216,-3.0216,-3.0836,-3.2064,-3.181,-3.2147,-3.3222,0.0,0.0,0.0,-3.3718,-3.4293,-3.4371,-3.3966,-3.3692,-3.3574,-3.3117,0.0,-3.2698,-3.2672,-3.2765,-3.3001,-3.3001,0.0,0.0,0.0,0.0,0.0,0.0,0.0,0.0,0.0,0.0,0.0,-3.6603,-3.7076,-3.7477,-3.8123,-3.8851,-3.9498,-3.9575,-3.9822,-4.0346,-4.03,-4.0269,-4.0339,-4.0932,-4.1395,-4.1601,-4.2582,-4.3603,-4.4112,-4.47,-4.5295,-4.5785,-4.5889,-4.5905,-4.6032,-4.6246,-4.6442,-4.6442,-4.6738,-4.6876,-4.6892,-4.6941,-4.7135,-4.7702,-4.8382,-4.903,-4.9645,-5.0374,-5.0908,-5.0957,-5.1038,-5.1167,-5.1183,-5.1183,-5.1183,-5.1183,-5.1183,-5.1183,-5.1183,-5.1183,-5.1183,-5.1183,-5.1183,-5.1183,-2.4334,0.0,-2.458,-2.4888,0.0,-2.612,-2.6323,-2.6219,-2.6967,-2.7272,-2.7272,-2.7272,-2.7441,-2.762,-2.7631,-2.7893,-2.8351,-2.8642,-2.9024,-2.9485,-2.976,-2.9943,-3.0216,-3.0216,-3.0216,-3.0216,-3.0216,-3.0216,-3.0216,-3.0216,-3.0656,-3.1625,-3.1808,-3.2361,-3.3303,-3.3433,-3.3404,-3.3143,-3.3705,-3.4136,-3.4371,-3.4136,-3.3862,-3.36,0.0,0.0,0.0,0.0,0.0,0.0,0.0,0.0,0.0,0.0,0.0,-3.3675,-3.3149,-3.3234,-3.4178,-3.4967,-3.6025,-3.746,-3.8447,-3.8862,-3.8523,-3.9108,-3.9647,-3.9985,-4.0016,-4.0155,-4.0493,-4.0524,-4.0678,-4.1016,-4.1386,-4.1832,-4.2494,-4.3156,-4.3769,-4.4332,-4.4732,-4.5024,-4.5468,-4.5541,-4.5672,-4.5961,-4.6159,-4.6301,-4.6356,-4.6668,-4.6989,-4.7362,-4.7443,-4.7702,-4.8414,-4.9111,-4.9645,-5.0098,-5.0697,-5.1118,-5.1183,-5.1183,-5.1183,-5.1183,-5.1183,-5.1183,-5.1183,-5.1183,-5.1183,-5.1183,-5.1183,-5.1329,-5.1588,-5.1685,-5.1685,-2.4633,-2.4342,-2.4333,-2.4253,-2.4271,-2.5472,-2.6135,-2.6218,0.0,0.0,0.0,-2.7293,-2.7272,-2.7272,-2.7272,-2.7536,-2.7904,-2.7987,-2.8456,-2.9209,-2.9393,-2.9669,-3.0034,-3.0125,-3.0216,-3.0216,-3.0216,-3.0216,-3.0216,-3.0216,-3.0578,-3.1306,-3.1965,-3.276,-3.3569,-3.4147,-3.4175,-3.3757,-3.3731,-3.3953,-3.4371,-3.4306,-3.4045,-3.36,-3.3496,-3.3208,-3.2712,-3.2672,-3.2765,-3.3001,-3.3001,-3.3132,-3.3409,-3.3422,-3.354,-3.3712,-3.3726,-3.4241,-3.5329,-3.6039,-3.7086,-3.8826,-3.9879,-4.0293,-3.9739,-4.0216,-4.0524,-4.0524,-4.0524,-4.0524,-4.0539,-4.0662,-4.0955,-4.154,-4.1817,-4.2402,-4.3402,-4.3694,-4.4062,-4.4464,-4.4632,-4.4723,-4.5024,-4.5098,-4.5305,-4.5873,-4.5929,-4.6223,-4.639,-4.677,-4.7254,-4.7884,-4.8117,-4.8431,-4.9094,-4.9645,-5.0115,-5.0325,-5.0827,-5.1167,-5.1183,-5.1183,-5.1183,-5.1183,-5.1183,-5.1183,-5.1183,-5.1183,-5.1183,-5.1183,-5.1297,-5.1523,-5.2058,-5.2414,-5.256,-2.4787,-2.4744,-2.4744,-2.5125,-2.5784,-2.5576,-2.5761,-2.6096,-2.7339,-2.7831,-2.781,-2.7427,-2.7272,-2.7272,-2.7272,-2.7357,-2.7452,-2.7809,-2.8081,0.0,-2.9117,-2.9485,-2.9577,-3.0034,-3.0216,-3.0216,-3.0216,-3.0216,-3.0216,-3.0216,-3.0578,-3.1294,-3.1965,-3.292,-3.4134,-3.4314,-3.4358,-3.428,-3.428,-3.4319,-3.4397,-3.394,-3.3679,-3.3574,-3.3104,-3.2777,-3.2712,-3.2698,-3.2765,-3.3001,-3.3001,-3.3238,-3.374,-3.3779,-3.3991,-3.4275,-3.4327,-3.4696,-3.5588,-3.6184,-3.7439,-3.9364,-4.0176,-4.0424,-4.0401,-4.0478,-4.0524,-4.0524,-4.0524,-4.0524,-4.057,-4.1078,-4.1478,-4.1694,-4.2617,-4.3387,-4.3602,-4.4079,-4.4433,-4.4541,-4.4572,-4.4572,-4.4723,-4.4723,-4.4723,-4.4858,-4.5368,-4.5704,-4.6639,-4.71,-4.7622,-4.8198,-4.8667,-4.9119,-4.9717,-5.0017,-5.0299,-5.094,-5.107,-5.1183,-5.1183,-5.1183,-5.1183,-5.1183,-5.1183,-5.1167,-5.1183,-5.1183,-5.1183,-5.1199,-5.1539,-5.1993,-5.2236,-5.3175,-5.3839,-2.4821,-2.4821,-2.4821,-2.5034,-2.5441,-2.5693,-2.6142,-2.6769,-2.7617,-2.7804,-2.7572,-2.737,-2.7452,-2.7634,-2.7614,-2.7479,-2.7357,-2.7536,-2.7904,-2.8362,-2.8817,-2.9393,-2.9852,-3.0125,-3.0216,-3.0216,-3.0216,-3.0216,-3.0216,-3.0216,-3.0397,-3.0758,-3.1789,-3.3006,-3.4301,-3.4397,-3.4397,-3.4397,-3.4397,-3.4397,-3.4384,-3.4149,-3.4031,-3.4018,-3.3757,-3.3626,-3.3613,-3.3613,-3.3708,-3.3776,-3.3776,-3.3894,-3.4157,-3.4183,-3.4232,-3.4384,-3.4397,-3.4812,-3.5629,-3.7014,-3.8234,-3.9147,-4.0021,-4.0524,-4.0524,-4.0524,-4.0524,-4.0524,-4.0524,-4.0693,-4.1047,-4.1401,-4.1878,-4.2602,-4.3233,-4.371,-4.4079,-4.4372,-4.4556,-4.4572,-4.4572,-4.4572,-4.4572,-4.4572,-4.4723,-4.4905,-4.5379,-4.6169,-4.7338,-4.7757,-4.8095,-4.8548,-4.8748,-4.9218,-4.9841,-5.0213,-5.0434,-5.0816,-5.1016,-5.1183,-5.1183,-5.1183,-5.1183,-5.1183,-5.1016,-5.0832,-5.0832,-5.0864,-5.0864,-5.088,-5.1286,-5.1815,-5.2673,-5.3952,-5.4729,-2.4821,-2.4821,-2.4821,-2.4821,-2.4821,-2.556,-2.62,-2.6816,-2.7362,-2.7454,-2.7349,-2.7468,-2.7803,-2.8002,-2.8079,-2.7831,-2.7448,-2.7407,-2.782,-2.8362,-2.8445,-2.9002,-2.984,-2.9943,-3.0136,-3.0216,-3.0216,-3.0216,-3.0216,-3.0216,-3.0306,-3.0566,-3.1701,-3.2907,-3.4147,-3.4314,-3.4397,-3.4397,-3.4397,-3.4397,-3.4397,-3.4397,-3.4397,-3.4397,-3.4397,-3.4397,-3.4397,-3.4397,-3.4397,-3.4397,-3.4397,-3.4397,-3.4397,-3.4397,-3.4397,-3.4397,-3.4397,-3.4729,-3.5548,-3.7477,-3.862,-3.8679,-3.9722,-4.047,-4.0524,-4.0524,-4.0524,-4.0539,-4.0709,-4.1016,-4.1509,-4.1909,-4.2463,-4.3448,-4.371,-4.4018,-4.4479,-4.4572,-4.4572,-4.4572,-4.4572,-4.4572,-4.4572,-4.4572,-4.48,-4.5259,-4.5848,-4.6749,-4.7807,-4.818,-4.8464,-4.8686,-4.8922,-4.9268,-4.9837,-5.0198,-5.0432,-5.037,-5.0695,-5.0848,-5.0864,-5.0864,-5.0864,-5.0804,-5.0618,-5.037,-5.037,-5.037,-5.037,-5.0386,-5.0826,-5.1637,-5.2909,-5.3889,-5.4954,-2.4821,-2.4821,-2.4821,-2.4821,-2.4821,-2.4932,-2.5034,-2.5238,-2.5945,-2.6779,-2.738,-2.8156,-2.8507,-2.8556,-2.8545,-2.8307,-2.7883,-2.7862,-2.7752,-2.7578,-2.7904,-2.8362,-2.891,-2.9382,-2.976,-3.0125,-3.0216,-3.0216,-3.0216,-3.0216,-3.0476,-3.1205,-3.1977,-3.2673,-3.3471,-3.4063,-3.4397,-3.4397,-3.4397,-3.4397,-3.4397,-3.4397,-3.4397,-3.4397,-3.4397,-3.4397,-3.4397,-3.4397,-3.4397,-3.4397,-3.4397,-3.4397,-3.4397,-3.4397,-3.4397,-3.4397,-3.4397,-3.4647,-3.5236,-3.6844,-3.7979,-3.8264,-3.9493,-4.0331,-4.047,-4.0524,-4.0539,-4.0632,-4.1124,-4.1494,-4.1678,-4.2617,-4.334,-4.3618,-4.411,-4.4526,-4.4541,-4.4572,-4.4572,-4.4572,-4.4572,-4.4572,-4.4572,-4.4572,-4.4818,-4.5403,-4.6098,-4.6824,-4.7611,-4.826,-4.8584,-4.8697,-4.9231,-4.9631,-4.9836,-5.0214,-5.0214,-5.0073,-5.0292,-5.037,-5.0308,-5.0152,-5.0073,-5.0246,-5.0073,-4.9995,-4.9995,-4.9995,-4.9995,-5.0074,-5.0565,-5.1389,-5.2689,-5.3279,-5.3815,-2.4821,-2.4821,-2.4821,-2.4821,-2.4821,-2.4821,-2.4821,-2.4932,-2.5771,-2.6626,-2.7463,-2.8301,-2.8747,-2.9032,-2.9021,-2.8773,-2.8349,-2.8328,-2.8275,-2.8157,-2.8317,-2.8548,-2.8746,-2.9198,-2.9577,-2.9852,-3.0034,-3.0216,-3.0216,-3.0216,-3.0578,-3.1294,-3.1965,-3.2673,-3.3386,-3.4063,-3.4397,-3.4397,-3.4397,-3.4397,-3.4397,-3.4397,-3.4397,-3.4397,-3.4397,-3.4397,-3.4397,-3.4397,-3.4397,-3.4397,-3.4397,-3.4397,-3.4397,-3.4397,-3.4397,-3.4397,-3.4647,-3.4908,-3.5086,-3.6308,-3.7357,-3.8011,-3.9015,-3.9778,-4.0455,-4.0524,-4.0632,-4.1079,-4.141,-4.174,-4.2202,-4.3017,-4.3725,-4.411,-4.4418,-4.4572,-4.4572,-4.4572,-4.4572,-4.4572,-4.4572,-4.4572,-4.4572,-4.4572,-4.4864,-4.5495,-4.6172,-4.685,-4.7511,-4.8189,-4.8558,-4.8604,-4.8934,-4.9113,-4.9178,-4.9517,-4.9661,-4.9677,-4.9916,-4.9979,-4.9916,-4.9916,-4.9916,-4.9916,-4.9677,-4.9517,-4.9517,-4.9517,-4.9533,-4.9723,-5.0373,-5.118,-5.1749,-5.2144,-5.2883,-2.4368,-2.4599,-2.4701,-2.4821,-2.4821,-2.4821,-2.4821,-2.4923,-2.5771,-2.6518,-2.7168,-2.8252,-2.8835,-2.9095,-2.9394,-2.9239,-2.8845,-2.8804,-2.8755,-2.8739,-2.8697,-2.8647,-2.8777,-2.9118,-2.9331,-2.9301,-2.9566,-2.984,-3.0034,-3.0125,-3.0487,-3.1026,-3.1713,-3.2326,-3.2871,-3.3641,-3.416,-3.4147,-3.4314,-3.4397,-3.4397,-3.4397,-3.4397,-3.4397,-3.4397,-3.4397,-3.4397,-3.4397,-3.4397,-3.4397,-3.4397,-3.4397,-3.4397,-3.4397,-3.4397,-3.4397,-3.4743,-3.4908,-3.4908,-3.583,-3.6674,-3.7496,-3.8324,-3.9233,-3.992,-4.0301,-4.084,-4.1473,-4.1734,-4.2171,-4.2786,-4.3448,-4.4048,-4.451,-4.4572,-4.4572,-4.4572,-4.4572,-4.4572,-4.4572,-4.4572,-4.4572,-4.4572,-4.4587,-4.4833,-4.5495,-4.6172,-4.685,-4.7511,-4.8158,-4.8604,-4.8604,-4.8604,-4.8604,-4.8604,-4.9015,-4.9194,-4.9194,-4.9421,-4.9677,-4.9597,-4.9517,-4.9501,-4.9259,-4.9194,-4.9113,-4.9113,-4.9113,-4.9194,-4.9272,-4.9828,-5.0526,-5.0626,-5.1104,-5.1607,-2.3472,-2.4033,-2.459,-2.4821,-2.4821,-2.4821,-2.4821,-2.4821,-2.5661,-2.6091,-2.6409,-2.7931,-2.8678,-2.8744,-2.9482,-2.9704,-2.9321,-2.928,-2.9021,-2.8707,-2.8686,-2.8634,-2.8689,-2.8764,-2.8709,-2.8757,-2.8828,-2.9106,-2.9577,-2.9943,-3.0216,-3.0306,-3.1026,-3.1383,-3.1737,-3.2859,-3.3484,-3.3641,-3.4147,-3.4397,-3.4397,-3.4397,-3.4397,-3.4397,-3.4397,-3.4397,-3.4397,-3.4397,-3.4397,-3.4397,-3.4397,-3.4397,-3.4397,-3.4397,-3.4397,-3.4397,-3.4397,-3.4481,-3.4564,-3.5277,-3.591,-3.6281,-3.7724,-3.8796,-3.9233,-3.999,-4.0847,-4.154,-4.214,-4.274,-4.3476,-4.4108,-4.4449,-4.4541,-4.4572,-4.4572,-4.4572,-4.4572,-4.4572,-4.4572,-4.4572,-4.4572,-4.4572,-4.4572,-4.4864,-4.5449,-4.6126,-4.6788,-4.7404,-4.8112,-4.8481,-4.8589,-4.8604,-4.8604,-4.8604,-4.8852,-4.8949,-4.8949,-4.9015,-4.9178,-4.8867,-4.862,-4.8702,-4.8785,-4.8769,-4.8687,-4.8702,-4.8702,-4.8852,-4.8965,-4.9113,-4.9603,-5.0369,-4.9993,-5.0496,-2.3913,-2.4479,-2.471,-2.4821,-2.4821,-2.4821,-2.4821,-2.4821,-2.5145,-2.556,-2.6082,-2.6744,-2.7599,-2.8698,-2.9016,-2.9367,-2.9746,-2.9756,-2.9497,-2.9094,-2.9052,-2.8749,-2.8258,-2.8507,-2.8551,-2.8333,-2.8527,-2.8806,-2.9013,-2.9187,-2.9279,-2.9463,-3.0272,-3.0991,-3.1613,-3.276,-3.3556,-3.3966,-3.4314,-3.4397,-3.4397,-3.4397,-3.4397,-3.4397,-3.4397,-3.4397,-3.4397,-3.4397,-3.4397,-3.4397,-3.4397,-3.4397,-3.4397,-3.4397,-3.4397,-3.4397,-3.4397,-3.4397,-3.4397,-3.4634,-3.5196,-3.5976,-3.7204,-3.8264,-3.9,-3.9935,-4.094,-4.2005,-4.2428,-4.3017,-4.4016,-4.4433,-4.4572,-4.4572,-4.4572,-4.4572,-4.4572,-4.4572,-4.4572,-4.4572,-4.4572,-4.4572,-4.4572,-4.4572,-4.4664,-4.4941,-4.5511,-4.6203,-4.6865,-4.7527,-4.8096,-4.8496,-4.8604,-4.8604,-4.8604,-4.8687,-4.8785,-4.8702,-4.8769,-4.8769,-4.8604,-4.8604,-4.8687,-4.8687,-4.8604,-4.8604,-4.862,-4.9081,-4.9163,-4.9293,-4.9454,-4.9931,-5.0563,-5.0374,-5.077,-2.3809,-2.4256,-2.4599,-2.4821,-2.4821,-2.4821,-2.4821,-2.4821,-2.4821,-2.5136,-2.567,-2.5981,-2.6735,-2.7824,-2.8465,-2.9016,-2.9554,-2.9869,-2.9829,-2.9539,-2.9528,-2.9032,-2.8276,-2.8533,-2.8305,-2.7894,-2.8269,-2.8445,-2.8456,-2.8631,-2.8724,-2.8817,-2.9726,-3.0441,-3.1069,-3.2326,-3.3288,-3.37,-3.4134,-3.4397,-3.4397,-3.4397,-3.4397,-3.4397,-3.4397,-3.4397,-3.4397,-3.4397,-3.4397,-3.4397,-3.4397,-3.4397,-3.4397,-3.4397,-3.4397,-3.4397,-3.4397,-3.4397,-3.4397,-3.4397,-3.4716,-3.5426,-3.666,-3.7724,-3.8413,-3.9565,-4.0944,-4.2007,-4.2452,-4.2993,-4.4127,-4.4511,-4.4496,-4.4572,-4.4572,-4.4572,-4.4572,-4.4572,-4.4572,-4.4572,-4.4572,-4.4572,-4.4572,-4.4572,-4.4572,-4.4572,-4.5157,-4.5772,-4.6219,-4.685,-4.7527,-4.8127,-4.8235,-4.8373,-4.8512,-4.8687,-4.8687,-4.8604,-4.8604,-4.8604,-4.8604,-4.8604,-4.8604,-4.8604,-4.8604,-4.8604,-4.8836,-4.9374,-4.9678,-4.9915,-5.0213,-5.0647,-5.094,-5.1027,-5.1307,-2.3014,-2.3239,-2.4256,-2.471,-2.471,-2.4821,-2.4821,-2.4821,-2.4821,-2.4821,-2.5034,-2.5661,-2.6091,-2.6509,-2.7873,-2.8648,-2.884,-2.9536,-2.9891,-2.9922,-2.9901,-2.9415,-2.8587,-2.8483,-2.8136,-2.7378,-2.7809,-2.7987,-2.7987,-2.8351,-2.8538,-2.8724,-2.9106,-2.9474,-2.9566,-3.1335,-3.2314,-3.2747,-3.37,-3.4314,-3.4397,-3.4397,-3.4397,-3.4397,-3.4397,-3.4397,-3.4397,-3.4397,-3.4397,-3.4397,-3.4397,-3.4397,-3.4397,-3.4397,-3.4397,-3.4397,-3.4397,-3.4397,-3.4397,-3.4397,-3.4397,-3.4786,-3.6188,-3.7281,-3.7663,-3.8987,-4.0614,-4.1754,-4.2104,-4.2696,-4.3976,-4.4358,-4.4435,-4.4572,-4.4572,-4.4572,-4.4572,-4.4572,-4.4572,-4.4572,-4.4572,-4.4572,-4.4572,-4.4572,-4.4572,-4.4679,-4.508,-4.5526,-4.5726,-4.6249,-4.6834,-4.7404,-4.7758,-4.8004,-4.8312,-4.8604,-4.8604,-4.8604,-4.8604,-4.8604,-4.8604,-4.8604,-4.8604,-4.8604,-4.8604,-4.8604,-4.9147,-4.9614,-5.0151,-5.0445,-5.0903,-5.1443,-5.1663,-5.1826,-5.159,-2.2562,-2.3127,-2.3809,-2.4144,-2.4256,-2.4599,-2.4821,-2.4821,-2.4821,-2.4821,-2.4821,-2.5136,-2.556,-2.6118,-2.6984,-2.7698,-2.8212,-2.8809,-2.9373,-2.9839,-2.9663,-2.9197,-2.8649,-2.8286,-2.7831,-2.744,-2.7441,-2.7536,-2.7536,-2.7715,-2.7726,-2.7809,-2.8269,-2.8735,-2.9268,-3.0441,-3.1424,-3.2463,-3.3275,-3.3894,-3.4314,-3.4397,-3.4397,-3.4397,-3.4397,-3.4397,-3.4397,-3.4397,-3.4397,-3.4397,-3.4397,-3.4397,-3.4397,-3.4397,-3.4397,-3.4397,-3.4397,-3.4397,-3.4397,-3.4397,-3.4397,-3.4703,-3.6108,-3.7049,-3.7372,-3.8914,-4.0516,-4.1741,-4.2014,-4.2621,-4.3945,-4.4281,-4.4343,-4.4587,-4.4572,-4.4572,-4.4572,-4.4572,-4.4572,-4.4572,-4.4572,-4.4572,-4.4572,-4.4572,-4.4572,-4.4572,-4.4803,-4.5033,-4.5495,-4.5711,-4.6172,-4.6773,-4.7173,-4.7542,-4.7804,-4.8096,-4.8281,-4.8419,-4.8527,-4.8589,-4.8604,-4.8604,-4.8604,-4.8604,-4.8604,-4.8754,-4.9309,-4.9931,-5.0538,-5.1369,-5.2059,-5.2449,-5.2677,-5.259,-5.2362,-2.2335,-2.2796,-2.3585,-2.3921,-2.3896,-2.4335,-2.4598,-2.4573,-2.4453,-2.4401,-2.4393,-2.4393,-2.4802,-2.5604,-2.6225,-2.6958,-2.7756,-2.8319,-2.8928,-2.9384,-2.9218,-2.8794,-2.8349,-2.7893,-2.7552,-2.7314,-2.7272,-2.7272,-2.7272,-2.7272,-2.7367,-2.7357,-2.7809,-2.8175,-2.8817,-2.9897,-3.1146,-3.219,-3.3018,-3.3725,-3.423,-3.4397,-3.4397,-3.4397,-3.4397,-3.4397,-3.4397,-3.4397,-3.4397,-3.4397,-3.4397,-3.4397,-3.4397,-3.4397,-3.4397,-3.4397,-3.4397,-3.4397,-3.4397,-3.4397,-3.4551,-3.5032,-3.6281,-3.7218,-3.7691,-3.9017,-4.0239,-4.1157,-4.1625,-4.2349,-4.3518,-4.4082,-4.4266,-4.4572,-4.4572,-4.4572,-4.4572,-4.4572,-4.4572,-4.4572,-4.4572,-4.4572,-4.4572,-4.4572,-4.4572,-4.4572,-4.4572,-4.4649,-4.5095,-4.5172,-4.5618,-4.6034,-4.6388,-4.6773,-4.7188,-4.7542,-4.7896,-4.8173,-4.8404,-4.8527,-4.8604,-4.8604,-4.8604,-4.8604,-4.8604,-4.8604,-4.9081,-5.0229,-5.107,-5.2076,-5.2834,-5.3058,-5.3127,-5.3212,-5.3127,-2.1995,-2.2222,-2.3215,-2.364,-2.3805,-2.4031,-2.4096,-2.4153,-2.3879,-2.3759,-2.3751,-2.3794,-2.4157,-2.4859,-2.5768,-2.6535,-2.7219,-2.8043,-2.8421,-2.8514,-2.8462,-2.8245,-2.7862,-2.751,-2.7324,-2.7272,-2.7272,-2.7272,-2.7272,-2.7272,-2.7272,-2.7357,-2.7726,-2.7998,-2.8269,-2.9543,-3.0519,-3.1311,-3.2488,-3.3458,-3.4134,-3.4314,-3.4397,-3.4397,-3.4397,-3.4397,-3.4397,-3.4397,-3.4397,-3.4397,-3.4397,-3.4397,-3.4397,-3.4397,-3.4397,-3.4397,-3.4397,-3.4397,-3.4397,-3.4397,-3.4634,-3.5345,-3.6294,-3.7246,-3.7947,-3.8826,-3.9796,-4.0516,-4.101,-4.1806,-4.2864,-4.3502,-4.399,-4.4496,-4.4572,-4.4572,-4.4572,-4.4572,-4.4572,-4.4572,-4.4572,-4.4572,-4.4572,-4.4572,-4.4572,-4.4572,-4.4572,-4.4618,-4.4649,-4.4818,-4.4957,-4.5311,-4.5741,-4.6111,-4.6542,-4.6973,-4.7311,-4.7511,-4.785,-4.8142,-4.8533,-4.8708,-4.9147,-4.9066,-4.8774,-4.8805,-4.939,-5.0767,-5.1533,-5.2148,-5.2747,-5.328,-5.3518,-5.3518,-5.3518,-2.1432,-2.1524,-2.1953,-2.2395,-2.279,-2.3112,-2.3508,-2.3828,-2.3717,-2.3614,-2.3657,-2.3665,-2.3833,-2.4149,-2.521,-2.58,-2.6245,-2.7195,-2.7614,-2.7614,-2.7614,-2.7562,-2.7448,-2.7334,-2.7272,-2.7272,-2.7272,-2.7272,-2.7272,-2.7272,-2.7272,-2.7272,-2.7452,-2.7547,-2.7631,-2.8362,-2.8991,-2.9886,-3.1134,-3.2202,-3.3066,-3.3797,-3.423,-3.4397,-3.4397,-3.4397,-3.4397,-3.4397,-3.4397,-3.4397,-3.4397,-3.4397,-3.4397,-3.4397,-3.4397,-3.4397,-3.4397,-3.4397,-3.4397,-3.4397,-3.4564,-3.4786,-3.6029,-3.6972,-3.7218,-3.856,-3.9593,-4.0262,-4.0606,-4.128,-4.2409,-4.2938,-4.3456,-4.4266,-4.4496,-4.4572,-4.4572,-4.4572,-4.4572,-4.4572,-4.4572,-4.4572,-4.4572,-4.4572,-4.4572,-4.4572,-4.4572,-4.4572,-4.4572,-4.4572,-4.4756,-4.491,-4.5234,-4.5557,-4.5926,-4.6357,-4.6665,-4.6803,-4.7142,-4.7527,-4.8233,-4.891,-4.9694,-5.0306,-4.9726,-4.9537,-5.0595,-5.1915,-5.2219,-5.2291,-5.2903,-5.3501,-5.3518,-5.3518,-5.3518,-2.1006,-2.0976,-2.1307,-2.1611,-2.1885,-2.2207,-2.2486,-2.2778,-2.2837,-2.2874,-2.2874,-2.3194,-2.3402,-2.378,-2.4473,-2.5173,-2.5838,-2.651,-2.6996,-2.7282,-2.7303,-2.7293,-2.7272,-2.7272,-2.7272,-2.7272,-2.7272,-2.7272,-2.7272,-2.7272,-2.7272,-2.7272,-2.7272,-2.7272,-2.7357,-2.782,-2.8362,-2.9176,-3.0158,-3.1045,-3.1816,-3.2821,-3.3262,-3.3615,-3.3966,-3.4327,-3.4397,-3.4397,-3.4397,-3.4397,-3.4397,-3.4397,-3.4397,-3.4397,-3.4397,-3.4397,-3.4397,-3.4397,-3.4397,-3.4397,-3.4551,-3.495,-3.5963,-3.6674,-3.7372,-3.8412,-3.9195,-3.9815,-4.0202,-4.0845,-4.1716,-4.2395,-4.3182,-4.399,-4.4343,-4.4496,-4.4587,-4.4572,-4.4572,-4.4572,-4.4572,-4.4572,-4.4572,-4.4572,-4.4572,-4.4572,-4.4572,-4.4572,-4.4572,-4.4572,-4.4587,-4.4741,-4.4803,-4.508,-4.5218,-4.5541,-4.6082,-4.6252,-4.6576,-4.6993,-4.7682,-4.8607,-4.922,-4.9853,-5.0009,-5.0499,-5.1352,-5.2054,-5.2307,-5.2537,-5.3195,-5.3467,-5.3433,-5.3331,-5.3365,-2.0706,-2.064,-2.0865,-2.104,-2.1102,-2.1317,-2.1482,-2.1531,-2.1615,-2.1791,-2.1893,-2.2266,-2.2857,-2.3538,-2.3827,-2.444,-2.5732,-2.6024,-2.6688,-2.7071,-2.7272,-2.7272,-2.7272,-2.7272,-2.7272,-2.7272,-2.7272,-2.7272,-2.7272,-2.7272,-2.7272,-2.7272,-2.7272,-2.7272,-2.7357,-2.7715,-2.8258,-2.8713,-2.9349,-3.0147,-3.1021,-3.194,-3.2575,-3.3018,-3.3628,-3.4147,-3.4314,-3.4314,-3.4397,-3.4397,-3.4397,-3.4397,-3.4397,-3.4397,-3.4397,-3.4397,-3.4397,-3.4397,-3.4397,-3.4397,-3.4634,-3.5264,-3.5507,-3.6387,-3.7553,-3.8113,-3.8693,-3.9457,-3.9963,-4.0366,-4.0904,-4.2047,-4.3046,-4.3684,-4.4005,-4.4281,-4.4511,-4.4572,-4.4572,-4.4572,-4.4572,-4.4572,-4.4572,-4.4572,-4.4572,-4.4572,-4.4572,-4.4572,-4.4572,-4.4572,-4.4572,-4.4603,-4.4618,-4.4603,-4.4649,-4.4695,-4.5217,-4.568,-4.6129,-4.6532,-4.6933,-4.7694,-4.8193,-4.8779,-5.0082,-5.0719,-5.1086,-5.169,-5.2067,-5.2263,-5.2438,-5.2893,-5.3264,-5.3095,-5.3044,-2.0567,-2.0318,-2.0097,-2.0278,-2.0643,-2.0442,-2.0615,-2.1028,-2.1059,-2.1318,-2.1623,-2.1827,-2.2241,-2.2955,-2.3464,-2.3926,-2.4674,-2.5664,-2.6486,-2.7262,-2.7272,-2.7272,-2.7272,-2.7272,-2.7272,-2.7272,-2.7272,-2.7272,-2.7272,-2.7272,-2.7272,-2.7272,-2.7272,-2.7272,-2.7357,-2.7452,-2.7536,-2.7809,-2.8538,-2.9429,-3.0406,-3.1412,-3.2413,-3.3202,-3.3628,-3.3894,-3.4076,-3.416,-3.4243,-3.4314,-3.4397,-3.4397,-3.4397,-3.4397,-3.4397,-3.4397,-3.4397,-3.4397,-3.4397,-3.4397,-3.4481,-3.4716,-3.5345,-3.6136,-3.7063,-3.7796,-3.8501,-3.9207,-3.9559,-3.9888,-4.0501,-4.1716,-4.2468,-4.2984,-4.3484,-4.3849,-4.4112,-4.4419,-4.4572,-4.4572,-4.4572,-4.4572,-4.4572,-4.4572,-4.4572,-4.4572,-4.4572,-4.4572,-4.4572,-4.4572,-4.4572,-4.4572,-4.4572,-4.4572,-4.4572,-4.4632,-4.5013,-4.5441,-4.5856,-4.6476,-4.6881,-4.7444,-4.8216,-4.9398,-5.0693,-5.1011,-5.083,-5.1228,-5.1631,-5.1597,-5.1663,-5.2115,-5.2452,-5.2503,-5.2621,-1.983,-1.9981,-1.9667,-1.9746,-1.9919,-1.9858,-1.9894,-2.0205,-2.0403,-2.0814,-2.1318,-2.153,-2.213,-2.2809,-2.3318,-2.3895,-2.5013,-2.6271,-2.7186,-2.7531,-2.7396,-2.7272,-2.7272,-2.7272,-2.7272,-2.7272,-2.7272,-2.7272,-2.7272,-2.7272,-2.7272,-2.7272,-2.7272,-2.7272,-2.7272,-2.7272,-2.7357,-2.7357,-2.7726,-2.8351,-2.9073,-3.0429,-3.2064,-3.3202,-3.3556,-3.3641,-3.3907,-3.4076,-3.416,-3.4243,-3.4314,-3.4397,-3.4397,-3.4397,-3.4397,-3.4397,-3.4397,-3.4397,-3.4397,-3.4397,-3.4397,-3.4397,-3.4881,-3.5722,-3.6582,-3.7372,-3.8173,-3.9031,-3.9484,-3.9694,-4.0337,-4.0861,-4.158,-4.2151,-4.2739,-4.327,-4.3486,-4.4006,-4.4435,-4.4496,-4.4511,-4.4572,-4.4572,-4.4572,-4.4572,-4.4572,-4.4572,-4.4572,-4.4572,-4.4572,-4.4572,-4.4572,-4.4572,-4.4572,-4.4572,-4.4708,-4.5008,-4.5325,-4.5699,-4.6557,-4.7306,-4.7871,-4.8502,-4.9393,-5.0158,-5.0393,-5.0358,-5.0757,-5.1116,-5.1271,-5.1406,-5.1474,-5.1606,-5.1758,-5.186,-1.8856,-1.9553,-1.9389,-1.9272,-1.9272,-1.9279,-1.9376,-1.9376,-1.9836,-2.0416,-2.0925,-2.1439,-2.225,-2.2944,-2.3194,-2.4319,-2.575,-2.6922,-2.7309,-2.7421,-2.7476,-2.7386,-2.7303,-2.7272,-2.7272,-2.7272,-2.7272,-2.7272,-2.7272,-2.7272,-2.7272,-2.7272,-2.7272,-2.7272,-2.7272,-2.7272,-2.7272,-2.7357,-2.7357,-2.7631,-2.7998,-2.9349,-3.0979,-3.2599,-3.3313,-3.3398,-3.3641,-3.3823,-3.3992,-3.4076,-3.423,-3.4314,-3.4397,-3.4397,-3.4397,-3.4397,-3.4397,-3.4397,-3.4397,-3.4397,-3.4397,-3.4397,-3.4397,-3.5182,-3.6267,-3.6972,-3.7753,-3.8634,-3.9324,-3.9619,-4.0172,-4.0502,-4.0756,-4.128,-4.1986,-4.2408,-4.2635,-4.3365,-4.3762,-4.4343,-4.4435,-4.4496,-4.4572,-4.4572,-4.4572,-4.4572,-4.4556,-4.4572,-4.4572,-4.4572,-4.4572,-4.4572,-4.4572,-4.4572,-4.4572,-4.4723,-4.4933,-4.5624,-4.5897,-4.6726,-4.7688,-4.8249,-4.8696,-4.853,-4.8995,-4.941,-4.9824,-5.0082,-5.0426,-5.0798,-5.0828,-5.0625,-5.0744,-5.0997,-5.115,-1.8404,-1.838,-1.8974,-1.9272,-1.9272,-1.9279,-1.9294,-1.933,-1.967,-2.0204,-2.0755,-2.1534,-2.2193,-2.2838,-2.3474,-2.4254,-2.539,-2.6311,-2.68,-2.7053,-2.7313,-2.7528,-2.727,-2.7272,-2.7272,-2.7272,-2.7272,-2.7272,-2.7272,-2.7272,-2.7272,-2.7272,-2.7272,-2.7272,-2.7272,-2.7272,-2.7272,-2.7272,-2.7357,-2.7631,-2.8175,-2.8991,-3.0079,-3.1977,-3.2797,-3.324,-3.3398,-3.3484,-3.3569,-3.381,-3.3979,-3.4076,-3.416,-3.4314,-3.4397,-3.4397,-3.4397,-3.4397,-3.4397,-3.4397,-3.4397,-3.4397,-3.4397,-3.4799,-3.5816,-3.6582,-3.7448,-3.8337,-3.9119,-3.9499,-3.9574,-4.0008,-4.0352,-4.0711,-4.11,-4.161,-4.1731,-4.2108,-4.2864,-4.3731,-4.4052,-4.4358,-4.4435,-4.4496,-4.4496,-4.448,-4.4541,-4.4556,-4.4572,-4.4572,-4.4572,-4.4572,-4.4572,-4.4572,-4.4572,-4.4723,-4.5008,-4.604,-4.6588,-4.7221,-4.8048,-4.8593,-4.8824,-4.8754,-4.869,-4.9046,-4.9338,-4.9468,-4.9598,-4.9881,-4.9763,-4.9661,-4.9965,-5.0304,-5.0574,-1.7377,-1.7996,-1.8415,-1.8848,-1.9308,-1.9462,-1.9528,-1.9579,-1.9864,-2.0327,-2.0903,-2.1348,-2.196,-2.2622,-2.3203,-2.4141,-2.5335,-2.6123,-2.6559,-2.673,-2.7043,-2.7138,-2.7049,-2.7184,-2.7282,-2.7272,-2.7272,-2.7272,-2.7272,-2.7272,-2.7272,-2.7272,-2.7272,-2.7272,-2.7272,-2.7272,-2.7272,-2.7272,-2.7357,-2.7547,-2.8092,-2.8817,-3.0272,-3.1448,-3.2537,-3.3081,-3.324,-3.3398,-3.3471,-3.3556,-3.3738,-3.3992,-3.4076,-3.416,-3.4327,-3.4397,-3.4397,-3.4397,-3.4397,-3.4397,-3.4397,-3.4397,-3.4397,-3.4799,-3.5588,-3.6517,-3.7448,-3.856,-3.9046,-3.9424,-3.9454,-3.9753,-3.9858,-4.0008,-4.0472,-4.0816,-4.101,-4.1325,-4.2063,-4.291,-4.3198,-4.3579,-4.422,-4.4281,-4.4358,-4.4404,-4.4419,-4.4403,-4.4479,-4.4434,-4.4327,-4.4572,-4.4572,-4.4572,-4.4572,-4.4648,-4.5008,-4.6111,-4.6932,-4.7556,-4.8258,-4.8736,-4.894,-4.8962,-4.8956,-4.894,-4.8786,-4.8862,-4.8899,-4.9018,-4.9187,-4.934,-4.9424,-4.961,-4.9915,-1.633,-1.755,-1.7973,-1.8541,-1.9182,-1.974,-1.9857,-1.9916,-2.0201,-2.0552,-2.0997,-2.1299,-2.1695,-2.2411,-2.3051,-2.4048,-2.5735,-2.6034,-2.6393,-2.6779,-2.6943,-2.6963,-2.7029,-2.7207,-2.7376,-2.7272,-2.7272,-2.7272,-2.7272,-2.7272,-2.7272,-2.7272,-2.7272,-2.7272,-2.7272,-2.7272,-2.7272,-2.7272,-2.7272,-2.7272,-2.7726,-2.8991,-3.0351,-3.127,-3.2264,-3.281,-3.3068,-3.3227,-3.3313,-3.3398,-3.3569,-3.3738,-3.3907,-3.4076,-3.416,-3.4314,-3.4397,-3.4397,-3.4397,-3.4397,-3.4397,-3.4397,-3.4397,-3.4881,-3.5749,-3.6688,-3.7857,-3.9031,-3.9424,-3.9424,-3.9424,-3.9439,-3.9454,-3.9544,-3.9903,-4.0232,-4.0322,-4.0591,-4.089,-4.1625,-4.2168,-4.2637,-4.3198,-4.3427,-4.335,-4.332,-4.3335,-4.3731,-4.3762,-4.3915,-4.3991,-4.4373,-4.4587,-4.4572,-4.4572,-4.4572,-4.5067,-4.5985,-4.6657,-4.7288,-4.8113,-4.8798,-4.8906,-4.8934,-4.9001,-4.894,-4.8593,-4.8513,-4.8798,-4.9018,-4.9018,-4.9069,-4.9204,-4.9221,-4.9373,-1.5689,-1.6217,-1.7734,-1.8658,-1.8981,-1.9823,-2.0179,-2.0223,-2.0523,-2.0662,-2.09,-2.1601,-2.1963,-2.2227,-2.2694,-2.3407,-2.4189,-2.5006,-2.5676,-2.6171,-2.6987,-2.735,-2.7635,-2.7806,-2.7541,-2.7334,-2.7272,-2.7272,-2.7272,-2.7272,-2.7272,-2.7272,-2.7272,-2.7272,-2.7272,-2.7272,-2.7272,-2.7272,-2.7272,-2.7272,-2.7452,-2.8351,-2.9441,-3.0362,-3.1359,-3.2251,-3.281,-3.3056,-3.3167,-3.3154,-3.3313,-3.3484,-3.3569,-3.3907,-3.4076,-3.416,-3.4327,-3.4397,-3.4397,-3.4397,-3.4397,-3.4397,-3.4397,-3.4881,-3.5816,-3.7,-3.8173,-3.9192,-3.9424,-3.9424,-3.9424,-3.9424,-3.9424,-3.9439,-3.9574,-3.9649,-3.9679,-3.9933,-4.0306,-4.0471,-4.1024,-4.1459,-4.1955,-4.2136,-4.2212,-4.2228,-4.2364,-4.2743,-4.3062,-4.3244,-4.3381,-4.3685,-4.3867,-4.3943,-4.3987,-4.4079,-4.4631,-4.5596,-4.6212,-4.6759,-4.7438,-4.8102,-4.8754,-4.8815,-4.8866,-4.8951,-4.8861,-4.8798,-4.9001,-4.9018,-4.9018,-4.9018,-4.9035,-4.9018,-4.9018,-1.5515,-1.6168,-1.7495,-1.833,-1.8919,-1.9979,-2.0516,-2.0574,-2.0852,-2.0998,-2.1013,-2.1358,-2.1774,-2.2108,-2.2449,-2.2788,-2.3352,-2.3776,-2.4147,-2.5007,-2.5977,-2.6636,-2.6627,-2.7319,-2.7686,-2.7396,-2.7272,-2.7272,-2.7272,-2.7272,-2.7272,-2.7272,-2.7272,-2.7272,-2.7272,-2.7272,-2.7272,-2.7272,-2.7272,-2.7272,-2.7547,-2.8175,-2.8899,-2.9441,-3.0812,-3.1713,-3.2264,-3.2896,-3.3081,-3.3068,-3.3227,-3.3326,-3.3398,-3.3569,-3.3823,-3.4063,-3.416,-3.4243,-3.4397,-3.4397,-3.4397,-3.4397,-3.4481,-3.5019,-3.6122,-3.7063,-3.8098,-3.928,-3.9424,-3.9424,-3.9424,-3.9424,-3.9424,-3.9424,-3.9424,-3.9424,-3.9424,-3.9424,-3.9634,-3.9753,-3.9903,-4.0379,-4.0902,-4.1234,-4.1504,-4.1684,-4.1715,-4.1987,-4.2243,-4.2439,-4.2636,-4.2727,-4.2967,-4.31,-4.307,-4.3159,-4.3583,-4.4417,-4.5114,-4.5717,-4.6463,-4.7099,-4.7872,-4.8308,-4.8291,-4.8494,-4.8815,-4.9018,-4.9018,-4.9018,-4.9018,-4.9018,-4.9018,-4.9018,-4.9018,-1.5352,-1.6194,-1.7253,-1.8045,-1.881,-2.0174,-2.0845,-2.0881,-2.1086,-2.1203,-2.1211,-2.1211,-2.1432,-2.1774,-2.1888,-2.223,-2.2788,-2.2788,-2.3119,-2.3764,-2.4545,-2.5512,-2.605,-2.7001,-2.7384,-2.7321,-2.7208,-2.7272,-2.7262,-2.7272,-2.7272,-2.7272,-2.7272,-2.7272,-2.7272,-2.7272,-2.7272,-2.7272,-2.7272,-2.7272,-2.7452,-2.7893,-2.8631,-2.936,-3.0441,-3.1436,-3.1977,-3.2624,-3.3081,-3.3081,-3.3068,-3.3167,-3.3326,-3.3398,-3.3569,-3.381,-3.3979,-3.416,-3.4327,-3.4314,-3.4397,-3.4481,-3.4799,-3.5413,-3.6582,-3.7049,-3.7677,-3.9265,-3.9424,-3.9424,-3.9424,-3.9424,-3.9424,-3.9424,-3.9424,-3.9424,-3.9424,-3.9424,-3.9424,-3.9544,-3.9619,-3.9559,-4.0021,-4.0501,-4.0755,-4.1009,-4.1188,-4.1353,-4.1474,-4.1654,-4.194,-4.2092,-4.2271,-4.2493,-4.2536,-4.2663,-4.2987,-4.3409,-4.4113,-4.4789,-4.5549,-4.6386,-4.7216,-4.7479,-4.7631,-4.775,-4.7902,-4.8477,-4.9018,-4.9018,-4.9018,-4.9018,-4.9018,-4.9018,-4.9018,-1.5359,-1.5762,-1.7256,-1.8084,-1.8539,-2.0458,-2.1159,-2.1016,-2.1189,-2.1211,-2.1211,-2.1211,-2.1211,-2.1325,-2.1439,-2.166,-2.2116,-2.2108,-2.2765,-2.3631,-2.4437,-2.5271,-2.5853,-2.6397,-2.6741,-2.7236,-2.7094,-2.7081,-2.7262,-2.7262,-2.7262,-2.7272,-2.7272,-2.7272,-2.7272,-2.7272,-2.7272,-2.7272,-2.7272,-2.7272,-2.7272,-2.7631,-2.8164,-2.9532,-3.026,-3.1069,-3.2797,-3.2982,-3.3081,-3.3081,-3.3081,-3.3081,-3.3154,-3.3313,-3.3398,-3.3569,-3.3823,-3.3992,-3.416,-3.4314,-3.4397,-3.4634,-3.5032,-3.5655,-3.6582,-3.763,-3.8501,-3.9104,-3.9265,-3.9424,-3.9424,-3.9424,-3.9424,-3.9424,-3.9424,-3.9424,-3.9424,-3.9424,-3.9424,-3.9424,-3.9424,-3.9424,-3.9424,-3.9933,-4.0068,-4.0231,-4.0289,-4.0364,-4.0694,-4.0934,-4.1294,-4.1549,-4.1743,-4.1921,-4.2187,-4.2381,-4.2396,-4.2926,-4.3666,-4.4172,-4.4755,-4.5628,-4.638,-4.6735,-4.6887,-4.6938,-4.7124,-4.7784,-4.8376,-4.8832,-4.8968,-4.8832,-4.8917,-4.9018,-4.9018,-1.5515,-1.5704,-1.6885,-1.7481,-1.7695,-1.957,-2.0392,-2.0392,-2.0974,-2.1211,-2.1211,-2.1211,-2.1211,-2.1211,-2.1211,-2.1318,-2.1546,-2.1546,-2.1979,-2.2862,-2.3925,-2.4933,-2.5663,-2.6324,-2.7262,-2.714,-2.6825,-2.6794,-2.6986,-2.7081,-2.7177,-2.7272,-2.7272,-2.7272,-2.7272,-2.7272,-2.7272,-2.7272,-2.7272,-2.7272,-2.7272,-2.7357,-2.762,-2.8258,-2.9897,-3.0441,-3.1347,-3.2525,-3.2896,-3.3081,-3.3081,-3.3081,-3.3081,-3.324,-3.3326,-3.3411,-3.3666,-3.3823,-3.4076,-3.4243,-3.4397,-3.4397,-3.4716,-3.5345,-3.6281,-3.6986,-3.7796,-3.8412,-3.9192,-3.9352,-3.9424,-3.9424,-3.9424,-3.9424,-3.9424,-3.9424,-3.9424,-3.9424,-3.9424,-3.9424,-3.9424,-3.9424,-3.9424,-3.9484,-3.9499,-3.9499,-3.9469,-3.9529,-3.9918,-4.0157,-4.0544,-4.0738,-4.0827,-4.11,-4.1316,-4.1518,-4.1728,-4.2442,-4.3218,-4.3686,-4.4164,-4.4647,-4.5331,-4.5754,-4.6177,-4.6295,-4.6616,-4.7208,-4.7631,-4.7902,-4.824,-4.8511,-4.868,-4.8849,-4.8883,-1.5601,-1.572,-1.6301,-1.6767,-1.7232,-1.8752,-1.9577,-1.9931,-2.0515,-2.0974,-2.1211,-2.1211,-2.1211,-2.1211,-2.1211,-2.1211,-2.1211,-2.1211,-2.1211,-2.1873,-2.283,-2.3853,-2.4485,-2.5272,-2.6018,-2.6318,-2.6543,-2.6496,-2.6794,-2.6794,-2.689,-2.6976,-2.7177,-2.7177,-2.7272,-2.7272,-2.7272,-2.7272,-2.7272,-2.7272,-2.7272,-2.7357,-2.7893,-2.8351,-2.9715,-3.0722,-3.1448,-3.2537,-3.2995,-3.3081,-3.3081,-3.3081,-3.3081,-3.3167,-3.3167,-3.324,-3.3398,-3.3556,-3.3823,-3.4243,-3.4397,-3.4397,-3.4397,-3.5032,-3.5883,-3.6568,-3.7448,-3.8575,-3.9119,-3.9424,-3.9424,-3.9424,-3.9424,-3.9424,-3.9424,-3.9424,-3.9424,-3.9424,-3.9424,-3.9424,-3.9544,-3.9798,-3.9813,-3.9828,-3.9619,-3.9559,-3.9439,-3.9439,-3.9559,-3.9709,-3.9679,-3.9811,-3.9854,-4.0076,-4.0347,-4.0878,-4.1392,-4.1818,-4.2542,-4.3219,-4.3717,-4.4196,-4.4604,-4.5094,-4.5466,-4.5652,-4.5838,-4.6058,-4.6447,-4.6836,-4.7276,-4.775,-4.7936,-4.8105,-4.846,-1.5591,-1.5601,-1.5601,-1.6183,-1.6997,-1.8046,-1.8861,-1.9461,-1.9809,-2.0392,-2.0981,-2.1096,-2.1211,-2.1211,-2.1211,-2.1211,-2.1211,-2.1211,-2.1211,-2.1432,-2.1896,-2.2178,-2.2747,-2.3759,-2.479,-2.528,-2.5624,-2.5994,-2.6496,-2.6496,-2.6496,-2.6592,-2.6794,-2.7081,-2.7272,-2.7272,-2.7272,-2.7272,-2.7272,-2.7272,-2.7272,-2.7367,-2.8081,-2.8899,-2.9624,-3.0543,-3.1713,-3.2438,-3.281,-3.3081,-3.3081,-3.3081,-3.3081,-3.3081,-3.3167,-3.3167,-3.3326,-3.3398,-3.3471,-3.4063,-3.4314,-3.4314,-3.4314,-3.495,-3.6253,-3.6958,-3.7343,-3.8323,-3.9177,-3.9352,-3.9424,-3.9484,-3.9529,-3.9604,-3.9634,-3.9813,-3.9858,-3.9888,-3.9978,-4.0038,-4.0217,-4.0397,-4.0382,-4.0292,-3.9963,-3.9738,-3.9514,-3.9424,-3.9424,-3.9424,-3.9424,-3.9424,-3.9496,-3.9824,-4.0216,-4.0531,-4.0987,-4.1459,-4.2157,-4.3108,-4.368,-4.4121,-4.4491,-4.4688,-4.484,-4.5111,-4.4908,-4.4722,-4.5331,-4.5991,-4.6481,-4.6904,-4.7107,-4.7378,-4.7733,-1.5456,-1.5596,-1.5601,-1.5833,-1.6183,-1.7109,-1.7701,-1.8163,-1.9229,-2.0046,-2.0392,-2.0859,-2.1211,-2.1211,-2.1211,-2.1211,-2.1211,-2.1211,-2.1211,-2.1288,-2.1654,-2.2157,-2.2626,-2.2936,-2.3703,-2.4537,-2.5032,-2.5499,-2.6197,-2.6197,-2.639,-2.6496,-2.6592,-2.688,-2.7167,-2.7272,-2.7272,-2.7272,-2.7272,-2.7272,-2.7272,-2.7357,-2.7631,-2.8445,-2.8991,-3.0079,-3.1436,-3.1989,-3.2537,-3.2982,-3.3081,-3.3081,-3.3081,-3.3081,-3.3081,-3.3081,-3.324,-3.3227,-3.3398,-3.3725,-3.3979,-3.4147,-3.4397,-3.462,-3.5251,-3.6411,-3.7112,-3.7979,-3.8943,-3.9265,-3.9424,-3.9888,-4.0083,-4.0247,-4.0382,-4.0726,-4.0861,-4.0846,-4.0876,-4.092,-4.1025,-4.1055,-4.1055,-4.0696,-4.0352,-3.9933,-3.9679,-3.9469,-3.9424,-3.9424,-3.9424,-3.9424,-3.9496,-3.9809,-4.013,-4.06,-4.1245,-4.1836,-4.2694,-4.3595,-4.4097,-4.4196,-4.4384,-4.4564,-4.4604,-4.457,-4.457,-4.4604,-4.4739,-4.5196,-4.572,-4.6227,-4.6549,-4.6786,-4.7056,-1.4977,-1.5343,-1.5348,-1.5354,-1.5492,-1.6222,-1.6879,-1.7695,-1.9107,-1.9931,-2.0392,-2.0974,-2.1211,-2.1211,-2.1211,-2.1211,-2.1196,-2.1079,-2.1035,-2.1104,-2.1345,-2.1447,-2.1603,-2.2274,-2.292,-2.3776,-2.429,-2.4796,-2.5917,-2.5907,-2.61,-2.6294,-2.639,-2.6592,-2.688,-2.7081,-2.7177,-2.7177,-2.7177,-2.7272,-2.7272,-2.7357,-2.7547,-2.8081,-2.8806,-2.9806,-3.0711,-3.1524,-3.2351,-3.2896,-3.3081,-3.3081,-3.3081,-3.3081,-3.3081,-3.3081,-3.3167,-3.3154,-3.3326,-3.3398,-3.3569,-3.3823,-3.4217,-3.4703,-3.5264,-3.6674,-3.7448,-3.8234,-3.8855,-3.9177,-3.9514,-4.0068,-4.0442,-4.0591,-4.0965,-4.1294,-4.1414,-4.1369,-4.1384,-4.1444,-4.1683,-4.1698,-4.1639,-4.113,-4.0711,-4.0262,-3.9843,-3.9634,-3.9424,-3.9424,-3.9424,-3.9481,-3.9496,-3.9681,-4.0216,-4.0805,-4.1509,-4.2221,-4.308,-4.3939,-4.4056,-4.4138,-4.4327,-4.4497,-4.4514,-4.457,-4.457,-4.4621,-4.4705,-4.479,-4.5026,-4.55,-4.5957,-4.621,-4.6397,-1.4303,-1.4885,-1.4885,-1.4907,-1.4977,-1.5471,-1.6586,-1.8229,-1.9285,-2.0099,-2.0916,-2.0866,-2.1057,-2.1115,-2.1137,-2.1094,-2.1042,-2.0808,-2.0742,-2.0618,-2.0582,-2.033,-2.0445,-2.0981,-2.1696,-2.2612,-2.3384,-2.4196,-2.5528,-2.5732,-2.5907,-2.5994,-2.61,-2.6304,-2.6506,-2.6699,-2.6794,-2.6986,-2.7081,-2.7272,-2.7262,-2.7367,-2.7631,-2.8175,-2.8899,-2.9886,-3.089,-3.1889,-3.2525,-3.2982,-3.3081,-3.3081,-3.3081,-3.3081,-3.3081,-3.3081,-3.3081,-3.3167,-3.3167,-3.3167,-3.324,-3.3556,-3.4524,-3.5467,-3.6188,-3.6752,-3.7539,-3.8234,-3.8929,-3.9177,-3.9514,-4.0053,-4.0561,-4.0905,-4.1309,-4.1519,-4.1654,-4.1669,-4.1683,-4.1863,-4.2207,-4.2312,-4.2237,-4.1818,-4.095,-4.0576,-4.0098,-3.9589,-3.9424,-3.9424,-3.9496,-3.9681,-3.9696,-3.9625,-4.0216,-4.1127,-4.1656,-4.2364,-4.3096,-4.3898,-4.3998,-4.4097,-4.427,-4.4384,-4.4514,-4.457,-4.457,-4.457,-4.4587,-4.4671,-4.4756,-4.484,-4.5314,-4.5517,-4.5703,-1.3355,-1.4303,-1.4767,-1.4885,-1.4907,-1.5031,-1.5429,-1.6109,-1.7466,-1.8486,-1.8711,-1.9953,-2.047,-2.0516,-2.0516,-2.0537,-2.0501,-2.0435,-2.0398,-2.0252,-2.0047,-1.9886,-1.9923,-2.0061,-2.0599,-2.1428,-2.2492,-2.3692,-2.4599,-2.5216,-2.5732,-2.583,-2.582,-2.5917,-2.6024,-2.6217,-2.6506,-2.6794,-2.6986,-2.7081,-2.7262,-2.7262,-2.7536,-2.7893,-2.8351,-2.9349,-3.0531,-3.1169,-3.1889,-3.2896,-3.3081,-3.3081,-3.3081,-3.3081,-3.3081,-3.3081,-3.3081,-3.3081,-3.3081,-3.3081,-3.3167,-3.3398,-3.4191,-3.4428,-3.5074,-3.6094,-3.7295,-3.7994,-3.8855,-3.925,-3.9664,-4.0142,-4.0591,-4.098,-4.1534,-4.2132,-4.2267,-4.2357,-4.2372,-4.2491,-4.2836,-4.2716,-4.2671,-4.1923,-4.1115,-4.0786,-4.0337,-3.9753,-3.9424,-3.9424,-3.9496,-3.9696,-4.0021,-4.0021,-4.0805,-4.1722,-4.2061,-4.2522,-4.3251,-4.378,-4.3956,-4.4056,-4.4138,-4.4327,-4.4514,-4.457,-4.457,-4.457,-4.457,-4.457,-4.4637,-4.4604,-4.4637,-4.4925,-4.5077,-1.2006,-1.2903,-1.3927,-1.4383,-1.4611,-1.4606,-1.4611,-1.4966,-1.6351,-1.7452,-1.8229,-1.9243,-1.9895,-2.0267,-2.0274,-2.0274,-2.0267,-2.012,-2.0047,-1.9974,-1.9733,-1.9601,-1.9469,-1.9501,-2.0124,-2.0885,-2.1988,-2.3194,-2.4097,-2.5109,-2.5732,-2.5732,-2.5732,-2.5732,-2.5732,-2.5927,-2.612,-2.6506,-2.6688,-2.688,-2.7071,-2.7167,-2.7167,-2.7441,-2.7809,-2.9084,-3.017,-3.0621,-3.1989,-3.2896,-3.3081,-3.3081,-3.3081,-3.3081,-3.3081,-3.3081,-3.3081,-3.3081,-3.3081,-3.3081,-3.3081,-3.324,-3.3713,-3.3953,-3.4828,-3.5935,-3.6816,-3.7601,-3.8546,-3.9397,-3.9785,-4.0247,-4.0606,-4.0965,-4.1878,-4.2791,-4.3,-4.3135,-4.3195,-4.3254,-4.321,-4.3075,-4.2641,-4.1863,-4.1175,-4.0666,-4.0172,-3.9679,-3.9424,-3.9424,-3.9496,-3.9625,-4.0076,-4.0478,-4.1393,-4.2126,-4.238,-4.271,-4.3312,-4.3763,-4.3898,-4.4056,-4.4253,-4.4384,-4.453,-4.457,-4.457,-4.457,-4.457,-4.457,-4.457,-4.457,-4.457,-4.4654,-4.4722,-1.0457,-1.1341,-1.2762,-1.3795,-1.4196,-1.4223,-1.4223,-1.4348,-1.5614,-1.703,-1.8343,-1.8693,-1.9192,-1.9571,-1.9679,-1.9917,-1.9844,-1.9806,-1.9718,-1.9725,-1.9499,-1.936,-1.9345,-1.9376,-1.9776,-2.0783,-2.1785,-2.2685,-2.3989,-2.4903,-2.5323,-2.5635,-2.5732,-2.5732,-2.5732,-2.5732,-2.5927,-2.611,-2.6314,-2.6506,-2.6794,-2.689,-2.7071,-2.762,-2.8806,-3.0079,-3.0711,-3.1713,-3.2982,-3.3081,-3.3081,-3.3081,-3.3081,-3.3081,-3.3081,-3.3081,-3.3081,-3.3081,-3.3081,-3.3081,-3.3081,-3.3167,-3.3167,-3.3725,-3.4759,-3.5869,-3.6646,-3.7434,-3.8457,-3.909,-3.9533,-4.0069,-4.0546,-4.0876,-4.1534,-4.2117,-4.2342,-4.2656,-4.3075,-4.312,-4.306,-4.2895,-4.2506,-4.1713,-4.095,-4.0427,-3.9963,-3.9514,-3.9481,-3.9481,-3.9824,-3.9879,-4.0409,-4.106,-4.1722,-4.238,-4.2648,-4.3035,-4.3492,-4.3704,-4.3898,-4.4114,-4.4367,-4.444,-4.457,-4.457,-4.457,-4.457,-4.457,-4.457,-4.457,-4.457,-4.457,-4.457,-4.457,-0.957,-1.1219,-1.3202,-1.4083,-1.4196,-1.4196,-1.4191,-1.4202,-1.4511,-1.5344,-1.6288,-1.7053,-1.7809,-1.8603,-1.883,-1.9049,-1.9422,-1.9535,-1.9418,-1.9418,-1.9301,-1.9279,-1.9272,-1.9272,-1.9576,-1.9879,-2.0885,-2.2383,-2.389,-2.4501,-2.5011,-2.5625,-2.5732,-2.5732,-2.5732,-2.5732,-2.5732,-2.582,-2.5917,-2.6217,-2.6496,-2.688,-2.7262,-2.7893,-2.8969,-2.9988,-3.0633,-3.1536,-3.2438,-3.2896,-3.3081,-3.3081,-3.3081,-3.3081,-3.3081,-3.3081,-3.3081,-3.3081,-3.3081,-3.3081,-3.3081,-3.3326,-3.3569,-3.3979,-3.469,-3.5709,-3.6646,-3.7434,-3.8219,-3.8782,-3.9296,-3.992,-4.0397,-4.0726,-4.1085,-4.1354,-4.1639,-4.2192,-4.2776,-4.2806,-4.2761,-4.2476,-4.2102,-4.1549,-4.0801,-4.0232,-3.9768,-3.9496,-3.9753,-3.9879,-4.06,-4.0857,-4.106,-4.1591,-4.2237,-4.271,-4.2974,-4.3235,-4.3552,-4.3763,-4.3898,-4.4097,-4.4367,-4.4497,-4.457,-4.457,-4.457,-4.457,-4.457,-4.457,-4.457,-4.457,-4.457,-4.457,-4.457,-0.8033,-0.9354,-1.1551,-1.298,-1.3753,-1.3862,-1.3975,-1.4191,-1.4196,-1.4515,-1.5035,-1.6092,-1.7147,-1.7989,-1.8415,-1.8632,-1.9168,-1.9279,-1.9308,-1.9286,-1.9272,-1.9272,-1.9272,-1.9272,-1.9272,-1.9576,-2.0987,-2.2593,-2.38,-2.4707,-2.5323,-2.5625,-2.5635,-2.5732,-2.5732,-2.5732,-2.5732,-2.5732,-2.5732,-2.5927,-2.6207,-2.6592,-2.6976,-2.76,-2.8527,-2.9543,-3.0531,-3.1347,-3.2164,-3.2797,-3.3081,-3.3081,-3.3081,-3.3081,-3.3081,-3.3081,-3.3081,-3.3081,-3.3081,-3.3081,-3.3081,-3.3326,-3.3484,-3.3725,-3.4924,-3.5935,-3.6411,-3.719,-3.8294,-3.8929,-3.9119,-3.9622,-3.9755,-4.0038,-4.0546,-4.095,-4.1294,-4.1743,-4.2028,-4.2043,-4.1938,-4.1698,-4.1354,-4.104,-4.0352,-4.0049,-3.9526,-3.9839,-4.0021,-4.0339,-4.106,-4.1641,-4.1852,-4.2045,-4.2443,-4.2974,-4.3432,-4.3568,-4.3628,-4.3805,-4.3998,-4.4155,-4.4367,-4.444,-4.4497,-4.457,-4.457,-4.457,-4.457,-4.457,-4.457,-4.457,-4.457,-4.457,-4.457,-0.6712,-0.7152,-0.9244,-1.1223,-1.2876,-1.2985,-1.3315,-1.3867,-1.4083,-1.4083,-1.4293,-1.5779,-1.6935,-1.7779,-1.8527,-1.8848,-1.9168,-1.9272,-1.9272,-1.9272,-1.9272,-1.9272,-1.9272,-1.9272,-1.9272,-1.9783,-2.0885,-2.2089,-2.3285,-2.4097,-2.4716,-2.5333,-2.5635,-2.5732,-2.5732,-2.5732,-2.5732,-2.5732,-2.5732,-2.5732,-2.5927,-2.6207,-2.6688,-2.7251,-2.8175,-2.9257,-3.026,-3.1347,-3.2251,-3.2711,-3.3081,-3.3081,-3.3081,-3.3081,-3.3081,-3.3081,-3.3081,-3.3081,-3.3081,-3.3081,-3.3081,-3.3167,-3.324,-3.3953,-3.5224,-3.6015,-3.6489,-3.7204,-3.8308,-3.8797,-3.9046,-3.9207,-3.9309,-3.9442,-4.0068,-4.0546,-4.0905,-4.1235,-4.1294,-4.1324,-4.119,-4.0995,-4.0741,-4.0442,-4.0096,-3.9703,-3.9824,-4.0231,-4.0562,-4.094,-4.1459,-4.211,-4.2506,-4.271,-4.2851,-4.3113,-4.3585,-4.3628,-4.3687,-4.3864,-4.4056,-4.4155,-4.4253,-4.4253,-4.4367,-4.4497,-4.457,-4.457,-4.457,-4.457,-4.457,-4.457,-4.457,-4.457,-4.457,-0.6707,-0.7919,-0.9343,-1.055,-1.1437,-1.1546,-1.1991,-1.2767,-1.3315,-1.3428,-1.3856,-1.4922,-1.5879,-1.598,-1.6836,-1.7575,-1.852,-1.8848,-1.9168,-1.9272,-1.9272,-1.9272,-1.9272,-1.9272,-1.9272,-1.968,-2.0078,-2.0577,-2.2282,-2.2994,-2.3701,-2.4501,-2.5528,-2.5635,-2.5732,-2.5732,-2.5732,-2.5732,-2.5732,-2.5732,-2.5732,-2.611,-2.6658,-2.7589,-2.8877,-2.9954,-3.1057,-3.2164,-3.2711,-3.3068,-3.3081,-3.3081,-3.3081,-3.3081,-3.3081,-3.3081,-3.3081,-3.3081,-3.3081,-3.3081,-3.3081,-3.324,-3.3641,-3.4746,-3.5869,-3.683,-3.7309,-3.7706,-3.8427,-3.8575,-3.8752,-3.9046,-3.9207,-3.928,-3.9607,-3.9994,-4.0412,-4.0606,-4.0711,-4.0771,-4.0771,-4.0591,-4.0427,-4.0098,-3.9723,-3.9481,-3.9625,-4.0021,-4.0547,-4.1127,-4.1787,-4.238,-4.2974,-4.3312,-4.3449,-4.3312,-4.3645,-4.3628,-4.3628,-4.3763,-4.3939,-4.4039,-4.4097,-4.4196,-4.4253,-4.4367,-4.4367,-4.4497,-4.4553,-4.457,-4.457,-4.457,-4.457,-4.457,-4.457]}]]